<?xml version="1.0" encoding="UTF-8" standalone="no" ?>
<gpx xmlns="http://www.topografix.com/GPX/1/1" xmlns:xsi="http://www.w3.org/2001/XMLSchema-instance" xsi:schemaLocation="http://www.topografix.com/GPX/1/1 http://www.topografix.com/GPX/1/1/gpx.xsd" version="1.1" creator="VisuGPX - https://www.visugpx.com">
  <metadata>
    <name>briollay par ecouflant </name>
    <desc><![CDATA[parcours pour rouler a fond ]]></desc>
  </metadata>
  <trk>
    <name><![CDATA[22-SEP-14 18:24:59]]></name>
    <trkseg>
      <trkpt lat="47.56994" lon="-0.50267">
        <ele>17.44</ele>
        <time>2014-09-22T13:50:45Z</time>
      </trkpt>
      <trkpt lat="47.56993" lon="-0.50266">
        <ele>19.84</ele>
        <time>2014-09-22T13:50:50Z</time>
      </trkpt>
      <trkpt lat="47.56993" lon="-0.50266">
        <ele>21.77</ele>
        <time>2014-09-22T13:50:57Z</time>
      </trkpt>
      <trkpt lat="47.56993" lon="-0.50266">
        <ele>26.09</ele>
        <time>2014-09-22T13:51:03Z</time>
      </trkpt>
      <trkpt lat="47.56995" lon="-0.50266">
        <ele>27.53</ele>
        <time>2014-09-22T13:51:19Z</time>
      </trkpt>
      <trkpt lat="47.56994" lon="-0.50266">
        <ele>30.9</ele>
        <time>2014-09-22T13:51:24Z</time>
      </trkpt>
      <trkpt lat="47.56994" lon="-0.50266">
        <ele>31.86</ele>
        <time>2014-09-22T13:51:38Z</time>
      </trkpt>
      <trkpt lat="47.56994" lon="-0.50266">
        <ele>28.98</ele>
        <time>2014-09-22T13:51:39Z</time>
      </trkpt>
      <trkpt lat="47.56994" lon="-0.50266">
        <ele>32.34</ele>
        <time>2014-09-22T13:51:40Z</time>
      </trkpt>
      <trkpt lat="47.56994" lon="-0.50266">
        <ele>31.86</ele>
        <time>2014-09-22T13:51:43Z</time>
      </trkpt>
      <trkpt lat="47.56995" lon="-0.50277">
        <ele>32.82</ele>
        <time>2014-09-22T13:51:49Z</time>
      </trkpt>
      <trkpt lat="47.56988" lon="-0.50298">
        <ele>33.78</ele>
        <time>2014-09-22T13:51:55Z</time>
      </trkpt>
      <trkpt lat="47.5697" lon="-0.5033">
        <ele>32.82</ele>
        <time>2014-09-22T13:52:01Z</time>
      </trkpt>
      <trkpt lat="47.56963" lon="-0.50344">
        <ele>32.34</ele>
        <time>2014-09-22T13:52:03Z</time>
      </trkpt>
      <trkpt lat="47.56933" lon="-0.50363">
        <ele>30.42</ele>
        <time>2014-09-22T13:52:08Z</time>
      </trkpt>
      <trkpt lat="47.56918" lon="-0.50354">
        <ele>29.46</ele>
        <time>2014-09-22T13:52:10Z</time>
      </trkpt>
      <trkpt lat="47.56876" lon="-0.50314">
        <ele>24.65</ele>
        <time>2014-09-22T13:52:15Z</time>
      </trkpt>
      <trkpt lat="47.56866" lon="-0.50307">
        <ele>24.17</ele>
        <time>2014-09-22T13:52:16Z</time>
      </trkpt>
      <trkpt lat="47.56825" lon="-0.50301">
        <ele>22.25</ele>
        <time>2014-09-22T13:52:20Z</time>
      </trkpt>
      <trkpt lat="47.56803" lon="-0.50328">
        <ele>21.77</ele>
        <time>2014-09-22T13:52:23Z</time>
      </trkpt>
      <trkpt lat="47.56791" lon="-0.50348">
        <ele>21.77</ele>
        <time>2014-09-22T13:52:25Z</time>
      </trkpt>
      <trkpt lat="47.56755" lon="-0.50418">
        <ele>20.81</ele>
        <time>2014-09-22T13:52:32Z</time>
      </trkpt>
      <trkpt lat="47.56725" lon="-0.50496">
        <ele>20.32</ele>
        <time>2014-09-22T13:52:40Z</time>
      </trkpt>
      <trkpt lat="47.5672" lon="-0.50522">
        <ele>21.29</ele>
        <time>2014-09-22T13:52:45Z</time>
      </trkpt>
      <trkpt lat="47.5672" lon="-0.50522">
        <ele>21.29</ele>
        <time>2014-09-22T13:52:47Z</time>
      </trkpt>
      <trkpt lat="47.56717" lon="-0.50532">
        <ele>21.77</ele>
        <time>2014-09-22T13:52:52Z</time>
      </trkpt>
      <trkpt lat="47.56707" lon="-0.5056">
        <ele>21.29</ele>
        <time>2014-09-22T13:52:59Z</time>
      </trkpt>
      <trkpt lat="47.56707" lon="-0.50586">
        <ele>21.29</ele>
        <time>2014-09-22T13:53:03Z</time>
      </trkpt>
      <trkpt lat="47.56714" lon="-0.50611">
        <ele>21.29</ele>
        <time>2014-09-22T13:53:07Z</time>
      </trkpt>
      <trkpt lat="47.56736" lon="-0.50679">
        <ele>20.32</ele>
        <time>2014-09-22T13:53:16Z</time>
      </trkpt>
      <trkpt lat="47.5674" lon="-0.50696">
        <ele>19.84</ele>
        <time>2014-09-22T13:53:18Z</time>
      </trkpt>
      <trkpt lat="47.56738" lon="-0.50734">
        <ele>18.4</ele>
        <time>2014-09-22T13:53:23Z</time>
      </trkpt>
      <trkpt lat="47.56728" lon="-0.50742">
        <ele>18.4</ele>
        <time>2014-09-22T13:53:25Z</time>
      </trkpt>
      <trkpt lat="47.56688" lon="-0.50771">
        <ele>18.88</ele>
        <time>2014-09-22T13:53:32Z</time>
      </trkpt>
      <trkpt lat="47.56639" lon="-0.50817">
        <ele>18.88</ele>
        <time>2014-09-22T13:53:41Z</time>
      </trkpt>
      <trkpt lat="47.56611" lon="-0.5084">
        <ele>19.36</ele>
        <time>2014-09-22T13:53:46Z</time>
      </trkpt>
      <trkpt lat="47.5659" lon="-0.50862">
        <ele>18.4</ele>
        <time>2014-09-22T13:53:50Z</time>
      </trkpt>
      <trkpt lat="47.56572" lon="-0.50874">
        <ele>18.88</ele>
        <time>2014-09-22T13:53:53Z</time>
      </trkpt>
      <trkpt lat="47.56537" lon="-0.50913">
        <ele>18.88</ele>
        <time>2014-09-22T13:54:00Z</time>
      </trkpt>
      <trkpt lat="47.56491" lon="-0.50976">
        <ele>18.4</ele>
        <time>2014-09-22T13:54:10Z</time>
      </trkpt>
      <trkpt lat="47.56458" lon="-0.51034">
        <ele>18.88</ele>
        <time>2014-09-22T13:54:18Z</time>
      </trkpt>
      <trkpt lat="47.56442" lon="-0.51062">
        <ele>18.4</ele>
        <time>2014-09-22T13:54:22Z</time>
      </trkpt>
      <trkpt lat="47.56394" lon="-0.51117">
        <ele>17.92</ele>
        <time>2014-09-22T13:54:31Z</time>
      </trkpt>
      <trkpt lat="47.56354" lon="-0.51151">
        <ele>17.92</ele>
        <time>2014-09-22T13:54:38Z</time>
      </trkpt>
      <trkpt lat="47.56328" lon="-0.51157">
        <ele>18.4</ele>
        <time>2014-09-22T13:54:42Z</time>
      </trkpt>
      <trkpt lat="47.56291" lon="-0.51144">
        <ele>19.36</ele>
        <time>2014-09-22T13:54:48Z</time>
      </trkpt>
      <trkpt lat="47.56252" lon="-0.51104">
        <ele>19.36</ele>
        <time>2014-09-22T13:54:56Z</time>
      </trkpt>
      <trkpt lat="47.56227" lon="-0.51073">
        <ele>19.84</ele>
        <time>2014-09-22T13:55:02Z</time>
      </trkpt>
      <trkpt lat="47.56202" lon="-0.51064">
        <ele>19.36</ele>
        <time>2014-09-22T13:55:07Z</time>
      </trkpt>
      <trkpt lat="47.56196" lon="-0.51061">
        <ele>19.84</ele>
        <time>2014-09-22T13:55:08Z</time>
      </trkpt>
      <trkpt lat="47.56155" lon="-0.51026">
        <ele>19.84</ele>
        <time>2014-09-22T13:55:16Z</time>
      </trkpt>
      <trkpt lat="47.56126" lon="-0.50999">
        <ele>19.84</ele>
        <time>2014-09-22T13:55:22Z</time>
      </trkpt>
      <trkpt lat="47.56111" lon="-0.50988">
        <ele>19.84</ele>
        <time>2014-09-22T13:55:25Z</time>
      </trkpt>
      <trkpt lat="47.56059" lon="-0.50941">
        <ele>19.36</ele>
        <time>2014-09-22T13:55:36Z</time>
      </trkpt>
      <trkpt lat="47.56014" lon="-0.50896">
        <ele>19.36</ele>
        <time>2014-09-22T13:55:45Z</time>
      </trkpt>
      <trkpt lat="47.5599" lon="-0.50845">
        <ele>19.36</ele>
        <time>2014-09-22T13:55:52Z</time>
      </trkpt>
      <trkpt lat="47.55989" lon="-0.50836">
        <ele>19.36</ele>
        <time>2014-09-22T13:55:53Z</time>
      </trkpt>
      <trkpt lat="47.55986" lon="-0.50793">
        <ele>18.88</ele>
        <time>2014-09-22T13:55:58Z</time>
      </trkpt>
      <trkpt lat="47.55983" lon="-0.50777">
        <ele>19.84</ele>
        <time>2014-09-22T13:56:00Z</time>
      </trkpt>
      <trkpt lat="47.55972" lon="-0.50746">
        <ele>19.36</ele>
        <time>2014-09-22T13:56:04Z</time>
      </trkpt>
      <trkpt lat="47.55964" lon="-0.50724">
        <ele>19.36</ele>
        <time>2014-09-22T13:56:07Z</time>
      </trkpt>
      <trkpt lat="47.55938" lon="-0.50677">
        <ele>19.36</ele>
        <time>2014-09-22T13:56:14Z</time>
      </trkpt>
      <trkpt lat="47.55924" lon="-0.5063">
        <ele>19.36</ele>
        <time>2014-09-22T13:56:20Z</time>
      </trkpt>
      <trkpt lat="47.55917" lon="-0.50597">
        <ele>19.36</ele>
        <time>2014-09-22T13:56:24Z</time>
      </trkpt>
      <trkpt lat="47.55908" lon="-0.50509">
        <ele>17.92</ele>
        <time>2014-09-22T13:56:34Z</time>
      </trkpt>
      <trkpt lat="47.55907" lon="-0.5047">
        <ele>18.88</ele>
        <time>2014-09-22T13:56:39Z</time>
      </trkpt>
      <trkpt lat="47.55909" lon="-0.50434">
        <ele>18.88</ele>
        <time>2014-09-22T13:56:44Z</time>
      </trkpt>
      <trkpt lat="47.55916" lon="-0.50391">
        <ele>18.4</ele>
        <time>2014-09-22T13:56:50Z</time>
      </trkpt>
      <trkpt lat="47.55911" lon="-0.50363">
        <ele>17.44</ele>
        <time>2014-09-22T13:56:54Z</time>
      </trkpt>
      <trkpt lat="47.5591" lon="-0.50327">
        <ele>18.4</ele>
        <time>2014-09-22T13:56:59Z</time>
      </trkpt>
      <trkpt lat="47.55914" lon="-0.503">
        <ele>17.44</ele>
        <time>2014-09-22T13:57:03Z</time>
      </trkpt>
      <trkpt lat="47.55897" lon="-0.50277">
        <ele>16.48</ele>
        <time>2014-09-22T13:57:08Z</time>
      </trkpt>
      <trkpt lat="47.55888" lon="-0.50268">
        <ele>16.96</ele>
        <time>2014-09-22T13:57:10Z</time>
      </trkpt>
      <trkpt lat="47.55833" lon="-0.50206">
        <ele>16.96</ele>
        <time>2014-09-22T13:57:23Z</time>
      </trkpt>
      <trkpt lat="47.55825" lon="-0.50197">
        <ele>16.96</ele>
        <time>2014-09-22T13:57:25Z</time>
      </trkpt>
      <trkpt lat="47.55813" lon="-0.50184">
        <ele>16.96</ele>
        <time>2014-09-22T13:57:28Z</time>
      </trkpt>
      <trkpt lat="47.55805" lon="-0.50158">
        <ele>16.96</ele>
        <time>2014-09-22T13:57:33Z</time>
      </trkpt>
      <trkpt lat="47.55814" lon="-0.50156">
        <ele>16.96</ele>
        <time>2014-09-22T13:57:36Z</time>
      </trkpt>
      <trkpt lat="47.55817" lon="-0.50159">
        <ele>16.48</ele>
        <time>2014-09-22T13:57:37Z</time>
      </trkpt>
      <trkpt lat="47.55844" lon="-0.50177">
        <ele>16.96</ele>
        <time>2014-09-22T13:57:44Z</time>
      </trkpt>
      <trkpt lat="47.55857" lon="-0.50185">
        <ele>18.4</ele>
        <time>2014-09-22T13:57:47Z</time>
      </trkpt>
      <trkpt lat="47.55878" lon="-0.50201">
        <ele>19.36</ele>
        <time>2014-09-22T13:57:52Z</time>
      </trkpt>
      <trkpt lat="47.55909" lon="-0.50225">
        <ele>20.81</ele>
        <time>2014-09-22T13:58:00Z</time>
      </trkpt>
      <trkpt lat="47.55915" lon="-0.50221">
        <ele>21.77</ele>
        <time>2014-09-22T13:58:03Z</time>
      </trkpt>
      <trkpt lat="47.55907" lon="-0.50213">
        <ele>22.25</ele>
        <time>2014-09-22T13:58:06Z</time>
      </trkpt>
      <trkpt lat="47.55904" lon="-0.5021">
        <ele>22.25</ele>
        <time>2014-09-22T13:58:07Z</time>
      </trkpt>
      <trkpt lat="47.5587" lon="-0.50168">
        <ele>23.21</ele>
        <time>2014-09-22T13:58:16Z</time>
      </trkpt>
      <trkpt lat="47.55829" lon="-0.50115">
        <ele>23.21</ele>
        <time>2014-09-22T13:58:27Z</time>
      </trkpt>
      <trkpt lat="47.55793" lon="-0.50071">
        <ele>24.65</ele>
        <time>2014-09-22T13:58:36Z</time>
      </trkpt>
      <trkpt lat="47.55756" lon="-0.50027">
        <ele>24.17</ele>
        <time>2014-09-22T13:58:44Z</time>
      </trkpt>
      <trkpt lat="47.55703" lon="-0.49965">
        <ele>23.21</ele>
        <time>2014-09-22T13:58:54Z</time>
      </trkpt>
      <trkpt lat="47.55644" lon="-0.49893">
        <ele>22.25</ele>
        <time>2014-09-22T13:59:04Z</time>
      </trkpt>
      <trkpt lat="47.55585" lon="-0.4982">
        <ele>22.25</ele>
        <time>2014-09-22T13:59:14Z</time>
      </trkpt>
      <trkpt lat="47.55556" lon="-0.49784">
        <ele>22.25</ele>
        <time>2014-09-22T13:59:19Z</time>
      </trkpt>
      <trkpt lat="47.55527" lon="-0.49777">
        <ele>21.77</ele>
        <time>2014-09-22T13:59:23Z</time>
      </trkpt>
      <trkpt lat="47.55495" lon="-0.49797">
        <ele>19.84</ele>
        <time>2014-09-22T13:59:27Z</time>
      </trkpt>
      <trkpt lat="47.5547" lon="-0.4981">
        <ele>18.4</ele>
        <time>2014-09-22T13:59:30Z</time>
      </trkpt>
      <trkpt lat="47.55426" lon="-0.49837">
        <ele>18.88</ele>
        <time>2014-09-22T13:59:36Z</time>
      </trkpt>
      <trkpt lat="47.55379" lon="-0.49862">
        <ele>17.92</ele>
        <time>2014-09-22T13:59:43Z</time>
      </trkpt>
      <trkpt lat="47.55359" lon="-0.49872">
        <ele>18.4</ele>
        <time>2014-09-22T13:59:46Z</time>
      </trkpt>
      <trkpt lat="47.55335" lon="-0.49887">
        <ele>17.92</ele>
        <time>2014-09-22T13:59:50Z</time>
      </trkpt>
      <trkpt lat="47.55313" lon="-0.49882">
        <ele>17.92</ele>
        <time>2014-09-22T13:59:54Z</time>
      </trkpt>
      <trkpt lat="47.55308" lon="-0.49875">
        <ele>17.92</ele>
        <time>2014-09-22T13:59:55Z</time>
      </trkpt>
      <trkpt lat="47.55281" lon="-0.49821">
        <ele>18.4</ele>
        <time>2014-09-22T14:00:02Z</time>
      </trkpt>
      <trkpt lat="47.55263" lon="-0.49791">
        <ele>18.4</ele>
        <time>2014-09-22T14:00:06Z</time>
      </trkpt>
      <trkpt lat="47.55223" lon="-0.49732">
        <ele>18.88</ele>
        <time>2014-09-22T14:00:14Z</time>
      </trkpt>
      <trkpt lat="47.55189" lon="-0.49681">
        <ele>18.4</ele>
        <time>2014-09-22T14:00:21Z</time>
      </trkpt>
      <trkpt lat="47.55156" lon="-0.49632">
        <ele>18.4</ele>
        <time>2014-09-22T14:00:28Z</time>
      </trkpt>
      <trkpt lat="47.55122" lon="-0.49585">
        <ele>18.88</ele>
        <time>2014-09-22T14:00:35Z</time>
      </trkpt>
      <trkpt lat="47.55085" lon="-0.4953">
        <ele>17.92</ele>
        <time>2014-09-22T14:00:43Z</time>
      </trkpt>
      <trkpt lat="47.55046" lon="-0.49477">
        <ele>18.4</ele>
        <time>2014-09-22T14:00:51Z</time>
      </trkpt>
      <trkpt lat="47.55004" lon="-0.49426">
        <ele>18.4</ele>
        <time>2014-09-22T14:00:59Z</time>
      </trkpt>
      <trkpt lat="47.54969" lon="-0.49393">
        <ele>18.4</ele>
        <time>2014-09-22T14:01:05Z</time>
      </trkpt>
      <trkpt lat="47.54939" lon="-0.49372">
        <ele>18.88</ele>
        <time>2014-09-22T14:01:10Z</time>
      </trkpt>
      <trkpt lat="47.54881" lon="-0.49352">
        <ele>17.92</ele>
        <time>2014-09-22T14:01:19Z</time>
      </trkpt>
      <trkpt lat="47.54836" lon="-0.49339">
        <ele>18.88</ele>
        <time>2014-09-22T14:01:26Z</time>
      </trkpt>
      <trkpt lat="47.54778" lon="-0.49322">
        <ele>18.4</ele>
        <time>2014-09-22T14:01:35Z</time>
      </trkpt>
      <trkpt lat="47.54724" lon="-0.49303">
        <ele>18.4</ele>
        <time>2014-09-22T14:01:43Z</time>
      </trkpt>
      <trkpt lat="47.54691" lon="-0.49293">
        <ele>17.92</ele>
        <time>2014-09-22T14:01:48Z</time>
      </trkpt>
      <trkpt lat="47.54627" lon="-0.49273">
        <ele>17.92</ele>
        <time>2014-09-22T14:01:58Z</time>
      </trkpt>
      <trkpt lat="47.54584" lon="-0.49255">
        <ele>18.4</ele>
        <time>2014-09-22T14:02:05Z</time>
      </trkpt>
      <trkpt lat="47.54565" lon="-0.49223">
        <ele>18.88</ele>
        <time>2014-09-22T14:02:10Z</time>
      </trkpt>
      <trkpt lat="47.54548" lon="-0.49132">
        <ele>17.92</ele>
        <time>2014-09-22T14:02:20Z</time>
      </trkpt>
      <trkpt lat="47.54527" lon="-0.49061">
        <ele>17.92</ele>
        <time>2014-09-22T14:02:28Z</time>
      </trkpt>
      <trkpt lat="47.54503" lon="-0.48995">
        <ele>17.92</ele>
        <time>2014-09-22T14:02:36Z</time>
      </trkpt>
      <trkpt lat="47.54491" lon="-0.48961">
        <ele>18.4</ele>
        <time>2014-09-22T14:02:41Z</time>
      </trkpt>
      <trkpt lat="47.54482" lon="-0.48962">
        <ele>18.4</ele>
        <time>2014-09-22T14:02:43Z</time>
      </trkpt>
      <trkpt lat="47.54458" lon="-0.48973">
        <ele>18.88</ele>
        <time>2014-09-22T14:02:48Z</time>
      </trkpt>
      <trkpt lat="47.54441" lon="-0.4898">
        <ele>19.36</ele>
        <time>2014-09-22T14:02:51Z</time>
      </trkpt>
      <trkpt lat="47.54392" lon="-0.49004">
        <ele>18.4</ele>
        <time>2014-09-22T14:03:00Z</time>
      </trkpt>
      <trkpt lat="47.54382" lon="-0.4901">
        <ele>18.88</ele>
        <time>2014-09-22T14:03:02Z</time>
      </trkpt>
      <trkpt lat="47.54346" lon="-0.49028">
        <ele>19.36</ele>
        <time>2014-09-22T14:03:09Z</time>
      </trkpt>
      <trkpt lat="47.54306" lon="-0.49054">
        <ele>19.84</ele>
        <time>2014-09-22T14:03:16Z</time>
      </trkpt>
      <trkpt lat="47.5427" lon="-0.49077">
        <ele>19.36</ele>
        <time>2014-09-22T14:03:22Z</time>
      </trkpt>
      <trkpt lat="47.54253" lon="-0.49085">
        <ele>19.36</ele>
        <time>2014-09-22T14:03:25Z</time>
      </trkpt>
      <trkpt lat="47.54225" lon="-0.49101">
        <ele>19.36</ele>
        <time>2014-09-22T14:03:30Z</time>
      </trkpt>
      <trkpt lat="47.54197" lon="-0.49115">
        <ele>19.84</ele>
        <time>2014-09-22T14:03:35Z</time>
      </trkpt>
      <trkpt lat="47.54151" lon="-0.4915">
        <ele>19.84</ele>
        <time>2014-09-22T14:03:44Z</time>
      </trkpt>
      <trkpt lat="47.54145" lon="-0.49154">
        <ele>19.84</ele>
        <time>2014-09-22T14:03:45Z</time>
      </trkpt>
      <trkpt lat="47.54129" lon="-0.49162">
        <ele>19.84</ele>
        <time>2014-09-22T14:03:48Z</time>
      </trkpt>
      <trkpt lat="47.54095" lon="-0.49189">
        <ele>20.32</ele>
        <time>2014-09-22T14:03:55Z</time>
      </trkpt>
      <trkpt lat="47.54072" lon="-0.49211">
        <ele>21.29</ele>
        <time>2014-09-22T14:04:00Z</time>
      </trkpt>
      <trkpt lat="47.54055" lon="-0.49219">
        <ele>20.32</ele>
        <time>2014-09-22T14:04:03Z</time>
      </trkpt>
      <trkpt lat="47.5404" lon="-0.49231">
        <ele>20.32</ele>
        <time>2014-09-22T14:04:06Z</time>
      </trkpt>
      <trkpt lat="47.53993" lon="-0.49264">
        <ele>20.32</ele>
        <time>2014-09-22T14:04:15Z</time>
      </trkpt>
      <trkpt lat="47.53974" lon="-0.49282">
        <ele>20.32</ele>
        <time>2014-09-22T14:04:19Z</time>
      </trkpt>
      <trkpt lat="47.5394" lon="-0.49315">
        <ele>20.32</ele>
        <time>2014-09-22T14:04:26Z</time>
      </trkpt>
      <trkpt lat="47.53928" lon="-0.49331">
        <ele>20.32</ele>
        <time>2014-09-22T14:04:29Z</time>
      </trkpt>
      <trkpt lat="47.53921" lon="-0.49345">
        <ele>20.81</ele>
        <time>2014-09-22T14:04:31Z</time>
      </trkpt>
      <trkpt lat="47.5389" lon="-0.49392">
        <ele>20.32</ele>
        <time>2014-09-22T14:04:39Z</time>
      </trkpt>
      <trkpt lat="47.53885" lon="-0.49397">
        <ele>19.84</ele>
        <time>2014-09-22T14:04:40Z</time>
      </trkpt>
      <trkpt lat="47.53852" lon="-0.49439">
        <ele>19.84</ele>
        <time>2014-09-22T14:04:47Z</time>
      </trkpt>
      <trkpt lat="47.53832" lon="-0.49461">
        <ele>20.32</ele>
        <time>2014-09-22T14:04:51Z</time>
      </trkpt>
      <trkpt lat="47.53801" lon="-0.49503">
        <ele>20.81</ele>
        <time>2014-09-22T14:04:58Z</time>
      </trkpt>
      <trkpt lat="47.53778" lon="-0.49537">
        <ele>20.81</ele>
        <time>2014-09-22T14:05:04Z</time>
      </trkpt>
      <trkpt lat="47.5377" lon="-0.4955">
        <ele>20.81</ele>
        <time>2014-09-22T14:05:06Z</time>
      </trkpt>
      <trkpt lat="47.53744" lon="-0.49604">
        <ele>21.29</ele>
        <time>2014-09-22T14:05:14Z</time>
      </trkpt>
      <trkpt lat="47.53732" lon="-0.49632">
        <ele>21.77</ele>
        <time>2014-09-22T14:05:18Z</time>
      </trkpt>
      <trkpt lat="47.53717" lon="-0.49667">
        <ele>21.29</ele>
        <time>2014-09-22T14:05:23Z</time>
      </trkpt>
      <trkpt lat="47.53709" lon="-0.49691">
        <ele>21.77</ele>
        <time>2014-09-22T14:05:26Z</time>
      </trkpt>
      <trkpt lat="47.53687" lon="-0.49761">
        <ele>22.73</ele>
        <time>2014-09-22T14:05:35Z</time>
      </trkpt>
      <trkpt lat="47.53665" lon="-0.49836">
        <ele>22.25</ele>
        <time>2014-09-22T14:05:44Z</time>
      </trkpt>
      <trkpt lat="47.53649" lon="-0.49874">
        <ele>22.25</ele>
        <time>2014-09-22T14:05:49Z</time>
      </trkpt>
      <trkpt lat="47.53642" lon="-0.49908">
        <ele>22.73</ele>
        <time>2014-09-22T14:05:53Z</time>
      </trkpt>
      <trkpt lat="47.53631" lon="-0.49945">
        <ele>22.25</ele>
        <time>2014-09-22T14:05:58Z</time>
      </trkpt>
      <trkpt lat="47.53614" lon="-0.5002">
        <ele>22.25</ele>
        <time>2014-09-22T14:06:07Z</time>
      </trkpt>
      <trkpt lat="47.53613" lon="-0.50028">
        <ele>22.25</ele>
        <time>2014-09-22T14:06:08Z</time>
      </trkpt>
      <trkpt lat="47.53605" lon="-0.50076">
        <ele>22.25</ele>
        <time>2014-09-22T14:06:14Z</time>
      </trkpt>
      <trkpt lat="47.536" lon="-0.50118">
        <ele>22.73</ele>
        <time>2014-09-22T14:06:19Z</time>
      </trkpt>
      <trkpt lat="47.536" lon="-0.50163">
        <ele>23.69</ele>
        <time>2014-09-22T14:06:25Z</time>
      </trkpt>
      <trkpt lat="47.53595" lon="-0.50186">
        <ele>25.13</ele>
        <time>2014-09-22T14:06:30Z</time>
      </trkpt>
      <trkpt lat="47.53594" lon="-0.50205">
        <ele>26.57</ele>
        <time>2014-09-22T14:06:37Z</time>
      </trkpt>
      <trkpt lat="47.53593" lon="-0.50208">
        <ele>27.05</ele>
        <time>2014-09-22T14:06:39Z</time>
      </trkpt>
      <trkpt lat="47.53594" lon="-0.50227">
        <ele>26.57</ele>
        <time>2014-09-22T14:06:44Z</time>
      </trkpt>
      <trkpt lat="47.53598" lon="-0.50273">
        <ele>27.05</ele>
        <time>2014-09-22T14:06:51Z</time>
      </trkpt>
      <trkpt lat="47.536" lon="-0.503">
        <ele>27.05</ele>
        <time>2014-09-22T14:06:55Z</time>
      </trkpt>
      <trkpt lat="47.53603" lon="-0.50335">
        <ele>26.57</ele>
        <time>2014-09-22T14:07:01Z</time>
      </trkpt>
      <trkpt lat="47.53606" lon="-0.50357">
        <ele>27.05</ele>
        <time>2014-09-22T14:07:04Z</time>
      </trkpt>
      <trkpt lat="47.5361" lon="-0.50387">
        <ele>26.57</ele>
        <time>2014-09-22T14:07:08Z</time>
      </trkpt>
      <trkpt lat="47.53619" lon="-0.50459">
        <ele>27.05</ele>
        <time>2014-09-22T14:07:17Z</time>
      </trkpt>
      <trkpt lat="47.53621" lon="-0.50479">
        <ele>26.57</ele>
        <time>2014-09-22T14:07:20Z</time>
      </trkpt>
      <trkpt lat="47.53619" lon="-0.50507">
        <ele>27.05</ele>
        <time>2014-09-22T14:07:23Z</time>
      </trkpt>
      <trkpt lat="47.53619" lon="-0.5053">
        <ele>26.57</ele>
        <time>2014-09-22T14:07:26Z</time>
      </trkpt>
      <trkpt lat="47.53616" lon="-0.50576">
        <ele>27.05</ele>
        <time>2014-09-22T14:07:32Z</time>
      </trkpt>
      <trkpt lat="47.53614" lon="-0.50607">
        <ele>27.05</ele>
        <time>2014-09-22T14:07:36Z</time>
      </trkpt>
      <trkpt lat="47.53604" lon="-0.50652">
        <ele>26.57</ele>
        <time>2014-09-22T14:07:42Z</time>
      </trkpt>
      <trkpt lat="47.53594" lon="-0.507">
        <ele>27.05</ele>
        <time>2014-09-22T14:07:49Z</time>
      </trkpt>
      <trkpt lat="47.53593" lon="-0.50707">
        <ele>27.05</ele>
        <time>2014-09-22T14:07:50Z</time>
      </trkpt>
      <trkpt lat="47.53589" lon="-0.50728">
        <ele>27.53</ele>
        <time>2014-09-22T14:07:53Z</time>
      </trkpt>
      <trkpt lat="47.53586" lon="-0.50755">
        <ele>28.02</ele>
        <time>2014-09-22T14:07:57Z</time>
      </trkpt>
      <trkpt lat="47.53589" lon="-0.50794">
        <ele>28.02</ele>
        <time>2014-09-22T14:08:03Z</time>
      </trkpt>
      <trkpt lat="47.53592" lon="-0.50819">
        <ele>28.98</ele>
        <time>2014-09-22T14:08:07Z</time>
      </trkpt>
      <trkpt lat="47.53597" lon="-0.5088">
        <ele>28.98</ele>
        <time>2014-09-22T14:08:16Z</time>
      </trkpt>
      <trkpt lat="47.53605" lon="-0.50899">
        <ele>28.98</ele>
        <time>2014-09-22T14:08:20Z</time>
      </trkpt>
      <trkpt lat="47.53623" lon="-0.50899">
        <ele>28.5</ele>
        <time>2014-09-22T14:08:24Z</time>
      </trkpt>
      <trkpt lat="47.53652" lon="-0.50893">
        <ele>27.53</ele>
        <time>2014-09-22T14:08:29Z</time>
      </trkpt>
      <trkpt lat="47.53662" lon="-0.50889">
        <ele>27.53</ele>
        <time>2014-09-22T14:08:31Z</time>
      </trkpt>
      <trkpt lat="47.53697" lon="-0.50879">
        <ele>26.09</ele>
        <time>2014-09-22T14:08:38Z</time>
      </trkpt>
      <trkpt lat="47.53721" lon="-0.50874">
        <ele>24.65</ele>
        <time>2014-09-22T14:08:42Z</time>
      </trkpt>
      <trkpt lat="47.53727" lon="-0.50873">
        <ele>24.17</ele>
        <time>2014-09-22T14:08:43Z</time>
      </trkpt>
      <trkpt lat="47.53744" lon="-0.50876">
        <ele>22.73</ele>
        <time>2014-09-22T14:08:47Z</time>
      </trkpt>
      <trkpt lat="47.53745" lon="-0.50879">
        <ele>23.21</ele>
        <time>2014-09-22T14:08:48Z</time>
      </trkpt>
      <trkpt lat="47.53746" lon="-0.50905">
        <ele>24.65</ele>
        <time>2014-09-22T14:08:54Z</time>
      </trkpt>
      <trkpt lat="47.53738" lon="-0.50929">
        <ele>27.53</ele>
        <time>2014-09-22T14:09:01Z</time>
      </trkpt>
      <trkpt lat="47.53737" lon="-0.50946">
        <ele>28.02</ele>
        <time>2014-09-22T14:09:05Z</time>
      </trkpt>
      <trkpt lat="47.53744" lon="-0.50968">
        <ele>28.5</ele>
        <time>2014-09-22T14:09:11Z</time>
      </trkpt>
      <trkpt lat="47.53751" lon="-0.50999">
        <ele>28.98</ele>
        <time>2014-09-22T14:09:18Z</time>
      </trkpt>
      <trkpt lat="47.53762" lon="-0.51026">
        <ele>28.98</ele>
        <time>2014-09-22T14:09:24Z</time>
      </trkpt>
      <trkpt lat="47.53768" lon="-0.51057">
        <ele>28.5</ele>
        <time>2014-09-22T14:09:29Z</time>
      </trkpt>
      <trkpt lat="47.5377" lon="-0.51074">
        <ele>29.46</ele>
        <time>2014-09-22T14:09:32Z</time>
      </trkpt>
      <trkpt lat="47.53772" lon="-0.51097">
        <ele>28.98</ele>
        <time>2014-09-22T14:09:38Z</time>
      </trkpt>
      <trkpt lat="47.53769" lon="-0.51102">
        <ele>28.02</ele>
        <time>2014-09-22T14:09:39Z</time>
      </trkpt>
      <trkpt lat="47.53741" lon="-0.51132">
        <ele>27.05</ele>
        <time>2014-09-22T14:09:45Z</time>
      </trkpt>
      <trkpt lat="47.53726" lon="-0.51143">
        <ele>26.57</ele>
        <time>2014-09-22T14:09:48Z</time>
      </trkpt>
      <trkpt lat="47.53705" lon="-0.51168">
        <ele>29.46</ele>
        <time>2014-09-22T14:09:54Z</time>
      </trkpt>
      <trkpt lat="47.53703" lon="-0.51169">
        <ele>29.46</ele>
        <time>2014-09-22T14:09:55Z</time>
      </trkpt>
      <trkpt lat="47.53681" lon="-0.51171">
        <ele>29.46</ele>
        <time>2014-09-22T14:10:01Z</time>
      </trkpt>
      <trkpt lat="47.53665" lon="-0.51165">
        <ele>30.9</ele>
        <time>2014-09-22T14:10:06Z</time>
      </trkpt>
      <trkpt lat="47.53662" lon="-0.51165">
        <ele>31.38</ele>
        <time>2014-09-22T14:10:07Z</time>
      </trkpt>
      <trkpt lat="47.53652" lon="-0.51175">
        <ele>29.94</ele>
        <time>2014-09-22T14:10:10Z</time>
      </trkpt>
      <trkpt lat="47.53644" lon="-0.51201">
        <ele>29.94</ele>
        <time>2014-09-22T14:10:14Z</time>
      </trkpt>
      <trkpt lat="47.53644" lon="-0.51218">
        <ele>29.46</ele>
        <time>2014-09-22T14:10:16Z</time>
      </trkpt>
      <trkpt lat="47.53653" lon="-0.51245">
        <ele>29.46</ele>
        <time>2014-09-22T14:10:20Z</time>
      </trkpt>
      <trkpt lat="47.53669" lon="-0.51315">
        <ele>28.98</ele>
        <time>2014-09-22T14:10:28Z</time>
      </trkpt>
      <trkpt lat="47.53679" lon="-0.51363">
        <ele>28.5</ele>
        <time>2014-09-22T14:10:34Z</time>
      </trkpt>
      <trkpt lat="47.53685" lon="-0.51395">
        <ele>28.5</ele>
        <time>2014-09-22T14:10:38Z</time>
      </trkpt>
      <trkpt lat="47.53686" lon="-0.51446">
        <ele>28.98</ele>
        <time>2014-09-22T14:10:44Z</time>
      </trkpt>
      <trkpt lat="47.53688" lon="-0.51454">
        <ele>28.98</ele>
        <time>2014-09-22T14:10:45Z</time>
      </trkpt>
      <trkpt lat="47.5369" lon="-0.5147">
        <ele>28.5</ele>
        <time>2014-09-22T14:10:47Z</time>
      </trkpt>
      <trkpt lat="47.53694" lon="-0.51511">
        <ele>28.02</ele>
        <time>2014-09-22T14:10:52Z</time>
      </trkpt>
      <trkpt lat="47.53689" lon="-0.5154">
        <ele>28.5</ele>
        <time>2014-09-22T14:10:57Z</time>
      </trkpt>
      <trkpt lat="47.53682" lon="-0.51568">
        <ele>28.5</ele>
        <time>2014-09-22T14:11:01Z</time>
      </trkpt>
      <trkpt lat="47.53673" lon="-0.51615">
        <ele>28.98</ele>
        <time>2014-09-22T14:11:07Z</time>
      </trkpt>
      <trkpt lat="47.5365" lon="-0.51664">
        <ele>28.5</ele>
        <time>2014-09-22T14:11:14Z</time>
      </trkpt>
      <trkpt lat="47.53636" lon="-0.5168">
        <ele>29.46</ele>
        <time>2014-09-22T14:11:17Z</time>
      </trkpt>
      <trkpt lat="47.53615" lon="-0.51709">
        <ele>28.98</ele>
        <time>2014-09-22T14:11:22Z</time>
      </trkpt>
      <trkpt lat="47.53593" lon="-0.51733">
        <ele>28.98</ele>
        <time>2014-09-22T14:11:27Z</time>
      </trkpt>
      <trkpt lat="47.53573" lon="-0.51757">
        <ele>28.5</ele>
        <time>2014-09-22T14:11:34Z</time>
      </trkpt>
      <trkpt lat="47.5357" lon="-0.51765">
        <ele>28.02</ele>
        <time>2014-09-22T14:11:40Z</time>
      </trkpt>
      <trkpt lat="47.53571" lon="-0.51768">
        <ele>28.5</ele>
        <time>2014-09-22T14:11:41Z</time>
      </trkpt>
      <trkpt lat="47.5359" lon="-0.51797">
        <ele>27.53</ele>
        <time>2014-09-22T14:11:48Z</time>
      </trkpt>
      <trkpt lat="47.53623" lon="-0.51848">
        <ele>27.05</ele>
        <time>2014-09-22T14:11:56Z</time>
      </trkpt>
      <trkpt lat="47.53638" lon="-0.5187">
        <ele>26.57</ele>
        <time>2014-09-22T14:12:00Z</time>
      </trkpt>
      <trkpt lat="47.53649" lon="-0.51884">
        <ele>25.61</ele>
        <time>2014-09-22T14:12:05Z</time>
      </trkpt>
      <trkpt lat="47.53657" lon="-0.51875">
        <ele>26.09</ele>
        <time>2014-09-22T14:12:08Z</time>
      </trkpt>
      <trkpt lat="47.5366" lon="-0.51865">
        <ele>26.09</ele>
        <time>2014-09-22T14:12:10Z</time>
      </trkpt>
      <trkpt lat="47.53667" lon="-0.51847">
        <ele>26.57</ele>
        <time>2014-09-22T14:12:13Z</time>
      </trkpt>
      <trkpt lat="47.53684" lon="-0.51785">
        <ele>26.57</ele>
        <time>2014-09-22T14:12:21Z</time>
      </trkpt>
      <trkpt lat="47.53711" lon="-0.51725">
        <ele>26.57</ele>
        <time>2014-09-22T14:12:29Z</time>
      </trkpt>
      <trkpt lat="47.53761" lon="-0.51662">
        <ele>27.05</ele>
        <time>2014-09-22T14:12:39Z</time>
      </trkpt>
      <trkpt lat="47.53807" lon="-0.51616">
        <ele>26.57</ele>
        <time>2014-09-22T14:12:47Z</time>
      </trkpt>
      <trkpt lat="47.53844" lon="-0.51584">
        <ele>26.09</ele>
        <time>2014-09-22T14:12:54Z</time>
      </trkpt>
      <trkpt lat="47.5386" lon="-0.51595">
        <ele>25.61</ele>
        <time>2014-09-22T14:12:58Z</time>
      </trkpt>
      <trkpt lat="47.53861" lon="-0.51602">
        <ele>25.61</ele>
        <time>2014-09-22T14:12:59Z</time>
      </trkpt>
      <trkpt lat="47.53873" lon="-0.5167">
        <ele>25.13</ele>
        <time>2014-09-22T14:13:07Z</time>
      </trkpt>
      <trkpt lat="47.53892" lon="-0.51739">
        <ele>26.09</ele>
        <time>2014-09-22T14:13:15Z</time>
      </trkpt>
      <trkpt lat="47.53914" lon="-0.51812">
        <ele>26.57</ele>
        <time>2014-09-22T14:13:24Z</time>
      </trkpt>
      <trkpt lat="47.5393" lon="-0.51866">
        <ele>27.53</ele>
        <time>2014-09-22T14:13:31Z</time>
      </trkpt>
      <trkpt lat="47.53938" lon="-0.51889">
        <ele>26.57</ele>
        <time>2014-09-22T14:13:34Z</time>
      </trkpt>
      <trkpt lat="47.5394" lon="-0.51934">
        <ele>25.61</ele>
        <time>2014-09-22T14:13:39Z</time>
      </trkpt>
      <trkpt lat="47.53936" lon="-0.51991">
        <ele>25.13</ele>
        <time>2014-09-22T14:13:45Z</time>
      </trkpt>
      <trkpt lat="47.53928" lon="-0.52016">
        <ele>25.61</ele>
        <time>2014-09-22T14:13:48Z</time>
      </trkpt>
      <trkpt lat="47.53922" lon="-0.52031">
        <ele>26.09</ele>
        <time>2014-09-22T14:13:50Z</time>
      </trkpt>
      <trkpt lat="47.53919" lon="-0.52066">
        <ele>26.57</ele>
        <time>2014-09-22T14:13:54Z</time>
      </trkpt>
      <trkpt lat="47.53931" lon="-0.52136">
        <ele>25.61</ele>
        <time>2014-09-22T14:14:02Z</time>
      </trkpt>
      <trkpt lat="47.53935" lon="-0.5218">
        <ele>25.13</ele>
        <time>2014-09-22T14:14:07Z</time>
      </trkpt>
      <trkpt lat="47.5393" lon="-0.5227">
        <ele>25.61</ele>
        <time>2014-09-22T14:14:16Z</time>
      </trkpt>
      <trkpt lat="47.53931" lon="-0.52281">
        <ele>25.13</ele>
        <time>2014-09-22T14:14:17Z</time>
      </trkpt>
      <trkpt lat="47.53933" lon="-0.52302">
        <ele>24.17</ele>
        <time>2014-09-22T14:14:19Z</time>
      </trkpt>
      <trkpt lat="47.53948" lon="-0.52325">
        <ele>23.69</ele>
        <time>2014-09-22T14:14:22Z</time>
      </trkpt>
      <trkpt lat="47.54011" lon="-0.52389">
        <ele>22.73</ele>
        <time>2014-09-22T14:14:32Z</time>
      </trkpt>
      <trkpt lat="47.54051" lon="-0.52439">
        <ele>21.77</ele>
        <time>2014-09-22T14:14:40Z</time>
      </trkpt>
      <trkpt lat="47.54084" lon="-0.52479">
        <ele>23.21</ele>
        <time>2014-09-22T14:14:47Z</time>
      </trkpt>
      <trkpt lat="47.54103" lon="-0.525">
        <ele>22.25</ele>
        <time>2014-09-22T14:14:51Z</time>
      </trkpt>
      <trkpt lat="47.54138" lon="-0.52542">
        <ele>21.29</ele>
        <time>2014-09-22T14:14:58Z</time>
      </trkpt>
      <trkpt lat="47.54153" lon="-0.52575">
        <ele>21.77</ele>
        <time>2014-09-22T14:15:02Z</time>
      </trkpt>
      <trkpt lat="47.54167" lon="-0.52622">
        <ele>21.77</ele>
        <time>2014-09-22T14:15:07Z</time>
      </trkpt>
      <trkpt lat="47.5417" lon="-0.52641">
        <ele>22.25</ele>
        <time>2014-09-22T14:15:09Z</time>
      </trkpt>
      <trkpt lat="47.54199" lon="-0.52745">
        <ele>21.29</ele>
        <time>2014-09-22T14:15:20Z</time>
      </trkpt>
      <trkpt lat="47.54219" lon="-0.5281">
        <ele>21.29</ele>
        <time>2014-09-22T14:15:27Z</time>
      </trkpt>
      <trkpt lat="47.54241" lon="-0.52883">
        <ele>21.29</ele>
        <time>2014-09-22T14:15:35Z</time>
      </trkpt>
      <trkpt lat="47.54266" lon="-0.52966">
        <ele>20.81</ele>
        <time>2014-09-22T14:15:44Z</time>
      </trkpt>
      <trkpt lat="47.54269" lon="-0.52979">
        <ele>20.81</ele>
        <time>2014-09-22T14:15:47Z</time>
      </trkpt>
      <trkpt lat="47.54269" lon="-0.52967">
        <ele>20.81</ele>
        <time>2014-09-22T14:15:53Z</time>
      </trkpt>
      <trkpt lat="47.54285" lon="-0.52968">
        <ele>20.81</ele>
        <time>2014-09-22T14:15:58Z</time>
      </trkpt>
      <trkpt lat="47.54332" lon="-0.52977">
        <ele>20.81</ele>
        <time>2014-09-22T14:16:07Z</time>
      </trkpt>
      <trkpt lat="47.5437" lon="-0.52984">
        <ele>20.32</ele>
        <time>2014-09-22T14:16:14Z</time>
      </trkpt>
      <trkpt lat="47.54427" lon="-0.52996">
        <ele>20.81</ele>
        <time>2014-09-22T14:16:24Z</time>
      </trkpt>
      <trkpt lat="47.54439" lon="-0.52998">
        <ele>21.77</ele>
        <time>2014-09-22T14:16:26Z</time>
      </trkpt>
      <trkpt lat="47.54492" lon="-0.53005">
        <ele>21.77</ele>
        <time>2014-09-22T14:16:35Z</time>
      </trkpt>
      <trkpt lat="47.54547" lon="-0.53">
        <ele>20.81</ele>
        <time>2014-09-22T14:16:44Z</time>
      </trkpt>
      <trkpt lat="47.54553" lon="-0.52999">
        <ele>20.32</ele>
        <time>2014-09-22T14:16:45Z</time>
      </trkpt>
      <trkpt lat="47.54564" lon="-0.53002">
        <ele>19.84</ele>
        <time>2014-09-22T14:16:47Z</time>
      </trkpt>
      <trkpt lat="47.54596" lon="-0.53023">
        <ele>19.36</ele>
        <time>2014-09-22T14:16:53Z</time>
      </trkpt>
      <trkpt lat="47.54643" lon="-0.53054">
        <ele>19.36</ele>
        <time>2014-09-22T14:17:01Z</time>
      </trkpt>
      <trkpt lat="47.54711" lon="-0.53099">
        <ele>19.36</ele>
        <time>2014-09-22T14:17:12Z</time>
      </trkpt>
      <trkpt lat="47.54763" lon="-0.53133">
        <ele>19.36</ele>
        <time>2014-09-22T14:17:21Z</time>
      </trkpt>
      <trkpt lat="47.54809" lon="-0.53163">
        <ele>18.88</ele>
        <time>2014-09-22T14:17:29Z</time>
      </trkpt>
      <trkpt lat="47.54861" lon="-0.53201">
        <ele>18.88</ele>
        <time>2014-09-22T14:17:38Z</time>
      </trkpt>
      <trkpt lat="47.54863" lon="-0.53204">
        <ele>18.88</ele>
        <time>2014-09-22T14:17:39Z</time>
      </trkpt>
      <trkpt lat="47.54866" lon="-0.53216">
        <ele>17.92</ele>
        <time>2014-09-22T14:17:45Z</time>
      </trkpt>
      <trkpt lat="47.54863" lon="-0.53225">
        <ele>18.4</ele>
        <time>2014-09-22T14:17:49Z</time>
      </trkpt>
      <trkpt lat="47.54869" lon="-0.53241">
        <ele>17.92</ele>
        <time>2014-09-22T14:17:53Z</time>
      </trkpt>
      <trkpt lat="47.54897" lon="-0.53278">
        <ele>18.4</ele>
        <time>2014-09-22T14:18:01Z</time>
      </trkpt>
      <trkpt lat="47.54937" lon="-0.53331">
        <ele>18.88</ele>
        <time>2014-09-22T14:18:11Z</time>
      </trkpt>
      <trkpt lat="47.54973" lon="-0.53378">
        <ele>18.88</ele>
        <time>2014-09-22T14:18:20Z</time>
      </trkpt>
      <trkpt lat="47.55011" lon="-0.53428">
        <ele>18.4</ele>
        <time>2014-09-22T14:18:30Z</time>
      </trkpt>
      <trkpt lat="47.55041" lon="-0.53467">
        <ele>18.88</ele>
        <time>2014-09-22T14:18:38Z</time>
      </trkpt>
      <trkpt lat="47.55044" lon="-0.53472">
        <ele>18.88</ele>
        <time>2014-09-22T14:18:39Z</time>
      </trkpt>
      <trkpt lat="47.55043" lon="-0.53494">
        <ele>18.4</ele>
        <time>2014-09-22T14:18:43Z</time>
      </trkpt>
      <trkpt lat="47.55032" lon="-0.53508">
        <ele>18.4</ele>
        <time>2014-09-22T14:18:46Z</time>
      </trkpt>
      <trkpt lat="47.55022" lon="-0.53526">
        <ele>18.4</ele>
        <time>2014-09-22T14:18:49Z</time>
      </trkpt>
      <trkpt lat="47.55008" lon="-0.53563">
        <ele>18.4</ele>
        <time>2014-09-22T14:18:56Z</time>
      </trkpt>
      <trkpt lat="47.55007" lon="-0.53564">
        <ele>18.88</ele>
        <time>2014-09-22T14:18:57Z</time>
      </trkpt>
      <trkpt lat="47.54999" lon="-0.53575">
        <ele>18.88</ele>
        <time>2014-09-22T14:19:02Z</time>
      </trkpt>
      <trkpt lat="47.54997" lon="-0.53588">
        <ele>19.36</ele>
        <time>2014-09-22T14:19:04Z</time>
      </trkpt>
      <trkpt lat="47.54991" lon="-0.53624">
        <ele>19.36</ele>
        <time>2014-09-22T14:19:09Z</time>
      </trkpt>
      <trkpt lat="47.54989" lon="-0.53694">
        <ele>18.88</ele>
        <time>2014-09-22T14:19:18Z</time>
      </trkpt>
      <trkpt lat="47.54988" lon="-0.53709">
        <ele>18.88</ele>
        <time>2014-09-22T14:19:20Z</time>
      </trkpt>
      <trkpt lat="47.54996" lon="-0.5375">
        <ele>19.36</ele>
        <time>2014-09-22T14:19:27Z</time>
      </trkpt>
      <trkpt lat="47.54995" lon="-0.53755">
        <ele>19.84</ele>
        <time>2014-09-22T14:19:29Z</time>
      </trkpt>
      <trkpt lat="47.54991" lon="-0.53761">
        <ele>20.32</ele>
        <time>2014-09-22T14:19:36Z</time>
      </trkpt>
      <trkpt lat="47.54987" lon="-0.53777">
        <ele>20.32</ele>
        <time>2014-09-22T14:19:42Z</time>
      </trkpt>
      <trkpt lat="47.54973" lon="-0.53806">
        <ele>19.84</ele>
        <time>2014-09-22T14:19:50Z</time>
      </trkpt>
      <trkpt lat="47.54961" lon="-0.53833">
        <ele>20.32</ele>
        <time>2014-09-22T14:19:56Z</time>
      </trkpt>
      <trkpt lat="47.54955" lon="-0.53847">
        <ele>19.84</ele>
        <time>2014-09-22T14:20:00Z</time>
      </trkpt>
      <trkpt lat="47.54937" lon="-0.53887">
        <ele>20.32</ele>
        <time>2014-09-22T14:20:08Z</time>
      </trkpt>
      <trkpt lat="47.54923" lon="-0.5392">
        <ele>20.32</ele>
        <time>2014-09-22T14:20:14Z</time>
      </trkpt>
      <trkpt lat="47.5492" lon="-0.53925">
        <ele>20.32</ele>
        <time>2014-09-22T14:20:15Z</time>
      </trkpt>
      <trkpt lat="47.54897" lon="-0.53963">
        <ele>20.32</ele>
        <time>2014-09-22T14:20:22Z</time>
      </trkpt>
      <trkpt lat="47.54877" lon="-0.53995">
        <ele>20.32</ele>
        <time>2014-09-22T14:20:28Z</time>
      </trkpt>
      <trkpt lat="47.54859" lon="-0.54025">
        <ele>20.32</ele>
        <time>2014-09-22T14:20:34Z</time>
      </trkpt>
      <trkpt lat="47.54845" lon="-0.54049">
        <ele>20.32</ele>
        <time>2014-09-22T14:20:39Z</time>
      </trkpt>
      <trkpt lat="47.5483" lon="-0.5407">
        <ele>20.32</ele>
        <time>2014-09-22T14:20:44Z</time>
      </trkpt>
      <trkpt lat="47.54814" lon="-0.54093">
        <ele>19.84</ele>
        <time>2014-09-22T14:20:49Z</time>
      </trkpt>
      <trkpt lat="47.54791" lon="-0.54116">
        <ele>20.32</ele>
        <time>2014-09-22T14:20:55Z</time>
      </trkpt>
      <trkpt lat="47.54778" lon="-0.5413">
        <ele>20.32</ele>
        <time>2014-09-22T14:21:00Z</time>
      </trkpt>
      <trkpt lat="47.54762" lon="-0.54152">
        <ele>20.81</ele>
        <time>2014-09-22T14:21:06Z</time>
      </trkpt>
      <trkpt lat="47.54742" lon="-0.54176">
        <ele>19.84</ele>
        <time>2014-09-22T14:21:12Z</time>
      </trkpt>
      <trkpt lat="47.54724" lon="-0.54197">
        <ele>20.32</ele>
        <time>2014-09-22T14:21:18Z</time>
      </trkpt>
      <trkpt lat="47.547" lon="-0.54218">
        <ele>19.36</ele>
        <time>2014-09-22T14:21:25Z</time>
      </trkpt>
      <trkpt lat="47.54693" lon="-0.54225">
        <ele>19.84</ele>
        <time>2014-09-22T14:21:30Z</time>
      </trkpt>
      <trkpt lat="47.54686" lon="-0.5423">
        <ele>19.84</ele>
        <time>2014-09-22T14:21:34Z</time>
      </trkpt>
      <trkpt lat="47.54669" lon="-0.54247">
        <ele>19.84</ele>
        <time>2014-09-22T14:21:41Z</time>
      </trkpt>
      <trkpt lat="47.54661" lon="-0.54252">
        <ele>20.81</ele>
        <time>2014-09-22T14:21:44Z</time>
      </trkpt>
      <trkpt lat="47.54645" lon="-0.54264">
        <ele>20.81</ele>
        <time>2014-09-22T14:21:51Z</time>
      </trkpt>
      <trkpt lat="47.54639" lon="-0.54265">
        <ele>20.32</ele>
        <time>2014-09-22T14:21:57Z</time>
      </trkpt>
      <trkpt lat="47.54638" lon="-0.54264">
        <ele>19.84</ele>
        <time>2014-09-22T14:21:59Z</time>
      </trkpt>
      <trkpt lat="47.54631" lon="-0.54259">
        <ele>18.4</ele>
        <time>2014-09-22T14:22:05Z</time>
      </trkpt>
      <trkpt lat="47.54628" lon="-0.54259">
        <ele>17.92</ele>
        <time>2014-09-22T14:22:07Z</time>
      </trkpt>
      <trkpt lat="47.54623" lon="-0.54266">
        <ele>17.92</ele>
        <time>2014-09-22T14:22:10Z</time>
      </trkpt>
      <trkpt lat="47.54619" lon="-0.54268">
        <ele>17.92</ele>
        <time>2014-09-22T14:22:12Z</time>
      </trkpt>
      <trkpt lat="47.54616" lon="-0.5427">
        <ele>18.4</ele>
        <time>2014-09-22T14:22:14Z</time>
      </trkpt>
      <trkpt lat="47.54618" lon="-0.54278">
        <ele>20.81</ele>
        <time>2014-09-22T14:22:19Z</time>
      </trkpt>
      <trkpt lat="47.54611" lon="-0.5429">
        <ele>20.81</ele>
        <time>2014-09-22T14:22:26Z</time>
      </trkpt>
      <trkpt lat="47.54599" lon="-0.54301">
        <ele>20.32</ele>
        <time>2014-09-22T14:22:32Z</time>
      </trkpt>
      <trkpt lat="47.54578" lon="-0.54321">
        <ele>20.32</ele>
        <time>2014-09-22T14:22:39Z</time>
      </trkpt>
      <trkpt lat="47.54562" lon="-0.54337">
        <ele>20.81</ele>
        <time>2014-09-22T14:22:45Z</time>
      </trkpt>
      <trkpt lat="47.54554" lon="-0.54343">
        <ele>20.32</ele>
        <time>2014-09-22T14:22:48Z</time>
      </trkpt>
      <trkpt lat="47.54543" lon="-0.54358">
        <ele>20.32</ele>
        <time>2014-09-22T14:22:52Z</time>
      </trkpt>
      <trkpt lat="47.54526" lon="-0.54381">
        <ele>20.81</ele>
        <time>2014-09-22T14:22:58Z</time>
      </trkpt>
      <trkpt lat="47.5451" lon="-0.54406">
        <ele>20.32</ele>
        <time>2014-09-22T14:23:04Z</time>
      </trkpt>
      <trkpt lat="47.54495" lon="-0.54424">
        <ele>20.81</ele>
        <time>2014-09-22T14:23:09Z</time>
      </trkpt>
      <trkpt lat="47.54481" lon="-0.54443">
        <ele>20.32</ele>
        <time>2014-09-22T14:23:14Z</time>
      </trkpt>
      <trkpt lat="47.54461" lon="-0.54473">
        <ele>19.84</ele>
        <time>2014-09-22T14:23:22Z</time>
      </trkpt>
      <trkpt lat="47.54447" lon="-0.54493">
        <ele>19.84</ele>
        <time>2014-09-22T14:23:27Z</time>
      </trkpt>
      <trkpt lat="47.54433" lon="-0.54506">
        <ele>19.36</ele>
        <time>2014-09-22T14:23:32Z</time>
      </trkpt>
      <trkpt lat="47.54412" lon="-0.54521">
        <ele>20.32</ele>
        <time>2014-09-22T14:23:38Z</time>
      </trkpt>
      <trkpt lat="47.54401" lon="-0.5453">
        <ele>20.32</ele>
        <time>2014-09-22T14:23:43Z</time>
      </trkpt>
      <trkpt lat="47.54378" lon="-0.5454">
        <ele>19.84</ele>
        <time>2014-09-22T14:23:50Z</time>
      </trkpt>
      <trkpt lat="47.54365" lon="-0.54542">
        <ele>20.81</ele>
        <time>2014-09-22T14:23:55Z</time>
      </trkpt>
      <trkpt lat="47.54362" lon="-0.54542">
        <ele>20.32</ele>
        <time>2014-09-22T14:23:56Z</time>
      </trkpt>
      <trkpt lat="47.54336" lon="-0.54543">
        <ele>20.32</ele>
        <time>2014-09-22T14:24:03Z</time>
      </trkpt>
      <trkpt lat="47.54316" lon="-0.54548">
        <ele>20.81</ele>
        <time>2014-09-22T14:24:09Z</time>
      </trkpt>
      <trkpt lat="47.54294" lon="-0.54552">
        <ele>21.29</ele>
        <time>2014-09-22T14:24:14Z</time>
      </trkpt>
      <trkpt lat="47.54279" lon="-0.54552">
        <ele>20.81</ele>
        <time>2014-09-22T14:24:17Z</time>
      </trkpt>
      <trkpt lat="47.54242" lon="-0.54555">
        <ele>20.81</ele>
        <time>2014-09-22T14:24:24Z</time>
      </trkpt>
      <trkpt lat="47.54237" lon="-0.54555">
        <ele>21.29</ele>
        <time>2014-09-22T14:24:25Z</time>
      </trkpt>
      <trkpt lat="47.54224" lon="-0.54555">
        <ele>20.81</ele>
        <time>2014-09-22T14:24:27Z</time>
      </trkpt>
      <trkpt lat="47.54189" lon="-0.54554">
        <ele>20.81</ele>
        <time>2014-09-22T14:24:32Z</time>
      </trkpt>
      <trkpt lat="47.54157" lon="-0.54554">
        <ele>20.81</ele>
        <time>2014-09-22T14:24:38Z</time>
      </trkpt>
      <trkpt lat="47.54139" lon="-0.54556">
        <ele>20.81</ele>
        <time>2014-09-22T14:24:42Z</time>
      </trkpt>
      <trkpt lat="47.54123" lon="-0.54556">
        <ele>20.32</ele>
        <time>2014-09-22T14:24:46Z</time>
      </trkpt>
      <trkpt lat="47.5409" lon="-0.54558">
        <ele>20.32</ele>
        <time>2014-09-22T14:24:54Z</time>
      </trkpt>
      <trkpt lat="47.54072" lon="-0.54558">
        <ele>20.32</ele>
        <time>2014-09-22T14:24:58Z</time>
      </trkpt>
      <trkpt lat="47.54049" lon="-0.54561">
        <ele>19.84</ele>
        <time>2014-09-22T14:25:04Z</time>
      </trkpt>
      <trkpt lat="47.54026" lon="-0.54562">
        <ele>20.81</ele>
        <time>2014-09-22T14:25:10Z</time>
      </trkpt>
      <trkpt lat="47.53988" lon="-0.54563">
        <ele>20.81</ele>
        <time>2014-09-22T14:25:19Z</time>
      </trkpt>
      <trkpt lat="47.53962" lon="-0.54565">
        <ele>20.81</ele>
        <time>2014-09-22T14:25:26Z</time>
      </trkpt>
      <trkpt lat="47.53941" lon="-0.54569">
        <ele>20.81</ele>
        <time>2014-09-22T14:25:32Z</time>
      </trkpt>
      <trkpt lat="47.53919" lon="-0.5457">
        <ele>20.81</ele>
        <time>2014-09-22T14:25:38Z</time>
      </trkpt>
      <trkpt lat="47.53889" lon="-0.5457">
        <ele>21.29</ele>
        <time>2014-09-22T14:25:45Z</time>
      </trkpt>
      <trkpt lat="47.53868" lon="-0.54568">
        <ele>20.81</ele>
        <time>2014-09-22T14:25:50Z</time>
      </trkpt>
      <trkpt lat="47.5384" lon="-0.54569">
        <ele>21.29</ele>
        <time>2014-09-22T14:25:56Z</time>
      </trkpt>
      <trkpt lat="47.5381" lon="-0.54567">
        <ele>21.29</ele>
        <time>2014-09-22T14:26:02Z</time>
      </trkpt>
      <trkpt lat="47.53782" lon="-0.54556">
        <ele>20.32</ele>
        <time>2014-09-22T14:26:08Z</time>
      </trkpt>
      <trkpt lat="47.53768" lon="-0.54548">
        <ele>20.81</ele>
        <time>2014-09-22T14:26:11Z</time>
      </trkpt>
      <trkpt lat="47.53744" lon="-0.5453">
        <ele>20.81</ele>
        <time>2014-09-22T14:26:16Z</time>
      </trkpt>
      <trkpt lat="47.53716" lon="-0.54511">
        <ele>20.81</ele>
        <time>2014-09-22T14:26:22Z</time>
      </trkpt>
      <trkpt lat="47.53693" lon="-0.54492">
        <ele>21.29</ele>
        <time>2014-09-22T14:26:27Z</time>
      </trkpt>
      <trkpt lat="47.53666" lon="-0.54469">
        <ele>20.81</ele>
        <time>2014-09-22T14:26:34Z</time>
      </trkpt>
      <trkpt lat="47.5364" lon="-0.54449">
        <ele>20.81</ele>
        <time>2014-09-22T14:26:40Z</time>
      </trkpt>
      <trkpt lat="47.53622" lon="-0.54436">
        <ele>20.32</ele>
        <time>2014-09-22T14:26:45Z</time>
      </trkpt>
      <trkpt lat="47.53601" lon="-0.54418">
        <ele>20.81</ele>
        <time>2014-09-22T14:26:51Z</time>
      </trkpt>
      <trkpt lat="47.53595" lon="-0.54412">
        <ele>20.32</ele>
        <time>2014-09-22T14:26:56Z</time>
      </trkpt>
      <trkpt lat="47.53593" lon="-0.54409">
        <ele>20.32</ele>
        <time>2014-09-22T14:27:03Z</time>
      </trkpt>
      <trkpt lat="47.53587" lon="-0.54405">
        <ele>20.32</ele>
        <time>2014-09-22T14:27:10Z</time>
      </trkpt>
      <trkpt lat="47.53583" lon="-0.54401">
        <ele>19.84</ele>
        <time>2014-09-22T14:27:12Z</time>
      </trkpt>
      <trkpt lat="47.53571" lon="-0.54392">
        <ele>20.32</ele>
        <time>2014-09-22T14:27:17Z</time>
      </trkpt>
      <trkpt lat="47.53568" lon="-0.5439">
        <ele>20.32</ele>
        <time>2014-09-22T14:27:18Z</time>
      </trkpt>
      <trkpt lat="47.53544" lon="-0.54369">
        <ele>20.81</ele>
        <time>2014-09-22T14:27:26Z</time>
      </trkpt>
      <trkpt lat="47.53522" lon="-0.54349">
        <ele>20.81</ele>
        <time>2014-09-22T14:27:32Z</time>
      </trkpt>
      <trkpt lat="47.53505" lon="-0.54329">
        <ele>20.32</ele>
        <time>2014-09-22T14:27:38Z</time>
      </trkpt>
      <trkpt lat="47.53493" lon="-0.54311">
        <ele>20.81</ele>
        <time>2014-09-22T14:27:42Z</time>
      </trkpt>
      <trkpt lat="47.53475" lon="-0.54291">
        <ele>20.81</ele>
        <time>2014-09-22T14:27:47Z</time>
      </trkpt>
      <trkpt lat="47.53457" lon="-0.54271">
        <ele>20.81</ele>
        <time>2014-09-22T14:27:52Z</time>
      </trkpt>
      <trkpt lat="47.53445" lon="-0.54253">
        <ele>20.81</ele>
        <time>2014-09-22T14:27:55Z</time>
      </trkpt>
      <trkpt lat="47.53423" lon="-0.5421">
        <ele>20.81</ele>
        <time>2014-09-22T14:28:02Z</time>
      </trkpt>
      <trkpt lat="47.53413" lon="-0.54188">
        <ele>20.32</ele>
        <time>2014-09-22T14:28:06Z</time>
      </trkpt>
      <trkpt lat="47.53407" lon="-0.54176">
        <ele>20.32</ele>
        <time>2014-09-22T14:28:08Z</time>
      </trkpt>
      <trkpt lat="47.53391" lon="-0.54137">
        <ele>20.81</ele>
        <time>2014-09-22T14:28:15Z</time>
      </trkpt>
      <trkpt lat="47.53377" lon="-0.54102">
        <ele>20.32</ele>
        <time>2014-09-22T14:28:21Z</time>
      </trkpt>
      <trkpt lat="47.53364" lon="-0.54072">
        <ele>20.32</ele>
        <time>2014-09-22T14:28:27Z</time>
      </trkpt>
      <trkpt lat="47.53356" lon="-0.54054">
        <ele>20.81</ele>
        <time>2014-09-22T14:28:30Z</time>
      </trkpt>
      <trkpt lat="47.53338" lon="-0.54018">
        <ele>19.84</ele>
        <time>2014-09-22T14:28:37Z</time>
      </trkpt>
      <trkpt lat="47.53323" lon="-0.53988">
        <ele>20.32</ele>
        <time>2014-09-22T14:28:43Z</time>
      </trkpt>
      <trkpt lat="47.53305" lon="-0.53948">
        <ele>20.32</ele>
        <time>2014-09-22T14:28:49Z</time>
      </trkpt>
      <trkpt lat="47.53299" lon="-0.53937">
        <ele>19.84</ele>
        <time>2014-09-22T14:28:51Z</time>
      </trkpt>
      <trkpt lat="47.53285" lon="-0.53899">
        <ele>19.36</ele>
        <time>2014-09-22T14:28:56Z</time>
      </trkpt>
      <trkpt lat="47.53273" lon="-0.5388">
        <ele>20.32</ele>
        <time>2014-09-22T14:28:59Z</time>
      </trkpt>
      <trkpt lat="47.53247" lon="-0.53828">
        <ele>20.32</ele>
        <time>2014-09-22T14:29:07Z</time>
      </trkpt>
      <trkpt lat="47.53244" lon="-0.53821">
        <ele>20.32</ele>
        <time>2014-09-22T14:29:08Z</time>
      </trkpt>
      <trkpt lat="47.53226" lon="-0.53781">
        <ele>19.84</ele>
        <time>2014-09-22T14:29:14Z</time>
      </trkpt>
      <trkpt lat="47.53215" lon="-0.53738">
        <ele>19.84</ele>
        <time>2014-09-22T14:29:20Z</time>
      </trkpt>
      <trkpt lat="47.53206" lon="-0.53705">
        <ele>19.84</ele>
        <time>2014-09-22T14:29:25Z</time>
      </trkpt>
      <trkpt lat="47.53206" lon="-0.53697">
        <ele>19.36</ele>
        <time>2014-09-22T14:29:26Z</time>
      </trkpt>
      <trkpt lat="47.532" lon="-0.53673">
        <ele>18.88</ele>
        <time>2014-09-22T14:29:30Z</time>
      </trkpt>
      <trkpt lat="47.53187" lon="-0.53632">
        <ele>18.88</ele>
        <time>2014-09-22T14:29:36Z</time>
      </trkpt>
      <trkpt lat="47.53182" lon="-0.53619">
        <ele>18.88</ele>
        <time>2014-09-22T14:29:38Z</time>
      </trkpt>
      <trkpt lat="47.5317" lon="-0.53569">
        <ele>19.36</ele>
        <time>2014-09-22T14:29:45Z</time>
      </trkpt>
      <trkpt lat="47.53152" lon="-0.53522">
        <ele>19.36</ele>
        <time>2014-09-22T14:29:53Z</time>
      </trkpt>
      <trkpt lat="47.53142" lon="-0.53507">
        <ele>19.36</ele>
        <time>2014-09-22T14:29:58Z</time>
      </trkpt>
      <trkpt lat="47.53142" lon="-0.53507">
        <ele>18.88</ele>
        <time>2014-09-22T14:30:02Z</time>
      </trkpt>
      <trkpt lat="47.53142" lon="-0.53507">
        <ele>18.88</ele>
        <time>2014-09-22T14:30:09Z</time>
      </trkpt>
      <trkpt lat="47.53141" lon="-0.53488">
        <ele>19.36</ele>
        <time>2014-09-22T14:30:15Z</time>
      </trkpt>
      <trkpt lat="47.53127" lon="-0.53466">
        <ele>19.36</ele>
        <time>2014-09-22T14:30:21Z</time>
      </trkpt>
      <trkpt lat="47.53109" lon="-0.5345">
        <ele>19.84</ele>
        <time>2014-09-22T14:30:25Z</time>
      </trkpt>
      <trkpt lat="47.53071" lon="-0.53427">
        <ele>20.81</ele>
        <time>2014-09-22T14:30:33Z</time>
      </trkpt>
      <trkpt lat="47.53061" lon="-0.53421">
        <ele>20.81</ele>
        <time>2014-09-22T14:30:35Z</time>
      </trkpt>
      <trkpt lat="47.5302" lon="-0.53381">
        <ele>20.81</ele>
        <time>2014-09-22T14:30:44Z</time>
      </trkpt>
      <trkpt lat="47.53003" lon="-0.53361">
        <ele>20.81</ele>
        <time>2014-09-22T14:30:48Z</time>
      </trkpt>
      <trkpt lat="47.52994" lon="-0.53351">
        <ele>20.81</ele>
        <time>2014-09-22T14:30:50Z</time>
      </trkpt>
      <trkpt lat="47.52954" lon="-0.53296">
        <ele>20.81</ele>
        <time>2014-09-22T14:31:00Z</time>
      </trkpt>
      <trkpt lat="47.52921" lon="-0.53256">
        <ele>20.81</ele>
        <time>2014-09-22T14:31:08Z</time>
      </trkpt>
      <trkpt lat="47.52907" lon="-0.53242">
        <ele>20.81</ele>
        <time>2014-09-22T14:31:11Z</time>
      </trkpt>
      <trkpt lat="47.52875" lon="-0.53207">
        <ele>20.81</ele>
        <time>2014-09-22T14:31:18Z</time>
      </trkpt>
      <trkpt lat="47.52837" lon="-0.53167">
        <ele>21.29</ele>
        <time>2014-09-22T14:31:26Z</time>
      </trkpt>
      <trkpt lat="47.52822" lon="-0.53152">
        <ele>20.81</ele>
        <time>2014-09-22T14:31:29Z</time>
      </trkpt>
      <trkpt lat="47.52789" lon="-0.53106">
        <ele>20.81</ele>
        <time>2014-09-22T14:31:37Z</time>
      </trkpt>
      <trkpt lat="47.52779" lon="-0.53088">
        <ele>21.29</ele>
        <time>2014-09-22T14:31:40Z</time>
      </trkpt>
      <trkpt lat="47.52753" lon="-0.53044">
        <ele>21.77</ele>
        <time>2014-09-22T14:31:47Z</time>
      </trkpt>
      <trkpt lat="47.52739" lon="-0.53">
        <ele>22.73</ele>
        <time>2014-09-22T14:31:53Z</time>
      </trkpt>
      <trkpt lat="47.52731" lon="-0.5297">
        <ele>22.25</ele>
        <time>2014-09-22T14:31:57Z</time>
      </trkpt>
      <trkpt lat="47.52721" lon="-0.52926">
        <ele>22.73</ele>
        <time>2014-09-22T14:32:04Z</time>
      </trkpt>
      <trkpt lat="47.52715" lon="-0.52917">
        <ele>22.25</ele>
        <time>2014-09-22T14:32:06Z</time>
      </trkpt>
      <trkpt lat="47.52708" lon="-0.52908">
        <ele>22.25</ele>
        <time>2014-09-22T14:32:08Z</time>
      </trkpt>
      <trkpt lat="47.52692" lon="-0.52888">
        <ele>22.25</ele>
        <time>2014-09-22T14:32:12Z</time>
      </trkpt>
      <trkpt lat="47.52671" lon="-0.52877">
        <ele>21.77</ele>
        <time>2014-09-22T14:32:17Z</time>
      </trkpt>
      <trkpt lat="47.52662" lon="-0.52877">
        <ele>21.29</ele>
        <time>2014-09-22T14:32:19Z</time>
      </trkpt>
      <trkpt lat="47.52643" lon="-0.52871">
        <ele>20.81</ele>
        <time>2014-09-22T14:32:23Z</time>
      </trkpt>
      <trkpt lat="47.52625" lon="-0.52843">
        <ele>20.81</ele>
        <time>2014-09-22T14:32:28Z</time>
      </trkpt>
      <trkpt lat="47.5262" lon="-0.5283">
        <ele>20.81</ele>
        <time>2014-09-22T14:32:30Z</time>
      </trkpt>
      <trkpt lat="47.52609" lon="-0.52813">
        <ele>20.81</ele>
        <time>2014-09-22T14:32:33Z</time>
      </trkpt>
      <trkpt lat="47.52595" lon="-0.52776">
        <ele>20.32</ele>
        <time>2014-09-22T14:32:39Z</time>
      </trkpt>
      <trkpt lat="47.52572" lon="-0.52747">
        <ele>20.81</ele>
        <time>2014-09-22T14:32:45Z</time>
      </trkpt>
      <trkpt lat="47.52557" lon="-0.52735">
        <ele>21.29</ele>
        <time>2014-09-22T14:32:48Z</time>
      </trkpt>
      <trkpt lat="47.52538" lon="-0.52716">
        <ele>21.29</ele>
        <time>2014-09-22T14:32:52Z</time>
      </trkpt>
      <trkpt lat="47.525" lon="-0.52676">
        <ele>21.29</ele>
        <time>2014-09-22T14:33:00Z</time>
      </trkpt>
      <trkpt lat="47.52486" lon="-0.52654">
        <ele>22.25</ele>
        <time>2014-09-22T14:33:04Z</time>
      </trkpt>
      <trkpt lat="47.52453" lon="-0.52621">
        <ele>21.29</ele>
        <time>2014-09-22T14:33:11Z</time>
      </trkpt>
      <trkpt lat="47.52448" lon="-0.52616">
        <ele>20.81</ele>
        <time>2014-09-22T14:33:12Z</time>
      </trkpt>
      <trkpt lat="47.52425" lon="-0.52598">
        <ele>21.29</ele>
        <time>2014-09-22T14:33:17Z</time>
      </trkpt>
      <trkpt lat="47.52415" lon="-0.52595">
        <ele>21.29</ele>
        <time>2014-09-22T14:33:19Z</time>
      </trkpt>
      <trkpt lat="47.52385" lon="-0.52588">
        <ele>20.81</ele>
        <time>2014-09-22T14:33:24Z</time>
      </trkpt>
      <trkpt lat="47.5234" lon="-0.5257">
        <ele>20.32</ele>
        <time>2014-09-22T14:33:32Z</time>
      </trkpt>
      <trkpt lat="47.52334" lon="-0.52568">
        <ele>20.81</ele>
        <time>2014-09-22T14:33:33Z</time>
      </trkpt>
      <trkpt lat="47.52317" lon="-0.52567">
        <ele>20.32</ele>
        <time>2014-09-22T14:33:36Z</time>
      </trkpt>
      <trkpt lat="47.52299" lon="-0.52569">
        <ele>20.32</ele>
        <time>2014-09-22T14:33:39Z</time>
      </trkpt>
      <trkpt lat="47.52277" lon="-0.52563">
        <ele>20.32</ele>
        <time>2014-09-22T14:33:43Z</time>
      </trkpt>
      <trkpt lat="47.52266" lon="-0.52557">
        <ele>20.81</ele>
        <time>2014-09-22T14:33:45Z</time>
      </trkpt>
      <trkpt lat="47.5223" lon="-0.52538">
        <ele>21.29</ele>
        <time>2014-09-22T14:33:52Z</time>
      </trkpt>
      <trkpt lat="47.52212" lon="-0.52531">
        <ele>21.29</ele>
        <time>2014-09-22T14:33:55Z</time>
      </trkpt>
      <trkpt lat="47.52189" lon="-0.52519">
        <ele>20.81</ele>
        <time>2014-09-22T14:33:59Z</time>
      </trkpt>
      <trkpt lat="47.52134" lon="-0.52491">
        <ele>21.29</ele>
        <time>2014-09-22T14:34:08Z</time>
      </trkpt>
      <trkpt lat="47.5211" lon="-0.52477">
        <ele>20.81</ele>
        <time>2014-09-22T14:34:12Z</time>
      </trkpt>
      <trkpt lat="47.52093" lon="-0.52468">
        <ele>21.29</ele>
        <time>2014-09-22T14:34:15Z</time>
      </trkpt>
      <trkpt lat="47.52081" lon="-0.52462">
        <ele>21.29</ele>
        <time>2014-09-22T14:34:17Z</time>
      </trkpt>
      <trkpt lat="47.52055" lon="-0.5245">
        <ele>21.29</ele>
        <time>2014-09-22T14:34:22Z</time>
      </trkpt>
      <trkpt lat="47.52045" lon="-0.52445">
        <ele>20.81</ele>
        <time>2014-09-22T14:34:24Z</time>
      </trkpt>
      <trkpt lat="47.52029" lon="-0.5243">
        <ele>22.25</ele>
        <time>2014-09-22T14:34:29Z</time>
      </trkpt>
      <trkpt lat="47.52026" lon="-0.5243">
        <ele>22.25</ele>
        <time>2014-09-22T14:34:30Z</time>
      </trkpt>
      <trkpt lat="47.52015" lon="-0.52424">
        <ele>22.25</ele>
        <time>2014-09-22T14:34:33Z</time>
      </trkpt>
      <trkpt lat="47.51996" lon="-0.52411">
        <ele>22.25</ele>
        <time>2014-09-22T14:34:37Z</time>
      </trkpt>
      <trkpt lat="47.51963" lon="-0.52399">
        <ele>22.25</ele>
        <time>2014-09-22T14:34:43Z</time>
      </trkpt>
      <trkpt lat="47.51957" lon="-0.52397">
        <ele>21.77</ele>
        <time>2014-09-22T14:34:44Z</time>
      </trkpt>
      <trkpt lat="47.51934" lon="-0.52389">
        <ele>22.25</ele>
        <time>2014-09-22T14:34:48Z</time>
      </trkpt>
      <trkpt lat="47.51911" lon="-0.52377">
        <ele>22.25</ele>
        <time>2014-09-22T14:34:52Z</time>
      </trkpt>
      <trkpt lat="47.51887" lon="-0.52356">
        <ele>22.73</ele>
        <time>2014-09-22T14:34:57Z</time>
      </trkpt>
      <trkpt lat="47.51878" lon="-0.52351">
        <ele>22.73</ele>
        <time>2014-09-22T14:34:59Z</time>
      </trkpt>
      <trkpt lat="47.51856" lon="-0.52339">
        <ele>23.21</ele>
        <time>2014-09-22T14:35:04Z</time>
      </trkpt>
      <trkpt lat="47.51839" lon="-0.52334">
        <ele>22.25</ele>
        <time>2014-09-22T14:35:08Z</time>
      </trkpt>
      <trkpt lat="47.5182" lon="-0.52325">
        <ele>22.25</ele>
        <time>2014-09-22T14:35:12Z</time>
      </trkpt>
      <trkpt lat="47.51769" lon="-0.52306">
        <ele>22.73</ele>
        <time>2014-09-22T14:35:21Z</time>
      </trkpt>
      <trkpt lat="47.51732" lon="-0.52292">
        <ele>21.77</ele>
        <time>2014-09-22T14:35:28Z</time>
      </trkpt>
      <trkpt lat="47.51716" lon="-0.52289">
        <ele>22.25</ele>
        <time>2014-09-22T14:35:31Z</time>
      </trkpt>
      <trkpt lat="47.51672" lon="-0.52291">
        <ele>22.25</ele>
        <time>2014-09-22T14:35:39Z</time>
      </trkpt>
      <trkpt lat="47.51642" lon="-0.52297">
        <ele>22.73</ele>
        <time>2014-09-22T14:35:44Z</time>
      </trkpt>
      <trkpt lat="47.51598" lon="-0.52298">
        <ele>22.73</ele>
        <time>2014-09-22T14:35:52Z</time>
      </trkpt>
      <trkpt lat="47.51574" lon="-0.52293">
        <ele>23.21</ele>
        <time>2014-09-22T14:35:57Z</time>
      </trkpt>
      <trkpt lat="47.51552" lon="-0.52292">
        <ele>23.21</ele>
        <time>2014-09-22T14:36:02Z</time>
      </trkpt>
      <trkpt lat="47.51502" lon="-0.52299">
        <ele>22.73</ele>
        <time>2014-09-22T14:36:10Z</time>
      </trkpt>
      <trkpt lat="47.51456" lon="-0.52303">
        <ele>22.25</ele>
        <time>2014-09-22T14:36:17Z</time>
      </trkpt>
      <trkpt lat="47.51408" lon="-0.5231">
        <ele>22.73</ele>
        <time>2014-09-22T14:36:25Z</time>
      </trkpt>
      <trkpt lat="47.51397" lon="-0.52309">
        <ele>22.73</ele>
        <time>2014-09-22T14:36:27Z</time>
      </trkpt>
      <trkpt lat="47.51387" lon="-0.5231">
        <ele>22.73</ele>
        <time>2014-09-22T14:36:29Z</time>
      </trkpt>
      <trkpt lat="47.51371" lon="-0.52312">
        <ele>22.25</ele>
        <time>2014-09-22T14:36:32Z</time>
      </trkpt>
      <trkpt lat="47.51351" lon="-0.52308">
        <ele>22.73</ele>
        <time>2014-09-22T14:36:36Z</time>
      </trkpt>
      <trkpt lat="47.51335" lon="-0.52308">
        <ele>22.25</ele>
        <time>2014-09-22T14:36:39Z</time>
      </trkpt>
      <trkpt lat="47.51313" lon="-0.52307">
        <ele>22.73</ele>
        <time>2014-09-22T14:36:43Z</time>
      </trkpt>
      <trkpt lat="47.51287" lon="-0.5231">
        <ele>23.21</ele>
        <time>2014-09-22T14:36:48Z</time>
      </trkpt>
      <trkpt lat="47.5125" lon="-0.5233">
        <ele>23.21</ele>
        <time>2014-09-22T14:36:55Z</time>
      </trkpt>
      <trkpt lat="47.51216" lon="-0.52349">
        <ele>23.69</ele>
        <time>2014-09-22T14:37:01Z</time>
      </trkpt>
      <trkpt lat="47.51165" lon="-0.52376">
        <ele>23.21</ele>
        <time>2014-09-22T14:37:10Z</time>
      </trkpt>
      <trkpt lat="47.51154" lon="-0.52381">
        <ele>23.21</ele>
        <time>2014-09-22T14:37:12Z</time>
      </trkpt>
      <trkpt lat="47.51108" lon="-0.52402">
        <ele>23.21</ele>
        <time>2014-09-22T14:37:20Z</time>
      </trkpt>
      <trkpt lat="47.51097" lon="-0.52409">
        <ele>23.21</ele>
        <time>2014-09-22T14:37:22Z</time>
      </trkpt>
      <trkpt lat="47.51064" lon="-0.52427">
        <ele>22.73</ele>
        <time>2014-09-22T14:37:29Z</time>
      </trkpt>
      <trkpt lat="47.51056" lon="-0.52432">
        <ele>23.21</ele>
        <time>2014-09-22T14:37:31Z</time>
      </trkpt>
      <trkpt lat="47.51023" lon="-0.52445">
        <ele>22.73</ele>
        <time>2014-09-22T14:37:38Z</time>
      </trkpt>
      <trkpt lat="47.50986" lon="-0.52456">
        <ele>22.73</ele>
        <time>2014-09-22T14:37:44Z</time>
      </trkpt>
      <trkpt lat="47.5098" lon="-0.52458">
        <ele>23.21</ele>
        <time>2014-09-22T14:37:45Z</time>
      </trkpt>
      <trkpt lat="47.50949" lon="-0.52482">
        <ele>23.21</ele>
        <time>2014-09-22T14:37:51Z</time>
      </trkpt>
      <trkpt lat="47.50938" lon="-0.52491">
        <ele>22.73</ele>
        <time>2014-09-22T14:37:53Z</time>
      </trkpt>
      <trkpt lat="47.50898" lon="-0.52516">
        <ele>22.73</ele>
        <time>2014-09-22T14:38:00Z</time>
      </trkpt>
      <trkpt lat="47.50876" lon="-0.52533">
        <ele>22.25</ele>
        <time>2014-09-22T14:38:04Z</time>
      </trkpt>
      <trkpt lat="47.50835" lon="-0.52549">
        <ele>22.25</ele>
        <time>2014-09-22T14:38:11Z</time>
      </trkpt>
      <trkpt lat="47.50805" lon="-0.52562">
        <ele>22.25</ele>
        <time>2014-09-22T14:38:16Z</time>
      </trkpt>
      <trkpt lat="47.50754" lon="-0.52592">
        <ele>22.25</ele>
        <time>2014-09-22T14:38:25Z</time>
      </trkpt>
      <trkpt lat="47.50709" lon="-0.5261">
        <ele>22.73</ele>
        <time>2014-09-22T14:38:33Z</time>
      </trkpt>
      <trkpt lat="47.50698" lon="-0.52614">
        <ele>22.73</ele>
        <time>2014-09-22T14:38:35Z</time>
      </trkpt>
      <trkpt lat="47.50658" lon="-0.5264">
        <ele>22.73</ele>
        <time>2014-09-22T14:38:42Z</time>
      </trkpt>
      <trkpt lat="47.50621" lon="-0.52666">
        <ele>22.73</ele>
        <time>2014-09-22T14:38:49Z</time>
      </trkpt>
      <trkpt lat="47.50578" lon="-0.5269">
        <ele>22.73</ele>
        <time>2014-09-22T14:38:57Z</time>
      </trkpt>
      <trkpt lat="47.50548" lon="-0.52719">
        <ele>22.25</ele>
        <time>2014-09-22T14:39:03Z</time>
      </trkpt>
      <trkpt lat="47.50505" lon="-0.52758">
        <ele>22.73</ele>
        <time>2014-09-22T14:39:11Z</time>
      </trkpt>
      <trkpt lat="47.50455" lon="-0.52799">
        <ele>22.25</ele>
        <time>2014-09-22T14:39:20Z</time>
      </trkpt>
      <trkpt lat="47.50408" lon="-0.52844">
        <ele>22.25</ele>
        <time>2014-09-22T14:39:29Z</time>
      </trkpt>
      <trkpt lat="47.50372" lon="-0.52878">
        <ele>22.25</ele>
        <time>2014-09-22T14:39:36Z</time>
      </trkpt>
      <trkpt lat="47.5033" lon="-0.52915">
        <ele>22.25</ele>
        <time>2014-09-22T14:39:44Z</time>
      </trkpt>
      <trkpt lat="47.50278" lon="-0.52964">
        <ele>22.25</ele>
        <time>2014-09-22T14:39:54Z</time>
      </trkpt>
      <trkpt lat="47.50228" lon="-0.53011">
        <ele>22.25</ele>
        <time>2014-09-22T14:40:04Z</time>
      </trkpt>
      <trkpt lat="47.50182" lon="-0.53054">
        <ele>22.25</ele>
        <time>2014-09-22T14:40:13Z</time>
      </trkpt>
      <trkpt lat="47.50145" lon="-0.5309">
        <ele>22.73</ele>
        <time>2014-09-22T14:40:20Z</time>
      </trkpt>
      <trkpt lat="47.50101" lon="-0.53136">
        <ele>21.77</ele>
        <time>2014-09-22T14:40:29Z</time>
      </trkpt>
      <trkpt lat="47.50045" lon="-0.53189">
        <ele>21.77</ele>
        <time>2014-09-22T14:40:40Z</time>
      </trkpt>
      <trkpt lat="47.49993" lon="-0.53241">
        <ele>22.25</ele>
        <time>2014-09-22T14:40:50Z</time>
      </trkpt>
      <trkpt lat="47.49964" lon="-0.5328">
        <ele>21.77</ele>
        <time>2014-09-22T14:40:56Z</time>
      </trkpt>
      <trkpt lat="47.49932" lon="-0.53309">
        <ele>22.25</ele>
        <time>2014-09-22T14:41:02Z</time>
      </trkpt>
      <trkpt lat="47.49911" lon="-0.53327">
        <ele>21.77</ele>
        <time>2014-09-22T14:41:06Z</time>
      </trkpt>
      <trkpt lat="47.49891" lon="-0.53347">
        <ele>21.29</ele>
        <time>2014-09-22T14:41:10Z</time>
      </trkpt>
      <trkpt lat="47.49871" lon="-0.5337">
        <ele>21.29</ele>
        <time>2014-09-22T14:41:14Z</time>
      </trkpt>
      <trkpt lat="47.49863" lon="-0.53384">
        <ele>21.29</ele>
        <time>2014-09-22T14:41:16Z</time>
      </trkpt>
      <trkpt lat="47.49848" lon="-0.53403">
        <ele>20.81</ele>
        <time>2014-09-22T14:41:19Z</time>
      </trkpt>
      <trkpt lat="47.49808" lon="-0.53437">
        <ele>21.77</ele>
        <time>2014-09-22T14:41:26Z</time>
      </trkpt>
      <trkpt lat="47.49781" lon="-0.53466">
        <ele>22.25</ele>
        <time>2014-09-22T14:41:31Z</time>
      </trkpt>
      <trkpt lat="47.49758" lon="-0.53481">
        <ele>21.77</ele>
        <time>2014-09-22T14:41:35Z</time>
      </trkpt>
      <trkpt lat="47.49719" lon="-0.53528">
        <ele>22.25</ele>
        <time>2014-09-22T14:41:43Z</time>
      </trkpt>
      <trkpt lat="47.49687" lon="-0.53579">
        <ele>22.25</ele>
        <time>2014-09-22T14:41:50Z</time>
      </trkpt>
      <trkpt lat="47.49644" lon="-0.53634">
        <ele>22.25</ele>
        <time>2014-09-22T14:41:58Z</time>
      </trkpt>
      <trkpt lat="47.49615" lon="-0.53664">
        <ele>22.25</ele>
        <time>2014-09-22T14:42:03Z</time>
      </trkpt>
      <trkpt lat="47.49581" lon="-0.53717">
        <ele>22.73</ele>
        <time>2014-09-22T14:42:10Z</time>
      </trkpt>
      <trkpt lat="47.49576" lon="-0.53725">
        <ele>22.25</ele>
        <time>2014-09-22T14:42:11Z</time>
      </trkpt>
      <trkpt lat="47.49551" lon="-0.53774">
        <ele>22.25</ele>
        <time>2014-09-22T14:42:17Z</time>
      </trkpt>
      <trkpt lat="47.49511" lon="-0.53832">
        <ele>22.73</ele>
        <time>2014-09-22T14:42:25Z</time>
      </trkpt>
      <trkpt lat="47.49478" lon="-0.53873">
        <ele>22.73</ele>
        <time>2014-09-22T14:42:31Z</time>
      </trkpt>
      <trkpt lat="47.49449" lon="-0.5392">
        <ele>22.25</ele>
        <time>2014-09-22T14:42:37Z</time>
      </trkpt>
      <trkpt lat="47.4944" lon="-0.53936">
        <ele>22.73</ele>
        <time>2014-09-22T14:42:39Z</time>
      </trkpt>
      <trkpt lat="47.49409" lon="-0.53979">
        <ele>22.25</ele>
        <time>2014-09-22T14:42:45Z</time>
      </trkpt>
      <trkpt lat="47.49384" lon="-0.53998">
        <ele>22.73</ele>
        <time>2014-09-22T14:42:49Z</time>
      </trkpt>
      <trkpt lat="47.49343" lon="-0.5404">
        <ele>22.25</ele>
        <time>2014-09-22T14:42:56Z</time>
      </trkpt>
      <trkpt lat="47.49301" lon="-0.54098">
        <ele>22.73</ele>
        <time>2014-09-22T14:43:04Z</time>
      </trkpt>
      <trkpt lat="47.4926" lon="-0.54157">
        <ele>22.73</ele>
        <time>2014-09-22T14:43:12Z</time>
      </trkpt>
      <trkpt lat="47.49227" lon="-0.54194">
        <ele>22.25</ele>
        <time>2014-09-22T14:43:18Z</time>
      </trkpt>
      <trkpt lat="47.49201" lon="-0.54228">
        <ele>22.25</ele>
        <time>2014-09-22T14:43:24Z</time>
      </trkpt>
      <trkpt lat="47.492" lon="-0.54243">
        <ele>20.81</ele>
        <time>2014-09-22T14:43:27Z</time>
      </trkpt>
      <trkpt lat="47.49197" lon="-0.54246">
        <ele>21.29</ele>
        <time>2014-09-22T14:43:28Z</time>
      </trkpt>
      <trkpt lat="47.49179" lon="-0.54273">
        <ele>21.77</ele>
        <time>2014-09-22T14:43:35Z</time>
      </trkpt>
      <trkpt lat="47.49161" lon="-0.54287">
        <ele>22.25</ele>
        <time>2014-09-22T14:43:39Z</time>
      </trkpt>
      <trkpt lat="47.49123" lon="-0.54319">
        <ele>23.21</ele>
        <time>2014-09-22T14:43:47Z</time>
      </trkpt>
      <trkpt lat="47.49114" lon="-0.54328">
        <ele>24.17</ele>
        <time>2014-09-22T14:43:49Z</time>
      </trkpt>
      <trkpt lat="47.49084" lon="-0.54361">
        <ele>24.65</ele>
        <time>2014-09-22T14:43:57Z</time>
      </trkpt>
      <trkpt lat="47.4908" lon="-0.54367">
        <ele>24.65</ele>
        <time>2014-09-22T14:43:58Z</time>
      </trkpt>
      <trkpt lat="47.49071" lon="-0.54381">
        <ele>23.69</ele>
        <time>2014-09-22T14:44:00Z</time>
      </trkpt>
      <trkpt lat="47.49042" lon="-0.54418">
        <ele>23.69</ele>
        <time>2014-09-22T14:44:06Z</time>
      </trkpt>
      <trkpt lat="47.49018" lon="-0.54447">
        <ele>23.69</ele>
        <time>2014-09-22T14:44:11Z</time>
      </trkpt>
      <trkpt lat="47.48984" lon="-0.54487">
        <ele>24.17</ele>
        <time>2014-09-22T14:44:18Z</time>
      </trkpt>
      <trkpt lat="47.48948" lon="-0.54534">
        <ele>24.17</ele>
        <time>2014-09-22T14:44:26Z</time>
      </trkpt>
      <trkpt lat="47.48915" lon="-0.54575">
        <ele>24.17</ele>
        <time>2014-09-22T14:44:33Z</time>
      </trkpt>
      <trkpt lat="47.48897" lon="-0.54596">
        <ele>23.69</ele>
        <time>2014-09-22T14:44:37Z</time>
      </trkpt>
      <trkpt lat="47.48857" lon="-0.54635">
        <ele>23.21</ele>
        <time>2014-09-22T14:44:44Z</time>
      </trkpt>
      <trkpt lat="47.48818" lon="-0.54668">
        <ele>23.21</ele>
        <time>2014-09-22T14:44:51Z</time>
      </trkpt>
      <trkpt lat="47.48795" lon="-0.54684">
        <ele>22.73</ele>
        <time>2014-09-22T14:44:55Z</time>
      </trkpt>
      <trkpt lat="47.48737" lon="-0.54721">
        <ele>22.73</ele>
        <time>2014-09-22T14:45:05Z</time>
      </trkpt>
      <trkpt lat="47.48689" lon="-0.54753">
        <ele>23.21</ele>
        <time>2014-09-22T14:45:13Z</time>
      </trkpt>
      <trkpt lat="47.48648" lon="-0.54771">
        <ele>23.21</ele>
        <time>2014-09-22T14:45:20Z</time>
      </trkpt>
      <trkpt lat="47.48643" lon="-0.54775">
        <ele>23.21</ele>
        <time>2014-09-22T14:45:21Z</time>
      </trkpt>
      <trkpt lat="47.48596" lon="-0.54799">
        <ele>22.73</ele>
        <time>2014-09-22T14:45:29Z</time>
      </trkpt>
      <trkpt lat="47.48543" lon="-0.54834">
        <ele>22.25</ele>
        <time>2014-09-22T14:45:38Z</time>
      </trkpt>
      <trkpt lat="47.48498" lon="-0.54876">
        <ele>22.25</ele>
        <time>2014-09-22T14:45:46Z</time>
      </trkpt>
      <trkpt lat="47.48483" lon="-0.54892">
        <ele>22.73</ele>
        <time>2014-09-22T14:45:49Z</time>
      </trkpt>
      <trkpt lat="47.48441" lon="-0.54914">
        <ele>22.25</ele>
        <time>2014-09-22T14:45:56Z</time>
      </trkpt>
      <trkpt lat="47.48429" lon="-0.54921">
        <ele>22.25</ele>
        <time>2014-09-22T14:45:58Z</time>
      </trkpt>
      <trkpt lat="47.48383" lon="-0.54959">
        <ele>22.73</ele>
        <time>2014-09-22T14:46:06Z</time>
      </trkpt>
      <trkpt lat="47.48372" lon="-0.54969">
        <ele>22.25</ele>
        <time>2014-09-22T14:46:08Z</time>
      </trkpt>
      <trkpt lat="47.48333" lon="-0.5499">
        <ele>22.25</ele>
        <time>2014-09-22T14:46:14Z</time>
      </trkpt>
      <trkpt lat="47.48306" lon="-0.54991">
        <ele>22.25</ele>
        <time>2014-09-22T14:46:18Z</time>
      </trkpt>
      <trkpt lat="47.48259" lon="-0.55009">
        <ele>22.25</ele>
        <time>2014-09-22T14:46:25Z</time>
      </trkpt>
      <trkpt lat="47.48217" lon="-0.55033">
        <ele>23.69</ele>
        <time>2014-09-22T14:46:32Z</time>
      </trkpt>
      <trkpt lat="47.482" lon="-0.55037">
        <ele>23.69</ele>
        <time>2014-09-22T14:46:35Z</time>
      </trkpt>
      <trkpt lat="47.48162" lon="-0.55059">
        <ele>24.65</ele>
        <time>2014-09-22T14:46:42Z</time>
      </trkpt>
      <trkpt lat="47.48122" lon="-0.55083">
        <ele>26.57</ele>
        <time>2014-09-22T14:46:50Z</time>
      </trkpt>
      <trkpt lat="47.48117" lon="-0.55086">
        <ele>26.57</ele>
        <time>2014-09-22T14:46:51Z</time>
      </trkpt>
      <trkpt lat="47.48094" lon="-0.55103">
        <ele>27.05</ele>
        <time>2014-09-22T14:46:56Z</time>
      </trkpt>
      <trkpt lat="47.48054" lon="-0.55141">
        <ele>26.57</ele>
        <time>2014-09-22T14:47:05Z</time>
      </trkpt>
      <trkpt lat="47.4805" lon="-0.55145">
        <ele>26.57</ele>
        <time>2014-09-22T14:47:06Z</time>
      </trkpt>
      <trkpt lat="47.48036" lon="-0.55164">
        <ele>26.09</ele>
        <time>2014-09-22T14:47:10Z</time>
      </trkpt>
      <trkpt lat="47.48027" lon="-0.55173">
        <ele>26.09</ele>
        <time>2014-09-22T14:47:15Z</time>
      </trkpt>
      <trkpt lat="47.48025" lon="-0.55174">
        <ele>27.05</ele>
        <time>2014-09-22T14:47:23Z</time>
      </trkpt>
      <trkpt lat="47.48024" lon="-0.55173">
        <ele>30.42</ele>
        <time>2014-09-22T14:47:28Z</time>
      </trkpt>
      <trkpt lat="47.48024" lon="-0.55173">
        <ele>30.42</ele>
        <time>2014-09-22T14:47:29Z</time>
      </trkpt>
      <trkpt lat="47.48024" lon="-0.55171">
        <ele>30.9</ele>
        <time>2014-09-22T14:47:34Z</time>
      </trkpt>
      <trkpt lat="47.48023" lon="-0.55169">
        <ele>32.82</ele>
        <time>2014-09-22T14:47:39Z</time>
      </trkpt>
      <trkpt lat="47.48021" lon="-0.55166">
        <ele>33.78</ele>
        <time>2014-09-22T14:47:41Z</time>
      </trkpt>
      <trkpt lat="47.48019" lon="-0.55159">
        <ele>33.78</ele>
        <time>2014-09-22T14:47:44Z</time>
      </trkpt>
      <trkpt lat="47.48017" lon="-0.55152">
        <ele>34.26</ele>
        <time>2014-09-22T14:47:49Z</time>
      </trkpt>
      <trkpt lat="47.48017" lon="-0.55146">
        <ele>34.26</ele>
        <time>2014-09-22T14:47:52Z</time>
      </trkpt>
      <trkpt lat="47.48025" lon="-0.55158">
        <ele>33.78</ele>
        <time>2014-09-22T14:47:57Z</time>
      </trkpt>
      <trkpt lat="47.48027" lon="-0.55163">
        <ele>33.78</ele>
        <time>2014-09-22T14:47:58Z</time>
      </trkpt>
      <trkpt lat="47.48028" lon="-0.55169">
        <ele>34.26</ele>
        <time>2014-09-22T14:47:59Z</time>
      </trkpt>
      <trkpt lat="47.48043" lon="-0.55222">
        <ele>33.3</ele>
        <time>2014-09-22T14:48:07Z</time>
      </trkpt>
      <trkpt lat="47.48063" lon="-0.55296">
        <ele>32.34</ele>
        <time>2014-09-22T14:48:16Z</time>
      </trkpt>
      <trkpt lat="47.4807" lon="-0.55326">
        <ele>30.42</ele>
        <time>2014-09-22T14:48:19Z</time>
      </trkpt>
      <trkpt lat="47.48076" lon="-0.55346">
        <ele>28.98</ele>
        <time>2014-09-22T14:48:21Z</time>
      </trkpt>
      <trkpt lat="47.48087" lon="-0.55388">
        <ele>28.98</ele>
        <time>2014-09-22T14:48:26Z</time>
      </trkpt>
      <trkpt lat="47.48089" lon="-0.55391">
        <ele>28.98</ele>
        <time>2014-09-22T14:48:27Z</time>
      </trkpt>
      <trkpt lat="47.48092" lon="-0.55391">
        <ele>28.5</ele>
        <time>2014-09-22T14:48:28Z</time>
      </trkpt>
      <trkpt lat="47.48096" lon="-0.55391">
        <ele>28.5</ele>
        <time>2014-09-22T14:48:29Z</time>
      </trkpt>
      <trkpt lat="47.48099" lon="-0.5539">
        <ele>28.5</ele>
        <time>2014-09-22T14:48:30Z</time>
      </trkpt>
      <trkpt lat="47.48103" lon="-0.5539">
        <ele>27.53</ele>
        <time>2014-09-22T14:48:31Z</time>
      </trkpt>
      <trkpt lat="47.48106" lon="-0.5539">
        <ele>27.53</ele>
        <time>2014-09-22T14:48:32Z</time>
      </trkpt>
      <trkpt lat="47.48108" lon="-0.5539">
        <ele>27.05</ele>
        <time>2014-09-22T14:48:33Z</time>
      </trkpt>
      <trkpt lat="47.48109" lon="-0.55391">
        <ele>27.05</ele>
        <time>2014-09-22T14:48:34Z</time>
      </trkpt>
      <trkpt lat="47.48112" lon="-0.55393">
        <ele>26.57</ele>
        <time>2014-09-22T14:48:35Z</time>
      </trkpt>
      <trkpt lat="47.48115" lon="-0.55394">
        <ele>25.61</ele>
        <time>2014-09-22T14:48:36Z</time>
      </trkpt>
      <trkpt lat="47.48129" lon="-0.55385">
        <ele>26.57</ele>
        <time>2014-09-22T14:48:40Z</time>
      </trkpt>
      <trkpt lat="47.48133" lon="-0.55383">
        <ele>26.57</ele>
        <time>2014-09-22T14:48:41Z</time>
      </trkpt>
      <trkpt lat="47.48137" lon="-0.5538">
        <ele>26.57</ele>
        <time>2014-09-22T14:48:42Z</time>
      </trkpt>
      <trkpt lat="47.48153" lon="-0.55368">
        <ele>26.57</ele>
        <time>2014-09-22T14:48:46Z</time>
      </trkpt>
      <trkpt lat="47.48163" lon="-0.55359">
        <ele>26.57</ele>
        <time>2014-09-22T14:48:49Z</time>
      </trkpt>
      <trkpt lat="47.48172" lon="-0.55341">
        <ele>26.09</ele>
        <time>2014-09-22T14:48:54Z</time>
      </trkpt>
      <trkpt lat="47.48186" lon="-0.55335">
        <ele>26.09</ele>
        <time>2014-09-22T14:48:58Z</time>
      </trkpt>
      <trkpt lat="47.48211" lon="-0.55318">
        <ele>25.61</ele>
        <time>2014-09-22T14:49:04Z</time>
      </trkpt>
      <trkpt lat="47.48229" lon="-0.55304">
        <ele>25.61</ele>
        <time>2014-09-22T14:49:08Z</time>
      </trkpt>
      <trkpt lat="47.48239" lon="-0.5529">
        <ele>24.17</ele>
        <time>2014-09-22T14:49:13Z</time>
      </trkpt>
      <trkpt lat="47.48242" lon="-0.55285">
        <ele>24.17</ele>
        <time>2014-09-22T14:49:18Z</time>
      </trkpt>
      <trkpt lat="47.48231" lon="-0.5529">
        <ele>23.69</ele>
        <time>2014-09-22T14:49:23Z</time>
      </trkpt>
      <trkpt lat="47.4822" lon="-0.55296">
        <ele>23.21</ele>
        <time>2014-09-22T14:49:26Z</time>
      </trkpt>
      <trkpt lat="47.48218" lon="-0.55286">
        <ele>22.25</ele>
        <time>2014-09-22T14:49:31Z</time>
      </trkpt>
      <trkpt lat="47.48226" lon="-0.5528">
        <ele>21.77</ele>
        <time>2014-09-22T14:49:33Z</time>
      </trkpt>
      <trkpt lat="47.48236" lon="-0.55276">
        <ele>21.29</ele>
        <time>2014-09-22T14:49:35Z</time>
      </trkpt>
      <trkpt lat="47.48276" lon="-0.55251">
        <ele>22.25</ele>
        <time>2014-09-22T14:49:42Z</time>
      </trkpt>
      <trkpt lat="47.48325" lon="-0.55223">
        <ele>21.77</ele>
        <time>2014-09-22T14:49:50Z</time>
      </trkpt>
      <trkpt lat="47.48366" lon="-0.55198">
        <ele>21.29</ele>
        <time>2014-09-22T14:49:57Z</time>
      </trkpt>
      <trkpt lat="47.4841" lon="-0.55166">
        <ele>21.77</ele>
        <time>2014-09-22T14:50:05Z</time>
      </trkpt>
      <trkpt lat="47.48458" lon="-0.55132">
        <ele>22.25</ele>
        <time>2014-09-22T14:50:14Z</time>
      </trkpt>
      <trkpt lat="47.4849" lon="-0.55115">
        <ele>21.29</ele>
        <time>2014-09-22T14:50:20Z</time>
      </trkpt>
      <trkpt lat="47.48524" lon="-0.55098">
        <ele>22.25</ele>
        <time>2014-09-22T14:50:27Z</time>
      </trkpt>
      <trkpt lat="47.48533" lon="-0.55094">
        <ele>23.21</ele>
        <time>2014-09-22T14:50:29Z</time>
      </trkpt>
      <trkpt lat="47.48549" lon="-0.55088">
        <ele>23.69</ele>
        <time>2014-09-22T14:50:33Z</time>
      </trkpt>
      <trkpt lat="47.48581" lon="-0.55052">
        <ele>23.21</ele>
        <time>2014-09-22T14:50:41Z</time>
      </trkpt>
      <trkpt lat="47.48602" lon="-0.55033">
        <ele>22.73</ele>
        <time>2014-09-22T14:50:45Z</time>
      </trkpt>
      <trkpt lat="47.4865" lon="-0.54988">
        <ele>22.73</ele>
        <time>2014-09-22T14:50:54Z</time>
      </trkpt>
      <trkpt lat="47.48655" lon="-0.54983">
        <ele>22.25</ele>
        <time>2014-09-22T14:50:55Z</time>
      </trkpt>
      <trkpt lat="47.48692" lon="-0.54949">
        <ele>22.25</ele>
        <time>2014-09-22T14:51:02Z</time>
      </trkpt>
      <trkpt lat="47.48703" lon="-0.5494">
        <ele>22.25</ele>
        <time>2014-09-22T14:51:04Z</time>
      </trkpt>
      <trkpt lat="47.48716" lon="-0.54926">
        <ele>22.25</ele>
        <time>2014-09-22T14:51:07Z</time>
      </trkpt>
      <trkpt lat="47.48745" lon="-0.54899">
        <ele>21.77</ele>
        <time>2014-09-22T14:51:13Z</time>
      </trkpt>
      <trkpt lat="47.48784" lon="-0.54869">
        <ele>22.25</ele>
        <time>2014-09-22T14:51:21Z</time>
      </trkpt>
      <trkpt lat="47.48803" lon="-0.54855">
        <ele>21.77</ele>
        <time>2014-09-22T14:51:25Z</time>
      </trkpt>
      <trkpt lat="47.48831" lon="-0.54837">
        <ele>23.21</ele>
        <time>2014-09-22T14:51:32Z</time>
      </trkpt>
      <trkpt lat="47.4884" lon="-0.54835">
        <ele>23.21</ele>
        <time>2014-09-22T14:51:35Z</time>
      </trkpt>
      <trkpt lat="47.48858" lon="-0.54823">
        <ele>23.69</ele>
        <time>2014-09-22T14:51:42Z</time>
      </trkpt>
      <trkpt lat="47.48883" lon="-0.5481">
        <ele>23.69</ele>
        <time>2014-09-22T14:51:49Z</time>
      </trkpt>
      <trkpt lat="47.48894" lon="-0.54803">
        <ele>23.69</ele>
        <time>2014-09-22T14:51:52Z</time>
      </trkpt>
      <trkpt lat="47.48914" lon="-0.54787">
        <ele>23.69</ele>
        <time>2014-09-22T14:51:57Z</time>
      </trkpt>
      <trkpt lat="47.48954" lon="-0.54758">
        <ele>23.21</ele>
        <time>2014-09-22T14:52:06Z</time>
      </trkpt>
      <trkpt lat="47.48963" lon="-0.54751">
        <ele>23.21</ele>
        <time>2014-09-22T14:52:08Z</time>
      </trkpt>
      <trkpt lat="47.48982" lon="-0.54739">
        <ele>23.21</ele>
        <time>2014-09-22T14:52:12Z</time>
      </trkpt>
      <trkpt lat="47.49009" lon="-0.54717">
        <ele>22.73</ele>
        <time>2014-09-22T14:52:18Z</time>
      </trkpt>
      <trkpt lat="47.49023" lon="-0.54707">
        <ele>22.73</ele>
        <time>2014-09-22T14:52:21Z</time>
      </trkpt>
      <trkpt lat="47.4904" lon="-0.54688">
        <ele>22.73</ele>
        <time>2014-09-22T14:52:25Z</time>
      </trkpt>
      <trkpt lat="47.49051" lon="-0.54671">
        <ele>23.21</ele>
        <time>2014-09-22T14:52:28Z</time>
      </trkpt>
      <trkpt lat="47.49076" lon="-0.54632">
        <ele>22.73</ele>
        <time>2014-09-22T14:52:35Z</time>
      </trkpt>
      <trkpt lat="47.49108" lon="-0.54587">
        <ele>22.25</ele>
        <time>2014-09-22T14:52:42Z</time>
      </trkpt>
      <trkpt lat="47.49113" lon="-0.54581">
        <ele>22.25</ele>
        <time>2014-09-22T14:52:43Z</time>
      </trkpt>
      <trkpt lat="47.49157" lon="-0.54518">
        <ele>22.73</ele>
        <time>2014-09-22T14:52:53Z</time>
      </trkpt>
      <trkpt lat="47.49198" lon="-0.54468">
        <ele>22.25</ele>
        <time>2014-09-22T14:53:02Z</time>
      </trkpt>
      <trkpt lat="47.49214" lon="-0.54445">
        <ele>22.25</ele>
        <time>2014-09-22T14:53:06Z</time>
      </trkpt>
      <trkpt lat="47.49247" lon="-0.54401">
        <ele>22.73</ele>
        <time>2014-09-22T14:53:14Z</time>
      </trkpt>
      <trkpt lat="47.4926" lon="-0.54378">
        <ele>23.69</ele>
        <time>2014-09-22T14:53:18Z</time>
      </trkpt>
      <trkpt lat="47.49291" lon="-0.54352">
        <ele>21.77</ele>
        <time>2014-09-22T14:53:25Z</time>
      </trkpt>
      <trkpt lat="47.49296" lon="-0.5435">
        <ele>21.77</ele>
        <time>2014-09-22T14:53:26Z</time>
      </trkpt>
      <trkpt lat="47.49317" lon="-0.54344">
        <ele>21.77</ele>
        <time>2014-09-22T14:53:30Z</time>
      </trkpt>
      <trkpt lat="47.49344" lon="-0.54353">
        <ele>22.25</ele>
        <time>2014-09-22T14:53:35Z</time>
      </trkpt>
      <trkpt lat="47.4935" lon="-0.54356">
        <ele>22.25</ele>
        <time>2014-09-22T14:53:36Z</time>
      </trkpt>
      <trkpt lat="47.49409" lon="-0.54389">
        <ele>22.25</ele>
        <time>2014-09-22T14:53:46Z</time>
      </trkpt>
      <trkpt lat="47.49453" lon="-0.54422">
        <ele>22.25</ele>
        <time>2014-09-22T14:53:54Z</time>
      </trkpt>
      <trkpt lat="47.49491" lon="-0.54458">
        <ele>22.25</ele>
        <time>2014-09-22T14:54:01Z</time>
      </trkpt>
      <trkpt lat="47.49505" lon="-0.54472">
        <ele>22.25</ele>
        <time>2014-09-22T14:54:04Z</time>
      </trkpt>
      <trkpt lat="47.49525" lon="-0.54492">
        <ele>22.25</ele>
        <time>2014-09-22T14:54:08Z</time>
      </trkpt>
      <trkpt lat="47.49561" lon="-0.54521">
        <ele>22.25</ele>
        <time>2014-09-22T14:54:15Z</time>
      </trkpt>
      <trkpt lat="47.4957" lon="-0.54531">
        <ele>22.73</ele>
        <time>2014-09-22T14:54:17Z</time>
      </trkpt>
      <trkpt lat="47.4961" lon="-0.54587">
        <ele>22.73</ele>
        <time>2014-09-22T14:54:26Z</time>
      </trkpt>
      <trkpt lat="47.49649" lon="-0.54638">
        <ele>22.73</ele>
        <time>2014-09-22T14:54:34Z</time>
      </trkpt>
      <trkpt lat="47.49691" lon="-0.54682">
        <ele>22.73</ele>
        <time>2014-09-22T14:54:42Z</time>
      </trkpt>
      <trkpt lat="47.49738" lon="-0.54719">
        <ele>22.25</ele>
        <time>2014-09-22T14:54:50Z</time>
      </trkpt>
      <trkpt lat="47.49773" lon="-0.54741">
        <ele>22.25</ele>
        <time>2014-09-22T14:54:56Z</time>
      </trkpt>
      <trkpt lat="47.49793" lon="-0.54765">
        <ele>21.77</ele>
        <time>2014-09-22T14:55:00Z</time>
      </trkpt>
      <trkpt lat="47.49806" lon="-0.54786">
        <ele>23.21</ele>
        <time>2014-09-22T14:55:03Z</time>
      </trkpt>
      <trkpt lat="47.49831" lon="-0.54852">
        <ele>22.73</ele>
        <time>2014-09-22T14:55:11Z</time>
      </trkpt>
      <trkpt lat="47.49865" lon="-0.5492">
        <ele>22.73</ele>
        <time>2014-09-22T14:55:20Z</time>
      </trkpt>
      <trkpt lat="47.499" lon="-0.54977">
        <ele>23.21</ele>
        <time>2014-09-22T14:55:28Z</time>
      </trkpt>
      <trkpt lat="47.49938" lon="-0.55032">
        <ele>23.21</ele>
        <time>2014-09-22T14:55:36Z</time>
      </trkpt>
      <trkpt lat="47.49955" lon="-0.55062">
        <ele>23.21</ele>
        <time>2014-09-22T14:55:40Z</time>
      </trkpt>
      <trkpt lat="47.4997" lon="-0.55105">
        <ele>22.73</ele>
        <time>2014-09-22T14:55:45Z</time>
      </trkpt>
      <trkpt lat="47.49979" lon="-0.55171">
        <ele>22.73</ele>
        <time>2014-09-22T14:55:52Z</time>
      </trkpt>
      <trkpt lat="47.49991" lon="-0.55233">
        <ele>23.21</ele>
        <time>2014-09-22T14:55:59Z</time>
      </trkpt>
      <trkpt lat="47.50016" lon="-0.55289">
        <ele>23.21</ele>
        <time>2014-09-22T14:56:06Z</time>
      </trkpt>
      <trkpt lat="47.50038" lon="-0.55349">
        <ele>22.73</ele>
        <time>2014-09-22T14:56:13Z</time>
      </trkpt>
      <trkpt lat="47.50045" lon="-0.55376">
        <ele>23.21</ele>
        <time>2014-09-22T14:56:16Z</time>
      </trkpt>
      <trkpt lat="47.50052" lon="-0.55393">
        <ele>23.21</ele>
        <time>2014-09-22T14:56:18Z</time>
      </trkpt>
      <trkpt lat="47.50083" lon="-0.55428">
        <ele>22.73</ele>
        <time>2014-09-22T14:56:24Z</time>
      </trkpt>
      <trkpt lat="47.50131" lon="-0.55464">
        <ele>22.25</ele>
        <time>2014-09-22T14:56:32Z</time>
      </trkpt>
      <trkpt lat="47.50169" lon="-0.55488">
        <ele>23.21</ele>
        <time>2014-09-22T14:56:38Z</time>
      </trkpt>
      <trkpt lat="47.50182" lon="-0.55496">
        <ele>22.73</ele>
        <time>2014-09-22T14:56:40Z</time>
      </trkpt>
      <trkpt lat="47.50202" lon="-0.55529">
        <ele>22.73</ele>
        <time>2014-09-22T14:56:45Z</time>
      </trkpt>
      <trkpt lat="47.50202" lon="-0.55539">
        <ele>22.73</ele>
        <time>2014-09-22T14:56:46Z</time>
      </trkpt>
      <trkpt lat="47.50185" lon="-0.55592">
        <ele>23.21</ele>
        <time>2014-09-22T14:56:52Z</time>
      </trkpt>
      <trkpt lat="47.50169" lon="-0.55614">
        <ele>23.69</ele>
        <time>2014-09-22T14:56:55Z</time>
      </trkpt>
      <trkpt lat="47.50152" lon="-0.55648">
        <ele>22.73</ele>
        <time>2014-09-22T14:56:59Z</time>
      </trkpt>
      <trkpt lat="47.50141" lon="-0.55684">
        <ele>23.21</ele>
        <time>2014-09-22T14:57:03Z</time>
      </trkpt>
      <trkpt lat="47.50141" lon="-0.55724">
        <ele>22.73</ele>
        <time>2014-09-22T14:57:07Z</time>
      </trkpt>
      <trkpt lat="47.50155" lon="-0.55814">
        <ele>23.69</ele>
        <time>2014-09-22T14:57:16Z</time>
      </trkpt>
      <trkpt lat="47.50161" lon="-0.55842">
        <ele>23.69</ele>
        <time>2014-09-22T14:57:19Z</time>
      </trkpt>
      <trkpt lat="47.50189" lon="-0.5591">
        <ele>22.73</ele>
        <time>2014-09-22T14:57:27Z</time>
      </trkpt>
      <trkpt lat="47.5023" lon="-0.55961">
        <ele>22.73</ele>
        <time>2014-09-22T14:57:35Z</time>
      </trkpt>
      <trkpt lat="47.50268" lon="-0.55993">
        <ele>22.73</ele>
        <time>2014-09-22T14:57:42Z</time>
      </trkpt>
      <trkpt lat="47.50287" lon="-0.56015">
        <ele>21.77</ele>
        <time>2014-09-22T14:57:47Z</time>
      </trkpt>
      <trkpt lat="47.503" lon="-0.56051">
        <ele>21.29</ele>
        <time>2014-09-22T14:57:53Z</time>
      </trkpt>
      <trkpt lat="47.50315" lon="-0.56041">
        <ele>21.77</ele>
        <time>2014-09-22T14:57:57Z</time>
      </trkpt>
      <trkpt lat="47.50326" lon="-0.56033">
        <ele>22.25</ele>
        <time>2014-09-22T14:58:00Z</time>
      </trkpt>
      <trkpt lat="47.50335" lon="-0.5604">
        <ele>21.77</ele>
        <time>2014-09-22T14:58:02Z</time>
      </trkpt>
      <trkpt lat="47.50356" lon="-0.5607">
        <ele>22.25</ele>
        <time>2014-09-22T14:58:07Z</time>
      </trkpt>
      <trkpt lat="47.50365" lon="-0.56094">
        <ele>22.73</ele>
        <time>2014-09-22T14:58:10Z</time>
      </trkpt>
      <trkpt lat="47.5037" lon="-0.56111">
        <ele>22.25</ele>
        <time>2014-09-22T14:58:12Z</time>
      </trkpt>
      <trkpt lat="47.5039" lon="-0.56146">
        <ele>22.25</ele>
        <time>2014-09-22T14:58:17Z</time>
      </trkpt>
      <trkpt lat="47.50435" lon="-0.56202">
        <ele>21.77</ele>
        <time>2014-09-22T14:58:26Z</time>
      </trkpt>
      <trkpt lat="47.50461" lon="-0.56229">
        <ele>21.77</ele>
        <time>2014-09-22T14:58:31Z</time>
      </trkpt>
      <trkpt lat="47.50475" lon="-0.56249">
        <ele>20.81</ele>
        <time>2014-09-22T14:58:35Z</time>
      </trkpt>
      <trkpt lat="47.50489" lon="-0.56268">
        <ele>21.29</ele>
        <time>2014-09-22T14:58:39Z</time>
      </trkpt>
      <trkpt lat="47.50504" lon="-0.56281">
        <ele>21.29</ele>
        <time>2014-09-22T14:58:42Z</time>
      </trkpt>
      <trkpt lat="47.50526" lon="-0.56329">
        <ele>21.77</ele>
        <time>2014-09-22T14:58:49Z</time>
      </trkpt>
      <trkpt lat="47.50548" lon="-0.56373">
        <ele>21.77</ele>
        <time>2014-09-22T14:58:55Z</time>
      </trkpt>
      <trkpt lat="47.50588" lon="-0.56422">
        <ele>22.25</ele>
        <time>2014-09-22T14:59:03Z</time>
      </trkpt>
      <trkpt lat="47.50599" lon="-0.56433">
        <ele>22.25</ele>
        <time>2014-09-22T14:59:05Z</time>
      </trkpt>
      <trkpt lat="47.50644" lon="-0.56458">
        <ele>21.77</ele>
        <time>2014-09-22T14:59:12Z</time>
      </trkpt>
      <trkpt lat="47.5065" lon="-0.56461">
        <ele>21.77</ele>
        <time>2014-09-22T14:59:13Z</time>
      </trkpt>
      <trkpt lat="47.50699" lon="-0.56479">
        <ele>21.77</ele>
        <time>2014-09-22T14:59:21Z</time>
      </trkpt>
      <trkpt lat="47.50728" lon="-0.5648">
        <ele>21.77</ele>
        <time>2014-09-22T14:59:26Z</time>
      </trkpt>
      <trkpt lat="47.5075" lon="-0.56467">
        <ele>21.77</ele>
        <time>2014-09-22T14:59:30Z</time>
      </trkpt>
      <trkpt lat="47.50794" lon="-0.56458">
        <ele>21.29</ele>
        <time>2014-09-22T14:59:37Z</time>
      </trkpt>
      <trkpt lat="47.50867" lon="-0.5643">
        <ele>22.73</ele>
        <time>2014-09-22T14:59:48Z</time>
      </trkpt>
      <trkpt lat="47.50915" lon="-0.56394">
        <ele>21.77</ele>
        <time>2014-09-22T14:59:56Z</time>
      </trkpt>
      <trkpt lat="47.5093" lon="-0.56376">
        <ele>22.25</ele>
        <time>2014-09-22T14:59:59Z</time>
      </trkpt>
      <trkpt lat="47.50941" lon="-0.56364">
        <ele>21.77</ele>
        <time>2014-09-22T15:00:01Z</time>
      </trkpt>
      <trkpt lat="47.50983" lon="-0.56319">
        <ele>21.77</ele>
        <time>2014-09-22T15:00:09Z</time>
      </trkpt>
      <trkpt lat="47.51025" lon="-0.56293">
        <ele>21.77</ele>
        <time>2014-09-22T15:00:16Z</time>
      </trkpt>
      <trkpt lat="47.51065" lon="-0.56281">
        <ele>22.25</ele>
        <time>2014-09-22T15:00:22Z</time>
      </trkpt>
      <trkpt lat="47.51133" lon="-0.56279">
        <ele>22.25</ele>
        <time>2014-09-22T15:00:32Z</time>
      </trkpt>
      <trkpt lat="47.5118" lon="-0.56287">
        <ele>22.25</ele>
        <time>2014-09-22T15:00:39Z</time>
      </trkpt>
      <trkpt lat="47.51239" lon="-0.56298">
        <ele>22.25</ele>
        <time>2014-09-22T15:00:48Z</time>
      </trkpt>
      <trkpt lat="47.51285" lon="-0.56309">
        <ele>22.25</ele>
        <time>2014-09-22T15:00:55Z</time>
      </trkpt>
      <trkpt lat="47.51337" lon="-0.56318">
        <ele>22.25</ele>
        <time>2014-09-22T15:01:03Z</time>
      </trkpt>
      <trkpt lat="47.51389" lon="-0.5633">
        <ele>22.25</ele>
        <time>2014-09-22T15:01:11Z</time>
      </trkpt>
      <trkpt lat="47.51434" lon="-0.56342">
        <ele>22.73</ele>
        <time>2014-09-22T15:01:18Z</time>
      </trkpt>
      <trkpt lat="47.51458" lon="-0.56344">
        <ele>22.25</ele>
        <time>2014-09-22T15:01:22Z</time>
      </trkpt>
      <trkpt lat="47.51508" lon="-0.56356">
        <ele>22.25</ele>
        <time>2014-09-22T15:01:30Z</time>
      </trkpt>
      <trkpt lat="47.51533" lon="-0.56364">
        <ele>22.25</ele>
        <time>2014-09-22T15:01:34Z</time>
      </trkpt>
      <trkpt lat="47.51592" lon="-0.56401">
        <ele>22.73</ele>
        <time>2014-09-22T15:01:44Z</time>
      </trkpt>
      <trkpt lat="47.51607" lon="-0.56415">
        <ele>22.73</ele>
        <time>2014-09-22T15:01:47Z</time>
      </trkpt>
      <trkpt lat="47.51629" lon="-0.56426">
        <ele>23.21</ele>
        <time>2014-09-22T15:01:51Z</time>
      </trkpt>
      <trkpt lat="47.51666" lon="-0.56432">
        <ele>21.77</ele>
        <time>2014-09-22T15:01:57Z</time>
      </trkpt>
      <trkpt lat="47.51679" lon="-0.56433">
        <ele>22.73</ele>
        <time>2014-09-22T15:01:59Z</time>
      </trkpt>
      <trkpt lat="47.51703" lon="-0.56435">
        <ele>22.25</ele>
        <time>2014-09-22T15:02:03Z</time>
      </trkpt>
      <trkpt lat="47.51753" lon="-0.56437">
        <ele>22.25</ele>
        <time>2014-09-22T15:02:11Z</time>
      </trkpt>
      <trkpt lat="47.51759" lon="-0.56438">
        <ele>22.25</ele>
        <time>2014-09-22T15:02:12Z</time>
      </trkpt>
      <trkpt lat="47.51784" lon="-0.56433">
        <ele>22.25</ele>
        <time>2014-09-22T15:02:16Z</time>
      </trkpt>
      <trkpt lat="47.51849" lon="-0.56422">
        <ele>22.25</ele>
        <time>2014-09-22T15:02:26Z</time>
      </trkpt>
      <trkpt lat="47.51861" lon="-0.56421">
        <ele>22.25</ele>
        <time>2014-09-22T15:02:28Z</time>
      </trkpt>
      <trkpt lat="47.51926" lon="-0.56432">
        <ele>21.77</ele>
        <time>2014-09-22T15:02:38Z</time>
      </trkpt>
      <trkpt lat="47.51944" lon="-0.56435">
        <ele>22.25</ele>
        <time>2014-09-22T15:02:41Z</time>
      </trkpt>
      <trkpt lat="47.51962" lon="-0.56442">
        <ele>21.77</ele>
        <time>2014-09-22T15:02:44Z</time>
      </trkpt>
      <trkpt lat="47.51997" lon="-0.56467">
        <ele>22.25</ele>
        <time>2014-09-22T15:02:50Z</time>
      </trkpt>
      <trkpt lat="47.52045" lon="-0.56493">
        <ele>22.25</ele>
        <time>2014-09-22T15:02:58Z</time>
      </trkpt>
      <trkpt lat="47.52093" lon="-0.56521">
        <ele>22.25</ele>
        <time>2014-09-22T15:03:06Z</time>
      </trkpt>
      <trkpt lat="47.52135" lon="-0.56542">
        <ele>21.77</ele>
        <time>2014-09-22T15:03:13Z</time>
      </trkpt>
      <trkpt lat="47.52182" lon="-0.56573">
        <ele>21.77</ele>
        <time>2014-09-22T15:03:21Z</time>
      </trkpt>
      <trkpt lat="47.52225" lon="-0.5661">
        <ele>21.77</ele>
        <time>2014-09-22T15:03:29Z</time>
      </trkpt>
      <trkpt lat="47.52235" lon="-0.56619">
        <ele>21.77</ele>
        <time>2014-09-22T15:03:31Z</time>
      </trkpt>
      <trkpt lat="47.52282" lon="-0.56668">
        <ele>22.73</ele>
        <time>2014-09-22T15:03:40Z</time>
      </trkpt>
      <trkpt lat="47.52316" lon="-0.56708">
        <ele>22.25</ele>
        <time>2014-09-22T15:03:47Z</time>
      </trkpt>
      <trkpt lat="47.52343" lon="-0.56746">
        <ele>22.73</ele>
        <time>2014-09-22T15:03:53Z</time>
      </trkpt>
      <trkpt lat="47.52363" lon="-0.56764">
        <ele>22.25</ele>
        <time>2014-09-22T15:03:57Z</time>
      </trkpt>
      <trkpt lat="47.52399" lon="-0.56808">
        <ele>22.25</ele>
        <time>2014-09-22T15:04:05Z</time>
      </trkpt>
      <trkpt lat="47.52423" lon="-0.56839">
        <ele>24.17</ele>
        <time>2014-09-22T15:04:11Z</time>
      </trkpt>
      <trkpt lat="47.52438" lon="-0.56862">
        <ele>25.13</ele>
        <time>2014-09-22T15:04:17Z</time>
      </trkpt>
      <trkpt lat="47.5244" lon="-0.56865">
        <ele>25.13</ele>
        <time>2014-09-22T15:04:22Z</time>
      </trkpt>
      <trkpt lat="47.5244" lon="-0.56865">
        <ele>25.13</ele>
        <time>2014-09-22T15:04:24Z</time>
      </trkpt>
      <trkpt lat="47.52436" lon="-0.56881">
        <ele>25.13</ele>
        <time>2014-09-22T15:04:29Z</time>
      </trkpt>
      <trkpt lat="47.52427" lon="-0.56894">
        <ele>25.13</ele>
        <time>2014-09-22T15:04:32Z</time>
      </trkpt>
      <trkpt lat="47.52421" lon="-0.56909">
        <ele>24.65</ele>
        <time>2014-09-22T15:04:35Z</time>
      </trkpt>
      <trkpt lat="47.52428" lon="-0.56921">
        <ele>23.69</ele>
        <time>2014-09-22T15:04:40Z</time>
      </trkpt>
      <trkpt lat="47.52431" lon="-0.56925">
        <ele>23.69</ele>
        <time>2014-09-22T15:04:41Z</time>
      </trkpt>
      <trkpt lat="47.52469" lon="-0.5697">
        <ele>22.25</ele>
        <time>2014-09-22T15:04:50Z</time>
      </trkpt>
      <trkpt lat="47.5248" lon="-0.56982">
        <ele>22.25</ele>
        <time>2014-09-22T15:04:52Z</time>
      </trkpt>
      <trkpt lat="47.52504" lon="-0.57024">
        <ele>21.77</ele>
        <time>2014-09-22T15:04:58Z</time>
      </trkpt>
      <trkpt lat="47.52529" lon="-0.57056">
        <ele>22.25</ele>
        <time>2014-09-22T15:05:03Z</time>
      </trkpt>
      <trkpt lat="47.52564" lon="-0.5711">
        <ele>21.77</ele>
        <time>2014-09-22T15:05:11Z</time>
      </trkpt>
      <trkpt lat="47.52596" lon="-0.57154">
        <ele>21.77</ele>
        <time>2014-09-22T15:05:18Z</time>
      </trkpt>
      <trkpt lat="47.52628" lon="-0.57194">
        <ele>22.25</ele>
        <time>2014-09-22T15:05:25Z</time>
      </trkpt>
      <trkpt lat="47.52647" lon="-0.57212">
        <ele>22.25</ele>
        <time>2014-09-22T15:05:29Z</time>
      </trkpt>
      <trkpt lat="47.52674" lon="-0.57244">
        <ele>22.25</ele>
        <time>2014-09-22T15:05:35Z</time>
      </trkpt>
      <trkpt lat="47.52706" lon="-0.57285">
        <ele>21.77</ele>
        <time>2014-09-22T15:05:42Z</time>
      </trkpt>
      <trkpt lat="47.52732" lon="-0.57329">
        <ele>22.25</ele>
        <time>2014-09-22T15:05:48Z</time>
      </trkpt>
      <trkpt lat="47.52765" lon="-0.5739">
        <ele>21.77</ele>
        <time>2014-09-22T15:05:56Z</time>
      </trkpt>
      <trkpt lat="47.52794" lon="-0.57445">
        <ele>22.25</ele>
        <time>2014-09-22T15:06:03Z</time>
      </trkpt>
      <trkpt lat="47.52811" lon="-0.57475">
        <ele>22.73</ele>
        <time>2014-09-22T15:06:07Z</time>
      </trkpt>
      <trkpt lat="47.52819" lon="-0.57489">
        <ele>21.77</ele>
        <time>2014-09-22T15:06:09Z</time>
      </trkpt>
      <trkpt lat="47.52851" lon="-0.57546">
        <ele>22.25</ele>
        <time>2014-09-22T15:06:17Z</time>
      </trkpt>
      <trkpt lat="47.52858" lon="-0.5756">
        <ele>22.25</ele>
        <time>2014-09-22T15:06:19Z</time>
      </trkpt>
      <trkpt lat="47.52867" lon="-0.57585">
        <ele>21.77</ele>
        <time>2014-09-22T15:06:22Z</time>
      </trkpt>
      <trkpt lat="47.52899" lon="-0.57631">
        <ele>22.25</ele>
        <time>2014-09-22T15:06:29Z</time>
      </trkpt>
      <trkpt lat="47.52908" lon="-0.57646">
        <ele>21.77</ele>
        <time>2014-09-22T15:06:31Z</time>
      </trkpt>
      <trkpt lat="47.52929" lon="-0.57717">
        <ele>21.77</ele>
        <time>2014-09-22T15:06:39Z</time>
      </trkpt>
      <trkpt lat="47.52933" lon="-0.57736">
        <ele>21.77</ele>
        <time>2014-09-22T15:06:41Z</time>
      </trkpt>
      <trkpt lat="47.52951" lon="-0.57812">
        <ele>21.77</ele>
        <time>2014-09-22T15:06:49Z</time>
      </trkpt>
      <trkpt lat="47.5297" lon="-0.57862">
        <ele>21.77</ele>
        <time>2014-09-22T15:06:55Z</time>
      </trkpt>
      <trkpt lat="47.52978" lon="-0.57877">
        <ele>21.29</ele>
        <time>2014-09-22T15:06:57Z</time>
      </trkpt>
      <trkpt lat="47.53002" lon="-0.57936">
        <ele>21.29</ele>
        <time>2014-09-22T15:07:05Z</time>
      </trkpt>
      <trkpt lat="47.53015" lon="-0.57964">
        <ele>21.29</ele>
        <time>2014-09-22T15:07:09Z</time>
      </trkpt>
      <trkpt lat="47.53024" lon="-0.57995">
        <ele>21.77</ele>
        <time>2014-09-22T15:07:13Z</time>
      </trkpt>
      <trkpt lat="47.53029" lon="-0.58029">
        <ele>20.81</ele>
        <time>2014-09-22T15:07:18Z</time>
      </trkpt>
      <trkpt lat="47.5302" lon="-0.58045">
        <ele>21.77</ele>
        <time>2014-09-22T15:07:22Z</time>
      </trkpt>
      <trkpt lat="47.53013" lon="-0.58053">
        <ele>21.77</ele>
        <time>2014-09-22T15:07:24Z</time>
      </trkpt>
      <trkpt lat="47.52972" lon="-0.58091">
        <ele>21.77</ele>
        <time>2014-09-22T15:07:33Z</time>
      </trkpt>
      <trkpt lat="47.5294" lon="-0.58121">
        <ele>22.73</ele>
        <time>2014-09-22T15:07:40Z</time>
      </trkpt>
      <trkpt lat="47.52903" lon="-0.58156">
        <ele>22.73</ele>
        <time>2014-09-22T15:07:48Z</time>
      </trkpt>
      <trkpt lat="47.52872" lon="-0.58186">
        <ele>22.73</ele>
        <time>2014-09-22T15:07:55Z</time>
      </trkpt>
      <trkpt lat="47.52864" lon="-0.58196">
        <ele>22.73</ele>
        <time>2014-09-22T15:08:00Z</time>
      </trkpt>
      <trkpt lat="47.52864" lon="-0.58196">
        <ele>23.21</ele>
        <time>2014-09-22T15:08:05Z</time>
      </trkpt>
      <trkpt lat="47.52851" lon="-0.58205">
        <ele>23.21</ele>
        <time>2014-09-22T15:08:12Z</time>
      </trkpt>
      <trkpt lat="47.52835" lon="-0.58212">
        <ele>23.69</ele>
        <time>2014-09-22T15:08:17Z</time>
      </trkpt>
      <trkpt lat="47.52808" lon="-0.58228">
        <ele>23.21</ele>
        <time>2014-09-22T15:08:23Z</time>
      </trkpt>
      <trkpt lat="47.52766" lon="-0.58252">
        <ele>23.69</ele>
        <time>2014-09-22T15:08:31Z</time>
      </trkpt>
      <trkpt lat="47.52723" lon="-0.58279">
        <ele>23.69</ele>
        <time>2014-09-22T15:08:39Z</time>
      </trkpt>
      <trkpt lat="47.52682" lon="-0.58309">
        <ele>24.17</ele>
        <time>2014-09-22T15:08:47Z</time>
      </trkpt>
      <trkpt lat="47.52642" lon="-0.58335">
        <ele>24.65</ele>
        <time>2014-09-22T15:08:55Z</time>
      </trkpt>
      <trkpt lat="47.52605" lon="-0.58356">
        <ele>24.65</ele>
        <time>2014-09-22T15:09:02Z</time>
      </trkpt>
      <trkpt lat="47.52579" lon="-0.58371">
        <ele>24.17</ele>
        <time>2014-09-22T15:09:07Z</time>
      </trkpt>
      <trkpt lat="47.52564" lon="-0.58394">
        <ele>24.17</ele>
        <time>2014-09-22T15:09:12Z</time>
      </trkpt>
      <trkpt lat="47.52572" lon="-0.58414">
        <ele>24.65</ele>
        <time>2014-09-22T15:09:15Z</time>
      </trkpt>
      <trkpt lat="47.52579" lon="-0.58435">
        <ele>24.17</ele>
        <time>2014-09-22T15:09:18Z</time>
      </trkpt>
      <trkpt lat="47.52591" lon="-0.58473">
        <ele>23.69</ele>
        <time>2014-09-22T15:09:24Z</time>
      </trkpt>
      <trkpt lat="47.52583" lon="-0.58549">
        <ele>24.65</ele>
        <time>2014-09-22T15:09:33Z</time>
      </trkpt>
      <trkpt lat="47.5258" lon="-0.58592">
        <ele>25.13</ele>
        <time>2014-09-22T15:09:38Z</time>
      </trkpt>
      <trkpt lat="47.52579" lon="-0.58609">
        <ele>24.65</ele>
        <time>2014-09-22T15:09:40Z</time>
      </trkpt>
      <trkpt lat="47.52577" lon="-0.58647">
        <ele>24.65</ele>
        <time>2014-09-22T15:09:45Z</time>
      </trkpt>
      <trkpt lat="47.52576" lon="-0.58688">
        <ele>25.61</ele>
        <time>2014-09-22T15:09:50Z</time>
      </trkpt>
      <trkpt lat="47.52574" lon="-0.58714">
        <ele>25.13</ele>
        <time>2014-09-22T15:09:53Z</time>
      </trkpt>
      <trkpt lat="47.52568" lon="-0.58758">
        <ele>25.61</ele>
        <time>2014-09-22T15:09:58Z</time>
      </trkpt>
      <trkpt lat="47.52561" lon="-0.58814">
        <ele>26.09</ele>
        <time>2014-09-22T15:10:05Z</time>
      </trkpt>
      <trkpt lat="47.52558" lon="-0.58829">
        <ele>26.09</ele>
        <time>2014-09-22T15:10:07Z</time>
      </trkpt>
      <trkpt lat="47.52546" lon="-0.58885">
        <ele>26.09</ele>
        <time>2014-09-22T15:10:14Z</time>
      </trkpt>
      <trkpt lat="47.5253" lon="-0.58891">
        <ele>26.09</ele>
        <time>2014-09-22T15:10:18Z</time>
      </trkpt>
      <trkpt lat="47.52494" lon="-0.58883">
        <ele>26.57</ele>
        <time>2014-09-22T15:10:25Z</time>
      </trkpt>
      <trkpt lat="47.52467" lon="-0.58875">
        <ele>27.53</ele>
        <time>2014-09-22T15:10:30Z</time>
      </trkpt>
      <trkpt lat="47.52446" lon="-0.5887">
        <ele>28.02</ele>
        <time>2014-09-22T15:10:34Z</time>
      </trkpt>
      <trkpt lat="47.52427" lon="-0.5886">
        <ele>28.02</ele>
        <time>2014-09-22T15:10:38Z</time>
      </trkpt>
      <trkpt lat="47.52393" lon="-0.58841">
        <ele>28.5</ele>
        <time>2014-09-22T15:10:45Z</time>
      </trkpt>
      <trkpt lat="47.52355" lon="-0.58818">
        <ele>28.02</ele>
        <time>2014-09-22T15:10:52Z</time>
      </trkpt>
      <trkpt lat="47.5235" lon="-0.58814">
        <ele>28.02</ele>
        <time>2014-09-22T15:10:53Z</time>
      </trkpt>
      <trkpt lat="47.52323" lon="-0.588">
        <ele>28.5</ele>
        <time>2014-09-22T15:10:58Z</time>
      </trkpt>
      <trkpt lat="47.52309" lon="-0.58788">
        <ele>28.98</ele>
        <time>2014-09-22T15:11:01Z</time>
      </trkpt>
      <trkpt lat="47.52288" lon="-0.58765">
        <ele>30.9</ele>
        <time>2014-09-22T15:11:07Z</time>
      </trkpt>
      <trkpt lat="47.52261" lon="-0.58738">
        <ele>31.86</ele>
        <time>2014-09-22T15:11:15Z</time>
      </trkpt>
      <trkpt lat="47.52239" lon="-0.58719">
        <ele>32.34</ele>
        <time>2014-09-22T15:11:21Z</time>
      </trkpt>
      <trkpt lat="47.52225" lon="-0.58709">
        <ele>32.34</ele>
        <time>2014-09-22T15:11:24Z</time>
      </trkpt>
      <trkpt lat="47.52197" lon="-0.58683">
        <ele>32.34</ele>
        <time>2014-09-22T15:11:30Z</time>
      </trkpt>
      <trkpt lat="47.52167" lon="-0.58663">
        <ele>32.34</ele>
        <time>2014-09-22T15:11:36Z</time>
      </trkpt>
      <trkpt lat="47.52141" lon="-0.58653">
        <ele>32.82</ele>
        <time>2014-09-22T15:11:41Z</time>
      </trkpt>
      <trkpt lat="47.5213" lon="-0.58653">
        <ele>32.82</ele>
        <time>2014-09-22T15:11:43Z</time>
      </trkpt>
      <trkpt lat="47.5212" lon="-0.58651">
        <ele>32.34</ele>
        <time>2014-09-22T15:11:45Z</time>
      </trkpt>
      <trkpt lat="47.52094" lon="-0.58643">
        <ele>32.82</ele>
        <time>2014-09-22T15:11:50Z</time>
      </trkpt>
      <trkpt lat="47.52084" lon="-0.58638">
        <ele>32.34</ele>
        <time>2014-09-22T15:11:52Z</time>
      </trkpt>
      <trkpt lat="47.52052" lon="-0.58605">
        <ele>33.3</ele>
        <time>2014-09-22T15:12:00Z</time>
      </trkpt>
      <trkpt lat="47.52047" lon="-0.58597">
        <ele>33.3</ele>
        <time>2014-09-22T15:12:05Z</time>
      </trkpt>
      <trkpt lat="47.52044" lon="-0.58597">
        <ele>32.82</ele>
        <time>2014-09-22T15:12:10Z</time>
      </trkpt>
      <trkpt lat="47.52044" lon="-0.58597">
        <ele>32.82</ele>
        <time>2014-09-22T15:12:30Z</time>
      </trkpt>
      <trkpt lat="47.52044" lon="-0.58596">
        <ele>32.82</ele>
        <time>2014-09-22T15:12:57Z</time>
      </trkpt>
      <trkpt lat="47.52044" lon="-0.58596">
        <ele>32.82</ele>
        <time>2014-09-22T15:13:18Z</time>
      </trkpt>
      <trkpt lat="47.52044" lon="-0.58596">
        <ele>32.82</ele>
        <time>2014-09-22T15:13:38Z</time>
      </trkpt>
      <trkpt lat="47.52044" lon="-0.58596">
        <ele>32.82</ele>
        <time>2014-09-22T15:13:58Z</time>
      </trkpt>
      <trkpt lat="47.52044" lon="-0.58596">
        <ele>32.34</ele>
        <time>2014-09-22T15:14:16Z</time>
      </trkpt>
      <trkpt lat="47.52044" lon="-0.58596">
        <ele>32.82</ele>
        <time>2014-09-22T15:14:38Z</time>
      </trkpt>
      <trkpt lat="47.52044" lon="-0.58596">
        <ele>32.34</ele>
        <time>2014-09-22T15:15:00Z</time>
      </trkpt>
      <trkpt lat="47.52044" lon="-0.58596">
        <ele>33.3</ele>
        <time>2014-09-22T15:15:23Z</time>
      </trkpt>
      <trkpt lat="47.52043" lon="-0.58596">
        <ele>32.82</ele>
        <time>2014-09-22T15:15:45Z</time>
      </trkpt>
      <trkpt lat="47.5204" lon="-0.58595">
        <ele>32.82</ele>
        <time>2014-09-22T15:15:49Z</time>
      </trkpt>
      <trkpt lat="47.52034" lon="-0.58606">
        <ele>32.82</ele>
        <time>2014-09-22T15:15:54Z</time>
      </trkpt>
      <trkpt lat="47.5202" lon="-0.5864">
        <ele>33.3</ele>
        <time>2014-09-22T15:16:01Z</time>
      </trkpt>
      <trkpt lat="47.52018" lon="-0.58647">
        <ele>33.78</ele>
        <time>2014-09-22T15:16:02Z</time>
      </trkpt>
      <trkpt lat="47.51997" lon="-0.58698">
        <ele>35.23</ele>
        <time>2014-09-22T15:16:09Z</time>
      </trkpt>
      <trkpt lat="47.51994" lon="-0.58706">
        <ele>35.23</ele>
        <time>2014-09-22T15:16:10Z</time>
      </trkpt>
      <trkpt lat="47.51977" lon="-0.58726">
        <ele>35.71</ele>
        <time>2014-09-22T15:16:14Z</time>
      </trkpt>
      <trkpt lat="47.51956" lon="-0.5874">
        <ele>36.19</ele>
        <time>2014-09-22T15:16:18Z</time>
      </trkpt>
      <trkpt lat="47.51943" lon="-0.58751">
        <ele>36.67</ele>
        <time>2014-09-22T15:16:21Z</time>
      </trkpt>
      <trkpt lat="47.51921" lon="-0.58768">
        <ele>38.11</ele>
        <time>2014-09-22T15:16:27Z</time>
      </trkpt>
      <trkpt lat="47.519" lon="-0.58775">
        <ele>38.59</ele>
        <time>2014-09-22T15:16:32Z</time>
      </trkpt>
      <trkpt lat="47.51864" lon="-0.58777">
        <ele>40.03</ele>
        <time>2014-09-22T15:16:41Z</time>
      </trkpt>
      <trkpt lat="47.51842" lon="-0.58776">
        <ele>40.51</ele>
        <time>2014-09-22T15:16:47Z</time>
      </trkpt>
      <trkpt lat="47.5183" lon="-0.58774">
        <ele>40.99</ele>
        <time>2014-09-22T15:16:50Z</time>
      </trkpt>
      <trkpt lat="47.51789" lon="-0.58772">
        <ele>40.51</ele>
        <time>2014-09-22T15:16:59Z</time>
      </trkpt>
      <trkpt lat="47.51758" lon="-0.58777">
        <ele>40.51</ele>
        <time>2014-09-22T15:17:05Z</time>
      </trkpt>
      <trkpt lat="47.51722" lon="-0.58786">
        <ele>40.99</ele>
        <time>2014-09-22T15:17:12Z</time>
      </trkpt>
      <trkpt lat="47.51703" lon="-0.58782">
        <ele>41.95</ele>
        <time>2014-09-22T15:17:16Z</time>
      </trkpt>
      <trkpt lat="47.5166" lon="-0.58774">
        <ele>43.4</ele>
        <time>2014-09-22T15:17:25Z</time>
      </trkpt>
      <trkpt lat="47.51656" lon="-0.58772">
        <ele>43.4</ele>
        <time>2014-09-22T15:17:26Z</time>
      </trkpt>
      <trkpt lat="47.51636" lon="-0.58759">
        <ele>43.88</ele>
        <time>2014-09-22T15:17:31Z</time>
      </trkpt>
      <trkpt lat="47.5163" lon="-0.58751">
        <ele>43.88</ele>
        <time>2014-09-22T15:17:33Z</time>
      </trkpt>
      <trkpt lat="47.51618" lon="-0.58754">
        <ele>44.36</ele>
        <time>2014-09-22T15:17:38Z</time>
      </trkpt>
      <trkpt lat="47.51618" lon="-0.58757">
        <ele>44.84</ele>
        <time>2014-09-22T15:17:39Z</time>
      </trkpt>
      <trkpt lat="47.51622" lon="-0.58787">
        <ele>45.8</ele>
        <time>2014-09-22T15:17:46Z</time>
      </trkpt>
      <trkpt lat="47.51625" lon="-0.58826">
        <ele>46.76</ele>
        <time>2014-09-22T15:17:53Z</time>
      </trkpt>
      <trkpt lat="47.51627" lon="-0.58861">
        <ele>46.76</ele>
        <time>2014-09-22T15:17:59Z</time>
      </trkpt>
      <trkpt lat="47.5163" lon="-0.589">
        <ele>47.72</ele>
        <time>2014-09-22T15:18:04Z</time>
      </trkpt>
      <trkpt lat="47.51631" lon="-0.58928">
        <ele>48.2</ele>
        <time>2014-09-22T15:18:08Z</time>
      </trkpt>
      <trkpt lat="47.5163" lon="-0.58956">
        <ele>48.68</ele>
        <time>2014-09-22T15:18:12Z</time>
      </trkpt>
      <trkpt lat="47.51634" lon="-0.58982">
        <ele>48.68</ele>
        <time>2014-09-22T15:18:16Z</time>
      </trkpt>
      <trkpt lat="47.51642" lon="-0.59013">
        <ele>49.16</ele>
        <time>2014-09-22T15:18:21Z</time>
      </trkpt>
      <trkpt lat="47.51644" lon="-0.59028">
        <ele>49.65</ele>
        <time>2014-09-22T15:18:23Z</time>
      </trkpt>
      <trkpt lat="47.51657" lon="-0.59088">
        <ele>50.13</ele>
        <time>2014-09-22T15:18:32Z</time>
      </trkpt>
      <trkpt lat="47.51661" lon="-0.59109">
        <ele>50.13</ele>
        <time>2014-09-22T15:18:35Z</time>
      </trkpt>
      <trkpt lat="47.51675" lon="-0.59132">
        <ele>49.16</ele>
        <time>2014-09-22T15:18:39Z</time>
      </trkpt>
      <trkpt lat="47.51695" lon="-0.59161">
        <ele>48.68</ele>
        <time>2014-09-22T15:18:44Z</time>
      </trkpt>
      <trkpt lat="47.51701" lon="-0.59175">
        <ele>48.2</ele>
        <time>2014-09-22T15:18:46Z</time>
      </trkpt>
      <trkpt lat="47.51737" lon="-0.59226">
        <ele>45.32</ele>
        <time>2014-09-22T15:18:53Z</time>
      </trkpt>
      <trkpt lat="47.51748" lon="-0.59243">
        <ele>44.36</ele>
        <time>2014-09-22T15:18:55Z</time>
      </trkpt>
      <trkpt lat="47.51793" lon="-0.59301">
        <ele>41.47</ele>
        <time>2014-09-22T15:19:02Z</time>
      </trkpt>
      <trkpt lat="47.51817" lon="-0.59323">
        <ele>40.03</ele>
        <time>2014-09-22T15:19:05Z</time>
      </trkpt>
      <trkpt lat="47.51848" lon="-0.59371">
        <ele>37.63</ele>
        <time>2014-09-22T15:19:10Z</time>
      </trkpt>
      <trkpt lat="47.51882" lon="-0.59412">
        <ele>36.67</ele>
        <time>2014-09-22T15:19:15Z</time>
      </trkpt>
      <trkpt lat="47.51938" lon="-0.59477">
        <ele>35.23</ele>
        <time>2014-09-22T15:19:23Z</time>
      </trkpt>
      <trkpt lat="47.51958" lon="-0.59503">
        <ele>34.74</ele>
        <time>2014-09-22T15:19:26Z</time>
      </trkpt>
      <trkpt lat="47.51977" lon="-0.59543">
        <ele>34.26</ele>
        <time>2014-09-22T15:19:30Z</time>
      </trkpt>
      <trkpt lat="47.52012" lon="-0.59587">
        <ele>34.26</ele>
        <time>2014-09-22T15:19:36Z</time>
      </trkpt>
      <trkpt lat="47.52036" lon="-0.59641">
        <ele>34.74</ele>
        <time>2014-09-22T15:19:42Z</time>
      </trkpt>
      <trkpt lat="47.52068" lon="-0.59688">
        <ele>35.71</ele>
        <time>2014-09-22T15:19:49Z</time>
      </trkpt>
      <trkpt lat="47.52104" lon="-0.59723">
        <ele>36.19</ele>
        <time>2014-09-22T15:19:56Z</time>
      </trkpt>
      <trkpt lat="47.52127" lon="-0.59751">
        <ele>37.63</ele>
        <time>2014-09-22T15:20:02Z</time>
      </trkpt>
      <trkpt lat="47.52153" lon="-0.59784">
        <ele>39.55</ele>
        <time>2014-09-22T15:20:10Z</time>
      </trkpt>
      <trkpt lat="47.5217" lon="-0.59808">
        <ele>40.99</ele>
        <time>2014-09-22T15:20:16Z</time>
      </trkpt>
      <trkpt lat="47.52183" lon="-0.59832">
        <ele>41.95</ele>
        <time>2014-09-22T15:20:22Z</time>
      </trkpt>
      <trkpt lat="47.52192" lon="-0.59865">
        <ele>43.4</ele>
        <time>2014-09-22T15:20:29Z</time>
      </trkpt>
      <trkpt lat="47.52204" lon="-0.59889">
        <ele>43.4</ele>
        <time>2014-09-22T15:20:35Z</time>
      </trkpt>
      <trkpt lat="47.52218" lon="-0.59915">
        <ele>44.84</ele>
        <time>2014-09-22T15:20:41Z</time>
      </trkpt>
      <trkpt lat="47.5223" lon="-0.59942">
        <ele>45.32</ele>
        <time>2014-09-22T15:20:47Z</time>
      </trkpt>
      <trkpt lat="47.52238" lon="-0.59959">
        <ele>44.84</ele>
        <time>2014-09-22T15:20:50Z</time>
      </trkpt>
      <trkpt lat="47.52248" lon="-0.59983">
        <ele>44.84</ele>
        <time>2014-09-22T15:20:54Z</time>
      </trkpt>
      <trkpt lat="47.52266" lon="-0.60052">
        <ele>45.8</ele>
        <time>2014-09-22T15:21:04Z</time>
      </trkpt>
      <trkpt lat="47.52273" lon="-0.60072">
        <ele>45.32</ele>
        <time>2014-09-22T15:21:07Z</time>
      </trkpt>
      <trkpt lat="47.52292" lon="-0.60123">
        <ele>46.28</ele>
        <time>2014-09-22T15:21:15Z</time>
      </trkpt>
      <trkpt lat="47.52298" lon="-0.60134">
        <ele>46.28</ele>
        <time>2014-09-22T15:21:17Z</time>
      </trkpt>
      <trkpt lat="47.52301" lon="-0.6014">
        <ele>45.8</ele>
        <time>2014-09-22T15:21:18Z</time>
      </trkpt>
      <trkpt lat="47.52306" lon="-0.60153">
        <ele>46.28</ele>
        <time>2014-09-22T15:21:20Z</time>
      </trkpt>
      <trkpt lat="47.52332" lon="-0.6022">
        <ele>46.76</ele>
        <time>2014-09-22T15:21:30Z</time>
      </trkpt>
      <trkpt lat="47.52351" lon="-0.60251">
        <ele>47.72</ele>
        <time>2014-09-22T15:21:36Z</time>
      </trkpt>
      <trkpt lat="47.52371" lon="-0.60277">
        <ele>48.2</ele>
        <time>2014-09-22T15:21:42Z</time>
      </trkpt>
      <trkpt lat="47.52375" lon="-0.6028">
        <ele>48.68</ele>
        <time>2014-09-22T15:21:43Z</time>
      </trkpt>
      <trkpt lat="47.52378" lon="-0.60282">
        <ele>48.2</ele>
        <time>2014-09-22T15:21:44Z</time>
      </trkpt>
      <trkpt lat="47.52382" lon="-0.60283">
        <ele>48.2</ele>
        <time>2014-09-22T15:21:45Z</time>
      </trkpt>
      <trkpt lat="47.52386" lon="-0.60283">
        <ele>48.68</ele>
        <time>2014-09-22T15:21:46Z</time>
      </trkpt>
      <trkpt lat="47.5239" lon="-0.60281">
        <ele>48.68</ele>
        <time>2014-09-22T15:21:47Z</time>
      </trkpt>
      <trkpt lat="47.52393" lon="-0.60278">
        <ele>49.16</ele>
        <time>2014-09-22T15:21:48Z</time>
      </trkpt>
      <trkpt lat="47.52397" lon="-0.60274">
        <ele>48.68</ele>
        <time>2014-09-22T15:21:49Z</time>
      </trkpt>
      <trkpt lat="47.524" lon="-0.60269">
        <ele>48.68</ele>
        <time>2014-09-22T15:21:50Z</time>
      </trkpt>
      <trkpt lat="47.52434" lon="-0.60235">
        <ele>49.16</ele>
        <time>2014-09-22T15:21:58Z</time>
      </trkpt>
      <trkpt lat="47.52474" lon="-0.60206">
        <ele>48.2</ele>
        <time>2014-09-22T15:22:06Z</time>
      </trkpt>
      <trkpt lat="47.52479" lon="-0.60204">
        <ele>48.68</ele>
        <time>2014-09-22T15:22:07Z</time>
      </trkpt>
      <trkpt lat="47.52485" lon="-0.60202">
        <ele>47.72</ele>
        <time>2014-09-22T15:22:08Z</time>
      </trkpt>
      <trkpt lat="47.5249" lon="-0.60201">
        <ele>48.2</ele>
        <time>2014-09-22T15:22:09Z</time>
      </trkpt>
      <trkpt lat="47.52495" lon="-0.602">
        <ele>47.72</ele>
        <time>2014-09-22T15:22:10Z</time>
      </trkpt>
      <trkpt lat="47.525" lon="-0.60199">
        <ele>47.72</ele>
        <time>2014-09-22T15:22:11Z</time>
      </trkpt>
      <trkpt lat="47.52503" lon="-0.60196">
        <ele>47.72</ele>
        <time>2014-09-22T15:22:12Z</time>
      </trkpt>
      <trkpt lat="47.52506" lon="-0.60192">
        <ele>47.72</ele>
        <time>2014-09-22T15:22:13Z</time>
      </trkpt>
      <trkpt lat="47.52509" lon="-0.60189">
        <ele>47.72</ele>
        <time>2014-09-22T15:22:14Z</time>
      </trkpt>
      <trkpt lat="47.52513" lon="-0.60189">
        <ele>47.24</ele>
        <time>2014-09-22T15:22:15Z</time>
      </trkpt>
      <trkpt lat="47.52518" lon="-0.6019">
        <ele>47.24</ele>
        <time>2014-09-22T15:22:16Z</time>
      </trkpt>
      <trkpt lat="47.52523" lon="-0.60191">
        <ele>47.72</ele>
        <time>2014-09-22T15:22:17Z</time>
      </trkpt>
      <trkpt lat="47.52528" lon="-0.60191">
        <ele>47.72</ele>
        <time>2014-09-22T15:22:18Z</time>
      </trkpt>
      <trkpt lat="47.52569" lon="-0.60188">
        <ele>47.72</ele>
        <time>2014-09-22T15:22:26Z</time>
      </trkpt>
      <trkpt lat="47.52614" lon="-0.60187">
        <ele>47.24</ele>
        <time>2014-09-22T15:22:34Z</time>
      </trkpt>
      <trkpt lat="47.52673" lon="-0.60175">
        <ele>46.28</ele>
        <time>2014-09-22T15:22:44Z</time>
      </trkpt>
      <trkpt lat="47.52713" lon="-0.60151">
        <ele>45.32</ele>
        <time>2014-09-22T15:22:51Z</time>
      </trkpt>
      <trkpt lat="47.52751" lon="-0.60108">
        <ele>43.88</ele>
        <time>2014-09-22T15:22:59Z</time>
      </trkpt>
      <trkpt lat="47.52782" lon="-0.60055">
        <ele>42.44</ele>
        <time>2014-09-22T15:23:07Z</time>
      </trkpt>
      <trkpt lat="47.52784" lon="-0.60047">
        <ele>42.44</ele>
        <time>2014-09-22T15:23:08Z</time>
      </trkpt>
      <trkpt lat="47.52786" lon="-0.6004">
        <ele>42.44</ele>
        <time>2014-09-22T15:23:09Z</time>
      </trkpt>
      <trkpt lat="47.52799" lon="-0.59985">
        <ele>40.99</ele>
        <time>2014-09-22T15:23:16Z</time>
      </trkpt>
      <trkpt lat="47.52801" lon="-0.59976">
        <ele>40.99</ele>
        <time>2014-09-22T15:23:17Z</time>
      </trkpt>
      <trkpt lat="47.52801" lon="-0.59909">
        <ele>40.03</ele>
        <time>2014-09-22T15:23:24Z</time>
      </trkpt>
      <trkpt lat="47.52786" lon="-0.59836">
        <ele>39.55</ele>
        <time>2014-09-22T15:23:32Z</time>
      </trkpt>
      <trkpt lat="47.52777" lon="-0.598">
        <ele>39.55</ele>
        <time>2014-09-22T15:23:36Z</time>
      </trkpt>
      <trkpt lat="47.52775" lon="-0.59782">
        <ele>39.55</ele>
        <time>2014-09-22T15:23:38Z</time>
      </trkpt>
      <trkpt lat="47.52769" lon="-0.59741">
        <ele>38.59</ele>
        <time>2014-09-22T15:23:43Z</time>
      </trkpt>
      <trkpt lat="47.52767" lon="-0.59697">
        <ele>38.59</ele>
        <time>2014-09-22T15:23:49Z</time>
      </trkpt>
      <trkpt lat="47.5277" lon="-0.59672">
        <ele>39.07</ele>
        <time>2014-09-22T15:23:53Z</time>
      </trkpt>
      <trkpt lat="47.52771" lon="-0.59666">
        <ele>39.55</ele>
        <time>2014-09-22T15:23:54Z</time>
      </trkpt>
      <trkpt lat="47.52781" lon="-0.59591">
        <ele>40.03</ele>
        <time>2014-09-22T15:24:05Z</time>
      </trkpt>
      <trkpt lat="47.52784" lon="-0.59577">
        <ele>40.03</ele>
        <time>2014-09-22T15:24:07Z</time>
      </trkpt>
      <trkpt lat="47.52786" lon="-0.59563">
        <ele>39.07</ele>
        <time>2014-09-22T15:24:09Z</time>
      </trkpt>
      <trkpt lat="47.52793" lon="-0.59545">
        <ele>39.55</ele>
        <time>2014-09-22T15:24:12Z</time>
      </trkpt>
      <trkpt lat="47.52805" lon="-0.59513">
        <ele>39.55</ele>
        <time>2014-09-22T15:24:17Z</time>
      </trkpt>
      <trkpt lat="47.52811" lon="-0.59503">
        <ele>39.07</ele>
        <time>2014-09-22T15:24:21Z</time>
      </trkpt>
      <trkpt lat="47.52811" lon="-0.59503">
        <ele>39.07</ele>
        <time>2014-09-22T15:24:30Z</time>
      </trkpt>
      <trkpt lat="47.52811" lon="-0.59503">
        <ele>38.59</ele>
        <time>2014-09-22T15:24:41Z</time>
      </trkpt>
      <trkpt lat="47.52811" lon="-0.59503">
        <ele>39.07</ele>
        <time>2014-09-22T15:24:54Z</time>
      </trkpt>
      <trkpt lat="47.52811" lon="-0.59503">
        <ele>39.07</ele>
        <time>2014-09-22T15:24:56Z</time>
      </trkpt>
      <trkpt lat="47.52814" lon="-0.59502">
        <ele>38.11</ele>
        <time>2014-09-22T15:25:03Z</time>
      </trkpt>
      <trkpt lat="47.52816" lon="-0.59501">
        <ele>38.11</ele>
        <time>2014-09-22T15:25:04Z</time>
      </trkpt>
      <trkpt lat="47.52833" lon="-0.59497">
        <ele>39.07</ele>
        <time>2014-09-22T15:25:09Z</time>
      </trkpt>
      <trkpt lat="47.52852" lon="-0.59501">
        <ele>39.07</ele>
        <time>2014-09-22T15:25:13Z</time>
      </trkpt>
      <trkpt lat="47.52897" lon="-0.59501">
        <ele>40.03</ele>
        <time>2014-09-22T15:25:21Z</time>
      </trkpt>
      <trkpt lat="47.5294" lon="-0.59492">
        <ele>38.59</ele>
        <time>2014-09-22T15:25:28Z</time>
      </trkpt>
      <trkpt lat="47.53005" lon="-0.59478">
        <ele>36.67</ele>
        <time>2014-09-22T15:25:37Z</time>
      </trkpt>
      <trkpt lat="47.53068" lon="-0.59479">
        <ele>34.74</ele>
        <time>2014-09-22T15:25:45Z</time>
      </trkpt>
      <trkpt lat="47.53097" lon="-0.59477">
        <ele>32.82</ele>
        <time>2014-09-22T15:25:50Z</time>
      </trkpt>
      <trkpt lat="47.531" lon="-0.59477">
        <ele>32.34</ele>
        <time>2014-09-22T15:25:51Z</time>
      </trkpt>
      <trkpt lat="47.53111" lon="-0.59494">
        <ele>32.82</ele>
        <time>2014-09-22T15:25:56Z</time>
      </trkpt>
      <trkpt lat="47.53117" lon="-0.59536">
        <ele>35.71</ele>
        <time>2014-09-22T15:26:04Z</time>
      </trkpt>
      <trkpt lat="47.53118" lon="-0.59549">
        <ele>36.19</ele>
        <time>2014-09-22T15:26:06Z</time>
      </trkpt>
      <trkpt lat="47.53118" lon="-0.59568">
        <ele>37.63</ele>
        <time>2014-09-22T15:26:09Z</time>
      </trkpt>
      <trkpt lat="47.53125" lon="-0.59607">
        <ele>38.59</ele>
        <time>2014-09-22T15:26:16Z</time>
      </trkpt>
      <trkpt lat="47.53138" lon="-0.59626">
        <ele>38.59</ele>
        <time>2014-09-22T15:26:21Z</time>
      </trkpt>
      <trkpt lat="47.53152" lon="-0.59633">
        <ele>36.67</ele>
        <time>2014-09-22T15:26:24Z</time>
      </trkpt>
      <trkpt lat="47.53171" lon="-0.59641">
        <ele>35.23</ele>
        <time>2014-09-22T15:26:27Z</time>
      </trkpt>
      <trkpt lat="47.53197" lon="-0.59661">
        <ele>32.34</ele>
        <time>2014-09-22T15:26:31Z</time>
      </trkpt>
      <trkpt lat="47.53223" lon="-0.59675">
        <ele>30.9</ele>
        <time>2014-09-22T15:26:35Z</time>
      </trkpt>
      <trkpt lat="47.5324" lon="-0.59675">
        <ele>29.46</ele>
        <time>2014-09-22T15:26:37Z</time>
      </trkpt>
      <trkpt lat="47.53278" lon="-0.59674">
        <ele>26.57</ele>
        <time>2014-09-22T15:26:42Z</time>
      </trkpt>
      <trkpt lat="47.5329" lon="-0.59673">
        <ele>25.13</ele>
        <time>2014-09-22T15:26:44Z</time>
      </trkpt>
      <trkpt lat="47.53305" lon="-0.59687">
        <ele>24.17</ele>
        <time>2014-09-22T15:26:48Z</time>
      </trkpt>
      <trkpt lat="47.53306" lon="-0.59706">
        <ele>22.73</ele>
        <time>2014-09-22T15:26:50Z</time>
      </trkpt>
      <trkpt lat="47.53305" lon="-0.59787">
        <ele>22.73</ele>
        <time>2014-09-22T15:26:58Z</time>
      </trkpt>
      <trkpt lat="47.53303" lon="-0.59805">
        <ele>22.73</ele>
        <time>2014-09-22T15:27:00Z</time>
      </trkpt>
      <trkpt lat="47.53301" lon="-0.59814">
        <ele>23.21</ele>
        <time>2014-09-22T15:27:01Z</time>
      </trkpt>
      <trkpt lat="47.53299" lon="-0.59821">
        <ele>23.21</ele>
        <time>2014-09-22T15:27:02Z</time>
      </trkpt>
      <trkpt lat="47.53296" lon="-0.59827">
        <ele>23.69</ele>
        <time>2014-09-22T15:27:03Z</time>
      </trkpt>
      <trkpt lat="47.53292" lon="-0.59833">
        <ele>23.21</ele>
        <time>2014-09-22T15:27:04Z</time>
      </trkpt>
      <trkpt lat="47.53289" lon="-0.59837">
        <ele>23.21</ele>
        <time>2014-09-22T15:27:05Z</time>
      </trkpt>
      <trkpt lat="47.53286" lon="-0.59841">
        <ele>23.69</ele>
        <time>2014-09-22T15:27:06Z</time>
      </trkpt>
      <trkpt lat="47.53282" lon="-0.59844">
        <ele>23.69</ele>
        <time>2014-09-22T15:27:07Z</time>
      </trkpt>
      <trkpt lat="47.53265" lon="-0.59858">
        <ele>25.13</ele>
        <time>2014-09-22T15:27:11Z</time>
      </trkpt>
      <trkpt lat="47.53262" lon="-0.59862">
        <ele>25.13</ele>
        <time>2014-09-22T15:27:12Z</time>
      </trkpt>
      <trkpt lat="47.53256" lon="-0.5987">
        <ele>25.13</ele>
        <time>2014-09-22T15:27:14Z</time>
      </trkpt>
      <trkpt lat="47.53252" lon="-0.5988">
        <ele>25.61</ele>
        <time>2014-09-22T15:27:17Z</time>
      </trkpt>
      <trkpt lat="47.53261" lon="-0.59867">
        <ele>25.61</ele>
        <time>2014-09-22T15:27:22Z</time>
      </trkpt>
      <trkpt lat="47.53265" lon="-0.59863">
        <ele>25.61</ele>
        <time>2014-09-22T15:27:23Z</time>
      </trkpt>
      <trkpt lat="47.53269" lon="-0.59858">
        <ele>25.13</ele>
        <time>2014-09-22T15:27:24Z</time>
      </trkpt>
      <trkpt lat="47.53277" lon="-0.5985">
        <ele>25.13</ele>
        <time>2014-09-22T15:27:26Z</time>
      </trkpt>
      <trkpt lat="47.53291" lon="-0.59835">
        <ele>24.65</ele>
        <time>2014-09-22T15:27:29Z</time>
      </trkpt>
      <trkpt lat="47.53296" lon="-0.59828">
        <ele>23.69</ele>
        <time>2014-09-22T15:27:30Z</time>
      </trkpt>
      <trkpt lat="47.53299" lon="-0.5982">
        <ele>23.21</ele>
        <time>2014-09-22T15:27:31Z</time>
      </trkpt>
      <trkpt lat="47.53304" lon="-0.59802">
        <ele>23.21</ele>
        <time>2014-09-22T15:27:33Z</time>
      </trkpt>
      <trkpt lat="47.53306" lon="-0.59757">
        <ele>23.21</ele>
        <time>2014-09-22T15:27:38Z</time>
      </trkpt>
      <trkpt lat="47.53306" lon="-0.59731">
        <ele>22.73</ele>
        <time>2014-09-22T15:27:41Z</time>
      </trkpt>
      <trkpt lat="47.53308" lon="-0.59698">
        <ele>22.25</ele>
        <time>2014-09-22T15:27:45Z</time>
      </trkpt>
      <trkpt lat="47.53307" lon="-0.59682">
        <ele>23.69</ele>
        <time>2014-09-22T15:27:48Z</time>
      </trkpt>
      <trkpt lat="47.53317" lon="-0.59675">
        <ele>23.69</ele>
        <time>2014-09-22T15:27:52Z</time>
      </trkpt>
      <trkpt lat="47.53335" lon="-0.59663">
        <ele>22.25</ele>
        <time>2014-09-22T15:27:58Z</time>
      </trkpt>
      <trkpt lat="47.53347" lon="-0.59653">
        <ele>21.77</ele>
        <time>2014-09-22T15:28:03Z</time>
      </trkpt>
      <trkpt lat="47.53353" lon="-0.59663">
        <ele>21.77</ele>
        <time>2014-09-22T15:28:07Z</time>
      </trkpt>
      <trkpt lat="47.53355" lon="-0.59687">
        <ele>20.81</ele>
        <time>2014-09-22T15:28:11Z</time>
      </trkpt>
      <trkpt lat="47.5335" lon="-0.59737">
        <ele>20.32</ele>
        <time>2014-09-22T15:28:18Z</time>
      </trkpt>
      <trkpt lat="47.53347" lon="-0.59763">
        <ele>20.81</ele>
        <time>2014-09-22T15:28:21Z</time>
      </trkpt>
      <trkpt lat="47.53336" lon="-0.59819">
        <ele>20.32</ele>
        <time>2014-09-22T15:28:28Z</time>
      </trkpt>
      <trkpt lat="47.53334" lon="-0.59833">
        <ele>20.32</ele>
        <time>2014-09-22T15:28:30Z</time>
      </trkpt>
      <trkpt lat="47.53328" lon="-0.59853">
        <ele>20.81</ele>
        <time>2014-09-22T15:28:33Z</time>
      </trkpt>
      <trkpt lat="47.53324" lon="-0.59883">
        <ele>20.81</ele>
        <time>2014-09-22T15:28:37Z</time>
      </trkpt>
      <trkpt lat="47.53322" lon="-0.5989">
        <ele>20.32</ele>
        <time>2014-09-22T15:28:38Z</time>
      </trkpt>
      <trkpt lat="47.53321" lon="-0.59897">
        <ele>20.81</ele>
        <time>2014-09-22T15:28:39Z</time>
      </trkpt>
      <trkpt lat="47.53315" lon="-0.59918">
        <ele>20.32</ele>
        <time>2014-09-22T15:28:42Z</time>
      </trkpt>
      <trkpt lat="47.53309" lon="-0.59934">
        <ele>20.81</ele>
        <time>2014-09-22T15:28:44Z</time>
      </trkpt>
      <trkpt lat="47.53307" lon="-0.59942">
        <ele>20.81</ele>
        <time>2014-09-22T15:28:45Z</time>
      </trkpt>
      <trkpt lat="47.53301" lon="-0.59962">
        <ele>20.32</ele>
        <time>2014-09-22T15:28:48Z</time>
      </trkpt>
      <trkpt lat="47.53298" lon="-0.59969">
        <ele>20.81</ele>
        <time>2014-09-22T15:28:49Z</time>
      </trkpt>
      <trkpt lat="47.53285" lon="-0.60009">
        <ele>20.81</ele>
        <time>2014-09-22T15:28:55Z</time>
      </trkpt>
      <trkpt lat="47.53283" lon="-0.60015">
        <ele>20.32</ele>
        <time>2014-09-22T15:28:56Z</time>
      </trkpt>
      <trkpt lat="47.53273" lon="-0.60039">
        <ele>21.29</ele>
        <time>2014-09-22T15:29:01Z</time>
      </trkpt>
      <trkpt lat="47.53267" lon="-0.60068">
        <ele>21.77</ele>
        <time>2014-09-22T15:29:06Z</time>
      </trkpt>
      <trkpt lat="47.53261" lon="-0.60109">
        <ele>22.25</ele>
        <time>2014-09-22T15:29:13Z</time>
      </trkpt>
      <trkpt lat="47.53255" lon="-0.60144">
        <ele>22.25</ele>
        <time>2014-09-22T15:29:18Z</time>
      </trkpt>
      <trkpt lat="47.53251" lon="-0.60158">
        <ele>21.77</ele>
        <time>2014-09-22T15:29:20Z</time>
      </trkpt>
      <trkpt lat="47.53239" lon="-0.60193">
        <ele>22.25</ele>
        <time>2014-09-22T15:29:25Z</time>
      </trkpt>
      <trkpt lat="47.53234" lon="-0.60207">
        <ele>22.25</ele>
        <time>2014-09-22T15:29:27Z</time>
      </trkpt>
      <trkpt lat="47.53229" lon="-0.60221">
        <ele>22.25</ele>
        <time>2014-09-22T15:29:29Z</time>
      </trkpt>
      <trkpt lat="47.53216" lon="-0.60269">
        <ele>22.25</ele>
        <time>2014-09-22T15:29:36Z</time>
      </trkpt>
      <trkpt lat="47.53207" lon="-0.60297">
        <ele>22.25</ele>
        <time>2014-09-22T15:29:40Z</time>
      </trkpt>
      <trkpt lat="47.53188" lon="-0.60334">
        <ele>22.73</ele>
        <time>2014-09-22T15:29:46Z</time>
      </trkpt>
      <trkpt lat="47.53182" lon="-0.60345">
        <ele>22.25</ele>
        <time>2014-09-22T15:29:48Z</time>
      </trkpt>
      <trkpt lat="47.53167" lon="-0.60378">
        <ele>22.25</ele>
        <time>2014-09-22T15:29:53Z</time>
      </trkpt>
      <trkpt lat="47.53146" lon="-0.6043">
        <ele>22.25</ele>
        <time>2014-09-22T15:30:01Z</time>
      </trkpt>
      <trkpt lat="47.53131" lon="-0.60475">
        <ele>22.25</ele>
        <time>2014-09-22T15:30:07Z</time>
      </trkpt>
      <trkpt lat="47.53126" lon="-0.60496">
        <ele>21.77</ele>
        <time>2014-09-22T15:30:10Z</time>
      </trkpt>
      <trkpt lat="47.53115" lon="-0.60525">
        <ele>22.25</ele>
        <time>2014-09-22T15:30:14Z</time>
      </trkpt>
      <trkpt lat="47.53099" lon="-0.60591">
        <ele>21.77</ele>
        <time>2014-09-22T15:30:22Z</time>
      </trkpt>
      <trkpt lat="47.53094" lon="-0.60642">
        <ele>21.29</ele>
        <time>2014-09-22T15:30:28Z</time>
      </trkpt>
      <trkpt lat="47.53093" lon="-0.6065">
        <ele>21.77</ele>
        <time>2014-09-22T15:30:29Z</time>
      </trkpt>
      <trkpt lat="47.53087" lon="-0.6068">
        <ele>21.29</ele>
        <time>2014-09-22T15:30:33Z</time>
      </trkpt>
      <trkpt lat="47.53084" lon="-0.60694">
        <ele>21.77</ele>
        <time>2014-09-22T15:30:35Z</time>
      </trkpt>
      <trkpt lat="47.53081" lon="-0.60725">
        <ele>21.29</ele>
        <time>2014-09-22T15:30:40Z</time>
      </trkpt>
      <trkpt lat="47.53077" lon="-0.60745">
        <ele>22.25</ele>
        <time>2014-09-22T15:30:46Z</time>
      </trkpt>
      <trkpt lat="47.53076" lon="-0.6075">
        <ele>21.77</ele>
        <time>2014-09-22T15:30:53Z</time>
      </trkpt>
      <trkpt lat="47.53073" lon="-0.60765">
        <ele>21.77</ele>
        <time>2014-09-22T15:30:58Z</time>
      </trkpt>
      <trkpt lat="47.53071" lon="-0.6079">
        <ele>21.77</ele>
        <time>2014-09-22T15:31:02Z</time>
      </trkpt>
      <trkpt lat="47.53069" lon="-0.60817">
        <ele>21.77</ele>
        <time>2014-09-22T15:31:06Z</time>
      </trkpt>
      <trkpt lat="47.53068" lon="-0.60848">
        <ele>21.29</ele>
        <time>2014-09-22T15:31:10Z</time>
      </trkpt>
      <trkpt lat="47.53069" lon="-0.60863">
        <ele>21.29</ele>
        <time>2014-09-22T15:31:12Z</time>
      </trkpt>
      <trkpt lat="47.53069" lon="-0.60878">
        <ele>21.77</ele>
        <time>2014-09-22T15:31:14Z</time>
      </trkpt>
      <trkpt lat="47.53071" lon="-0.60909">
        <ele>21.77</ele>
        <time>2014-09-22T15:31:18Z</time>
      </trkpt>
      <trkpt lat="47.53074" lon="-0.60939">
        <ele>21.77</ele>
        <time>2014-09-22T15:31:22Z</time>
      </trkpt>
      <trkpt lat="47.53077" lon="-0.60974">
        <ele>21.29</ele>
        <time>2014-09-22T15:31:27Z</time>
      </trkpt>
      <trkpt lat="47.53081" lon="-0.60995">
        <ele>21.77</ele>
        <time>2014-09-22T15:31:30Z</time>
      </trkpt>
      <trkpt lat="47.53085" lon="-0.61015">
        <ele>21.77</ele>
        <time>2014-09-22T15:31:33Z</time>
      </trkpt>
      <trkpt lat="47.53095" lon="-0.61062">
        <ele>21.77</ele>
        <time>2014-09-22T15:31:40Z</time>
      </trkpt>
      <trkpt lat="47.53098" lon="-0.61069">
        <ele>21.77</ele>
        <time>2014-09-22T15:31:41Z</time>
      </trkpt>
      <trkpt lat="47.53107" lon="-0.61093">
        <ele>21.77</ele>
        <time>2014-09-22T15:31:45Z</time>
      </trkpt>
      <trkpt lat="47.53121" lon="-0.61126">
        <ele>21.77</ele>
        <time>2014-09-22T15:31:51Z</time>
      </trkpt>
      <trkpt lat="47.53133" lon="-0.61146">
        <ele>22.25</ele>
        <time>2014-09-22T15:31:55Z</time>
      </trkpt>
      <trkpt lat="47.53151" lon="-0.61176">
        <ele>21.77</ele>
        <time>2014-09-22T15:32:00Z</time>
      </trkpt>
      <trkpt lat="47.53183" lon="-0.61227">
        <ele>21.77</ele>
        <time>2014-09-22T15:32:08Z</time>
      </trkpt>
      <trkpt lat="47.53195" lon="-0.61245">
        <ele>21.29</ele>
        <time>2014-09-22T15:32:11Z</time>
      </trkpt>
      <trkpt lat="47.53203" lon="-0.61255">
        <ele>21.77</ele>
        <time>2014-09-22T15:32:13Z</time>
      </trkpt>
      <trkpt lat="47.53223" lon="-0.61283">
        <ele>22.25</ele>
        <time>2014-09-22T15:32:18Z</time>
      </trkpt>
      <trkpt lat="47.53245" lon="-0.6131">
        <ele>22.25</ele>
        <time>2014-09-22T15:32:23Z</time>
      </trkpt>
      <trkpt lat="47.53258" lon="-0.61326">
        <ele>22.25</ele>
        <time>2014-09-22T15:32:26Z</time>
      </trkpt>
      <trkpt lat="47.53274" lon="-0.61354">
        <ele>21.29</ele>
        <time>2014-09-22T15:32:32Z</time>
      </trkpt>
      <trkpt lat="47.5329" lon="-0.61377">
        <ele>22.25</ele>
        <time>2014-09-22T15:32:36Z</time>
      </trkpt>
      <trkpt lat="47.53316" lon="-0.61409">
        <ele>21.77</ele>
        <time>2014-09-22T15:32:42Z</time>
      </trkpt>
      <trkpt lat="47.53339" lon="-0.61432">
        <ele>22.25</ele>
        <time>2014-09-22T15:32:47Z</time>
      </trkpt>
      <trkpt lat="47.53363" lon="-0.61455">
        <ele>22.73</ele>
        <time>2014-09-22T15:32:53Z</time>
      </trkpt>
      <trkpt lat="47.53382" lon="-0.6147">
        <ele>22.25</ele>
        <time>2014-09-22T15:32:57Z</time>
      </trkpt>
      <trkpt lat="47.53418" lon="-0.61499">
        <ele>22.73</ele>
        <time>2014-09-22T15:33:05Z</time>
      </trkpt>
      <trkpt lat="47.5344" lon="-0.61519">
        <ele>22.73</ele>
        <time>2014-09-22T15:33:10Z</time>
      </trkpt>
      <trkpt lat="47.53444" lon="-0.61523">
        <ele>22.73</ele>
        <time>2014-09-22T15:33:11Z</time>
      </trkpt>
      <trkpt lat="47.53479" lon="-0.61558">
        <ele>22.73</ele>
        <time>2014-09-22T15:33:18Z</time>
      </trkpt>
      <trkpt lat="47.53485" lon="-0.61562">
        <ele>22.73</ele>
        <time>2014-09-22T15:33:19Z</time>
      </trkpt>
      <trkpt lat="47.5352" lon="-0.61576">
        <ele>22.25</ele>
        <time>2014-09-22T15:33:25Z</time>
      </trkpt>
      <trkpt lat="47.5356" lon="-0.61597">
        <ele>22.73</ele>
        <time>2014-09-22T15:33:32Z</time>
      </trkpt>
      <trkpt lat="47.53601" lon="-0.61601">
        <ele>21.77</ele>
        <time>2014-09-22T15:33:39Z</time>
      </trkpt>
      <trkpt lat="47.53652" lon="-0.61602">
        <ele>22.73</ele>
        <time>2014-09-22T15:33:47Z</time>
      </trkpt>
      <trkpt lat="47.53691" lon="-0.61598">
        <ele>21.77</ele>
        <time>2014-09-22T15:33:53Z</time>
      </trkpt>
      <trkpt lat="47.53741" lon="-0.61584">
        <ele>22.25</ele>
        <time>2014-09-22T15:34:01Z</time>
      </trkpt>
      <trkpt lat="47.53788" lon="-0.61566">
        <ele>21.77</ele>
        <time>2014-09-22T15:34:09Z</time>
      </trkpt>
      <trkpt lat="47.53832" lon="-0.6155">
        <ele>22.73</ele>
        <time>2014-09-22T15:34:17Z</time>
      </trkpt>
      <trkpt lat="47.53854" lon="-0.6154">
        <ele>22.73</ele>
        <time>2014-09-22T15:34:21Z</time>
      </trkpt>
      <trkpt lat="47.53873" lon="-0.61533">
        <ele>22.25</ele>
        <time>2014-09-22T15:34:25Z</time>
      </trkpt>
      <trkpt lat="47.53905" lon="-0.61516">
        <ele>22.25</ele>
        <time>2014-09-22T15:34:32Z</time>
      </trkpt>
      <trkpt lat="47.53918" lon="-0.61506">
        <ele>22.25</ele>
        <time>2014-09-22T15:34:35Z</time>
      </trkpt>
      <trkpt lat="47.53962" lon="-0.6148">
        <ele>22.25</ele>
        <time>2014-09-22T15:34:44Z</time>
      </trkpt>
      <trkpt lat="47.53966" lon="-0.61478">
        <ele>22.25</ele>
        <time>2014-09-22T15:34:45Z</time>
      </trkpt>
      <trkpt lat="47.53986" lon="-0.6146">
        <ele>23.21</ele>
        <time>2014-09-22T15:34:50Z</time>
      </trkpt>
      <trkpt lat="47.54004" lon="-0.61451">
        <ele>22.73</ele>
        <time>2014-09-22T15:34:54Z</time>
      </trkpt>
      <trkpt lat="47.54023" lon="-0.6144">
        <ele>22.73</ele>
        <time>2014-09-22T15:34:59Z</time>
      </trkpt>
      <trkpt lat="47.54041" lon="-0.61441">
        <ele>22.25</ele>
        <time>2014-09-22T15:35:03Z</time>
      </trkpt>
      <trkpt lat="47.54046" lon="-0.61449">
        <ele>22.25</ele>
        <time>2014-09-22T15:35:05Z</time>
      </trkpt>
      <trkpt lat="47.54049" lon="-0.61461">
        <ele>22.25</ele>
        <time>2014-09-22T15:35:07Z</time>
      </trkpt>
      <trkpt lat="47.54056" lon="-0.61483">
        <ele>23.21</ele>
        <time>2014-09-22T15:35:11Z</time>
      </trkpt>
      <trkpt lat="47.54066" lon="-0.61503">
        <ele>24.65</ele>
        <time>2014-09-22T15:35:16Z</time>
      </trkpt>
      <trkpt lat="47.54076" lon="-0.61539">
        <ele>25.13</ele>
        <time>2014-09-22T15:35:23Z</time>
      </trkpt>
      <trkpt lat="47.54072" lon="-0.61563">
        <ele>24.65</ele>
        <time>2014-09-22T15:35:28Z</time>
      </trkpt>
      <trkpt lat="47.54066" lon="-0.6157">
        <ele>25.61</ele>
        <time>2014-09-22T15:35:30Z</time>
      </trkpt>
      <trkpt lat="47.54042" lon="-0.61582">
        <ele>25.61</ele>
        <time>2014-09-22T15:35:36Z</time>
      </trkpt>
      <trkpt lat="47.54018" lon="-0.61588">
        <ele>25.61</ele>
        <time>2014-09-22T15:35:41Z</time>
      </trkpt>
      <trkpt lat="47.53993" lon="-0.61577">
        <ele>25.61</ele>
        <time>2014-09-22T15:35:47Z</time>
      </trkpt>
      <trkpt lat="47.5399" lon="-0.61573">
        <ele>25.13</ele>
        <time>2014-09-22T15:35:48Z</time>
      </trkpt>
      <trkpt lat="47.53985" lon="-0.61568">
        <ele>26.09</ele>
        <time>2014-09-22T15:35:50Z</time>
      </trkpt>
      <trkpt lat="47.53984" lon="-0.61539">
        <ele>26.09</ele>
        <time>2014-09-22T15:35:55Z</time>
      </trkpt>
      <trkpt lat="47.53988" lon="-0.61525">
        <ele>25.61</ele>
        <time>2014-09-22T15:35:57Z</time>
      </trkpt>
      <trkpt lat="47.53993" lon="-0.61495">
        <ele>26.57</ele>
        <time>2014-09-22T15:36:01Z</time>
      </trkpt>
      <trkpt lat="47.53997" lon="-0.61431">
        <ele>27.53</ele>
        <time>2014-09-22T15:36:10Z</time>
      </trkpt>
      <trkpt lat="47.54" lon="-0.61367">
        <ele>28.02</ele>
        <time>2014-09-22T15:36:19Z</time>
      </trkpt>
      <trkpt lat="47.54003" lon="-0.6132">
        <ele>27.05</ele>
        <time>2014-09-22T15:36:25Z</time>
      </trkpt>
      <trkpt lat="47.54004" lon="-0.61247">
        <ele>27.05</ele>
        <time>2014-09-22T15:36:33Z</time>
      </trkpt>
      <trkpt lat="47.54006" lon="-0.61169">
        <ele>25.61</ele>
        <time>2014-09-22T15:36:41Z</time>
      </trkpt>
      <trkpt lat="47.54011" lon="-0.61103">
        <ele>26.57</ele>
        <time>2014-09-22T15:36:48Z</time>
      </trkpt>
      <trkpt lat="47.54012" lon="-0.61094">
        <ele>26.09</ele>
        <time>2014-09-22T15:36:49Z</time>
      </trkpt>
      <trkpt lat="47.54018" lon="-0.6106">
        <ele>25.13</ele>
        <time>2014-09-22T15:36:53Z</time>
      </trkpt>
      <trkpt lat="47.54026" lon="-0.61036">
        <ele>25.13</ele>
        <time>2014-09-22T15:36:56Z</time>
      </trkpt>
      <trkpt lat="47.54033" lon="-0.61023">
        <ele>25.61</ele>
        <time>2014-09-22T15:36:58Z</time>
      </trkpt>
      <trkpt lat="47.54061" lon="-0.60979">
        <ele>25.13</ele>
        <time>2014-09-22T15:37:05Z</time>
      </trkpt>
      <trkpt lat="47.54091" lon="-0.60957">
        <ele>25.61</ele>
        <time>2014-09-22T15:37:11Z</time>
      </trkpt>
      <trkpt lat="47.54117" lon="-0.60942">
        <ele>24.65</ele>
        <time>2014-09-22T15:37:17Z</time>
      </trkpt>
      <trkpt lat="47.54121" lon="-0.6094">
        <ele>24.65</ele>
        <time>2014-09-22T15:37:18Z</time>
      </trkpt>
      <trkpt lat="47.54128" lon="-0.60921">
        <ele>25.13</ele>
        <time>2014-09-22T15:37:22Z</time>
      </trkpt>
      <trkpt lat="47.54123" lon="-0.60904">
        <ele>24.65</ele>
        <time>2014-09-22T15:37:25Z</time>
      </trkpt>
      <trkpt lat="47.54114" lon="-0.60863">
        <ele>25.13</ele>
        <time>2014-09-22T15:37:31Z</time>
      </trkpt>
      <trkpt lat="47.5412" lon="-0.60837">
        <ele>25.13</ele>
        <time>2014-09-22T15:37:35Z</time>
      </trkpt>
      <trkpt lat="47.54135" lon="-0.60828">
        <ele>25.13</ele>
        <time>2014-09-22T15:37:38Z</time>
      </trkpt>
      <trkpt lat="47.54144" lon="-0.60822">
        <ele>25.13</ele>
        <time>2014-09-22T15:37:40Z</time>
      </trkpt>
      <trkpt lat="47.54178" lon="-0.60785">
        <ele>25.61</ele>
        <time>2014-09-22T15:37:48Z</time>
      </trkpt>
      <trkpt lat="47.5419" lon="-0.60759">
        <ele>25.61</ele>
        <time>2014-09-22T15:37:52Z</time>
      </trkpt>
      <trkpt lat="47.54208" lon="-0.6072">
        <ele>26.09</ele>
        <time>2014-09-22T15:37:58Z</time>
      </trkpt>
      <trkpt lat="47.54242" lon="-0.60682">
        <ele>27.53</ele>
        <time>2014-09-22T15:38:07Z</time>
      </trkpt>
      <trkpt lat="47.54266" lon="-0.60652">
        <ele>28.02</ele>
        <time>2014-09-22T15:38:14Z</time>
      </trkpt>
      <trkpt lat="47.54305" lon="-0.60586">
        <ele>28.5</ele>
        <time>2014-09-22T15:38:27Z</time>
      </trkpt>
      <trkpt lat="47.54338" lon="-0.60523">
        <ele>28.5</ele>
        <time>2014-09-22T15:38:38Z</time>
      </trkpt>
      <trkpt lat="47.54368" lon="-0.60471">
        <ele>28.02</ele>
        <time>2014-09-22T15:38:47Z</time>
      </trkpt>
      <trkpt lat="47.54395" lon="-0.60441">
        <ele>28.02</ele>
        <time>2014-09-22T15:38:54Z</time>
      </trkpt>
      <trkpt lat="47.544" lon="-0.60435">
        <ele>27.53</ele>
        <time>2014-09-22T15:38:57Z</time>
      </trkpt>
      <trkpt lat="47.544" lon="-0.60435">
        <ele>27.53</ele>
        <time>2014-09-22T15:39:07Z</time>
      </trkpt>
      <trkpt lat="47.544" lon="-0.60435">
        <ele>27.53</ele>
        <time>2014-09-22T15:39:26Z</time>
      </trkpt>
      <trkpt lat="47.544" lon="-0.60435">
        <ele>27.53</ele>
        <time>2014-09-22T15:39:42Z</time>
      </trkpt>
      <trkpt lat="47.544" lon="-0.60435">
        <ele>27.53</ele>
        <time>2014-09-22T15:39:54Z</time>
      </trkpt>
      <trkpt lat="47.54408" lon="-0.60427">
        <ele>28.02</ele>
        <time>2014-09-22T15:39:59Z</time>
      </trkpt>
      <trkpt lat="47.54432" lon="-0.60402">
        <ele>28.02</ele>
        <time>2014-09-22T15:40:06Z</time>
      </trkpt>
      <trkpt lat="47.54473" lon="-0.60365">
        <ele>29.46</ele>
        <time>2014-09-22T15:40:15Z</time>
      </trkpt>
      <trkpt lat="47.54517" lon="-0.60341">
        <ele>28.98</ele>
        <time>2014-09-22T15:40:24Z</time>
      </trkpt>
      <trkpt lat="47.54561" lon="-0.60322">
        <ele>29.46</ele>
        <time>2014-09-22T15:40:33Z</time>
      </trkpt>
      <trkpt lat="47.54572" lon="-0.60315">
        <ele>28.98</ele>
        <time>2014-09-22T15:40:35Z</time>
      </trkpt>
      <trkpt lat="47.54588" lon="-0.60302">
        <ele>28.5</ele>
        <time>2014-09-22T15:40:38Z</time>
      </trkpt>
      <trkpt lat="47.54629" lon="-0.60249">
        <ele>28.5</ele>
        <time>2014-09-22T15:40:47Z</time>
      </trkpt>
      <trkpt lat="47.54642" lon="-0.60232">
        <ele>28.98</ele>
        <time>2014-09-22T15:40:50Z</time>
      </trkpt>
      <trkpt lat="47.54651" lon="-0.60199">
        <ele>28.5</ele>
        <time>2014-09-22T15:40:55Z</time>
      </trkpt>
      <trkpt lat="47.54648" lon="-0.60186">
        <ele>28.5</ele>
        <time>2014-09-22T15:40:57Z</time>
      </trkpt>
      <trkpt lat="47.54628" lon="-0.60126">
        <ele>30.9</ele>
        <time>2014-09-22T15:41:06Z</time>
      </trkpt>
      <trkpt lat="47.54617" lon="-0.60068">
        <ele>31.86</ele>
        <time>2014-09-22T15:41:14Z</time>
      </trkpt>
      <trkpt lat="47.54603" lon="-0.60013">
        <ele>32.34</ele>
        <time>2014-09-22T15:41:21Z</time>
      </trkpt>
      <trkpt lat="47.54593" lon="-0.59962">
        <ele>32.34</ele>
        <time>2014-09-22T15:41:27Z</time>
      </trkpt>
      <trkpt lat="47.54591" lon="-0.599">
        <ele>32.34</ele>
        <time>2014-09-22T15:41:34Z</time>
      </trkpt>
      <trkpt lat="47.54605" lon="-0.5983">
        <ele>32.34</ele>
        <time>2014-09-22T15:41:42Z</time>
      </trkpt>
      <trkpt lat="47.54617" lon="-0.59798">
        <ele>32.34</ele>
        <time>2014-09-22T15:41:46Z</time>
      </trkpt>
      <trkpt lat="47.54635" lon="-0.59762">
        <ele>31.38</ele>
        <time>2014-09-22T15:41:51Z</time>
      </trkpt>
      <trkpt lat="47.54643" lon="-0.59719">
        <ele>31.86</ele>
        <time>2014-09-22T15:41:56Z</time>
      </trkpt>
      <trkpt lat="47.54641" lon="-0.59693">
        <ele>31.86</ele>
        <time>2014-09-22T15:41:59Z</time>
      </trkpt>
      <trkpt lat="47.54628" lon="-0.59642">
        <ele>30.42</ele>
        <time>2014-09-22T15:42:05Z</time>
      </trkpt>
      <trkpt lat="47.54628" lon="-0.59609">
        <ele>31.86</ele>
        <time>2014-09-22T15:42:09Z</time>
      </trkpt>
      <trkpt lat="47.54637" lon="-0.59598">
        <ele>31.86</ele>
        <time>2014-09-22T15:42:11Z</time>
      </trkpt>
      <trkpt lat="47.54642" lon="-0.59594">
        <ele>31.86</ele>
        <time>2014-09-22T15:42:12Z</time>
      </trkpt>
      <trkpt lat="47.5469" lon="-0.59547">
        <ele>31.38</ele>
        <time>2014-09-22T15:42:22Z</time>
      </trkpt>
      <trkpt lat="47.54738" lon="-0.59518">
        <ele>31.86</ele>
        <time>2014-09-22T15:42:31Z</time>
      </trkpt>
      <trkpt lat="47.54786" lon="-0.59489">
        <ele>32.34</ele>
        <time>2014-09-22T15:42:40Z</time>
      </trkpt>
      <trkpt lat="47.54829" lon="-0.59463">
        <ele>32.34</ele>
        <time>2014-09-22T15:42:48Z</time>
      </trkpt>
      <trkpt lat="47.54871" lon="-0.59438">
        <ele>31.86</ele>
        <time>2014-09-22T15:42:56Z</time>
      </trkpt>
      <trkpt lat="47.5488" lon="-0.59431">
        <ele>32.34</ele>
        <time>2014-09-22T15:42:58Z</time>
      </trkpt>
      <trkpt lat="47.54884" lon="-0.59426">
        <ele>32.34</ele>
        <time>2014-09-22T15:42:59Z</time>
      </trkpt>
      <trkpt lat="47.54887" lon="-0.59421">
        <ele>32.34</ele>
        <time>2014-09-22T15:43:00Z</time>
      </trkpt>
      <trkpt lat="47.5489" lon="-0.59415">
        <ele>32.82</ele>
        <time>2014-09-22T15:43:01Z</time>
      </trkpt>
      <trkpt lat="47.54894" lon="-0.59411">
        <ele>32.34</ele>
        <time>2014-09-22T15:43:02Z</time>
      </trkpt>
      <trkpt lat="47.54898" lon="-0.59408">
        <ele>32.34</ele>
        <time>2014-09-22T15:43:03Z</time>
      </trkpt>
      <trkpt lat="47.54902" lon="-0.59405">
        <ele>32.82</ele>
        <time>2014-09-22T15:43:04Z</time>
      </trkpt>
      <trkpt lat="47.54938" lon="-0.59383">
        <ele>32.34</ele>
        <time>2014-09-22T15:43:12Z</time>
      </trkpt>
      <trkpt lat="47.54942" lon="-0.59381">
        <ele>32.82</ele>
        <time>2014-09-22T15:43:13Z</time>
      </trkpt>
      <trkpt lat="47.54971" lon="-0.59363">
        <ele>32.82</ele>
        <time>2014-09-22T15:43:19Z</time>
      </trkpt>
      <trkpt lat="47.54985" lon="-0.59356">
        <ele>33.78</ele>
        <time>2014-09-22T15:43:22Z</time>
      </trkpt>
      <trkpt lat="47.54989" lon="-0.59354">
        <ele>33.78</ele>
        <time>2014-09-22T15:43:23Z</time>
      </trkpt>
      <trkpt lat="47.54993" lon="-0.59352">
        <ele>33.3</ele>
        <time>2014-09-22T15:43:24Z</time>
      </trkpt>
      <trkpt lat="47.55017" lon="-0.59341">
        <ele>34.26</ele>
        <time>2014-09-22T15:43:29Z</time>
      </trkpt>
      <trkpt lat="47.55022" lon="-0.59339">
        <ele>34.26</ele>
        <time>2014-09-22T15:43:30Z</time>
      </trkpt>
      <trkpt lat="47.55041" lon="-0.5933">
        <ele>34.26</ele>
        <time>2014-09-22T15:43:34Z</time>
      </trkpt>
      <trkpt lat="47.55066" lon="-0.59317">
        <ele>34.74</ele>
        <time>2014-09-22T15:43:40Z</time>
      </trkpt>
      <trkpt lat="47.55074" lon="-0.59312">
        <ele>34.74</ele>
        <time>2014-09-22T15:43:42Z</time>
      </trkpt>
      <trkpt lat="47.55078" lon="-0.5931">
        <ele>34.74</ele>
        <time>2014-09-22T15:43:43Z</time>
      </trkpt>
      <trkpt lat="47.55082" lon="-0.59307">
        <ele>34.74</ele>
        <time>2014-09-22T15:43:44Z</time>
      </trkpt>
      <trkpt lat="47.55087" lon="-0.59304">
        <ele>35.23</ele>
        <time>2014-09-22T15:43:45Z</time>
      </trkpt>
      <trkpt lat="47.55091" lon="-0.59301">
        <ele>34.74</ele>
        <time>2014-09-22T15:43:46Z</time>
      </trkpt>
      <trkpt lat="47.55096" lon="-0.59299">
        <ele>35.23</ele>
        <time>2014-09-22T15:43:47Z</time>
      </trkpt>
      <trkpt lat="47.55123" lon="-0.59284">
        <ele>35.71</ele>
        <time>2014-09-22T15:43:53Z</time>
      </trkpt>
      <trkpt lat="47.55127" lon="-0.59282">
        <ele>35.71</ele>
        <time>2014-09-22T15:43:54Z</time>
      </trkpt>
      <trkpt lat="47.55131" lon="-0.59279">
        <ele>35.71</ele>
        <time>2014-09-22T15:43:55Z</time>
      </trkpt>
      <trkpt lat="47.55134" lon="-0.59274">
        <ele>35.71</ele>
        <time>2014-09-22T15:43:56Z</time>
      </trkpt>
      <trkpt lat="47.55134" lon="-0.59264">
        <ele>36.19</ele>
        <time>2014-09-22T15:43:58Z</time>
      </trkpt>
      <trkpt lat="47.55125" lon="-0.59239">
        <ele>36.19</ele>
        <time>2014-09-22T15:44:03Z</time>
      </trkpt>
      <trkpt lat="47.55108" lon="-0.59188">
        <ele>36.19</ele>
        <time>2014-09-22T15:44:11Z</time>
      </trkpt>
      <trkpt lat="47.551" lon="-0.59155">
        <ele>37.15</ele>
        <time>2014-09-22T15:44:16Z</time>
      </trkpt>
      <trkpt lat="47.55084" lon="-0.59083">
        <ele>37.63</ele>
        <time>2014-09-22T15:44:26Z</time>
      </trkpt>
      <trkpt lat="47.5507" lon="-0.59033">
        <ele>37.15</ele>
        <time>2014-09-22T15:44:33Z</time>
      </trkpt>
      <trkpt lat="47.5507" lon="-0.59011">
        <ele>37.15</ele>
        <time>2014-09-22T15:44:36Z</time>
      </trkpt>
      <trkpt lat="47.55081" lon="-0.58934">
        <ele>37.63</ele>
        <time>2014-09-22T15:44:46Z</time>
      </trkpt>
      <trkpt lat="47.5509" lon="-0.58864">
        <ele>37.63</ele>
        <time>2014-09-22T15:44:55Z</time>
      </trkpt>
      <trkpt lat="47.5509" lon="-0.5878">
        <ele>37.63</ele>
        <time>2014-09-22T15:45:05Z</time>
      </trkpt>
      <trkpt lat="47.5509" lon="-0.58762">
        <ele>37.63</ele>
        <time>2014-09-22T15:45:07Z</time>
      </trkpt>
      <trkpt lat="47.5509" lon="-0.58729">
        <ele>37.63</ele>
        <time>2014-09-22T15:45:11Z</time>
      </trkpt>
      <trkpt lat="47.55089" lon="-0.58662">
        <ele>37.63</ele>
        <time>2014-09-22T15:45:19Z</time>
      </trkpt>
      <trkpt lat="47.55087" lon="-0.58561">
        <ele>37.63</ele>
        <time>2014-09-22T15:45:31Z</time>
      </trkpt>
      <trkpt lat="47.55085" lon="-0.58502">
        <ele>37.15</ele>
        <time>2014-09-22T15:45:38Z</time>
      </trkpt>
      <trkpt lat="47.55083" lon="-0.58442">
        <ele>37.15</ele>
        <time>2014-09-22T15:45:45Z</time>
      </trkpt>
      <trkpt lat="47.55084" lon="-0.58365">
        <ele>37.15</ele>
        <time>2014-09-22T15:45:54Z</time>
      </trkpt>
      <trkpt lat="47.55083" lon="-0.58331">
        <ele>37.15</ele>
        <time>2014-09-22T15:45:58Z</time>
      </trkpt>
      <trkpt lat="47.55082" lon="-0.58315">
        <ele>36.19</ele>
        <time>2014-09-22T15:46:00Z</time>
      </trkpt>
      <trkpt lat="47.55071" lon="-0.58294">
        <ele>36.19</ele>
        <time>2014-09-22T15:46:04Z</time>
      </trkpt>
      <trkpt lat="47.55049" lon="-0.58301">
        <ele>36.67</ele>
        <time>2014-09-22T15:46:08Z</time>
      </trkpt>
      <trkpt lat="47.54987" lon="-0.58306">
        <ele>37.63</ele>
        <time>2014-09-22T15:46:18Z</time>
      </trkpt>
      <trkpt lat="47.54924" lon="-0.5831">
        <ele>36.19</ele>
        <time>2014-09-22T15:46:28Z</time>
      </trkpt>
      <trkpt lat="47.54856" lon="-0.58318">
        <ele>36.19</ele>
        <time>2014-09-22T15:46:38Z</time>
      </trkpt>
      <trkpt lat="47.54786" lon="-0.58331">
        <ele>34.74</ele>
        <time>2014-09-22T15:46:48Z</time>
      </trkpt>
      <trkpt lat="47.54705" lon="-0.58344">
        <ele>34.26</ele>
        <time>2014-09-22T15:46:59Z</time>
      </trkpt>
      <trkpt lat="47.54661" lon="-0.58348">
        <ele>33.3</ele>
        <time>2014-09-22T15:47:05Z</time>
      </trkpt>
      <trkpt lat="47.54611" lon="-0.5834">
        <ele>31.86</ele>
        <time>2014-09-22T15:47:12Z</time>
      </trkpt>
      <trkpt lat="47.54599" lon="-0.58324">
        <ele>31.86</ele>
        <time>2014-09-22T15:47:17Z</time>
      </trkpt>
      <trkpt lat="47.546" lon="-0.58318">
        <ele>31.86</ele>
        <time>2014-09-22T15:47:18Z</time>
      </trkpt>
      <trkpt lat="47.54608" lon="-0.58301">
        <ele>31.86</ele>
        <time>2014-09-22T15:47:21Z</time>
      </trkpt>
      <trkpt lat="47.54639" lon="-0.58244">
        <ele>32.34</ele>
        <time>2014-09-22T15:47:29Z</time>
      </trkpt>
      <trkpt lat="47.5467" lon="-0.58177">
        <ele>32.34</ele>
        <time>2014-09-22T15:47:38Z</time>
      </trkpt>
      <trkpt lat="47.54692" lon="-0.5811">
        <ele>32.34</ele>
        <time>2014-09-22T15:47:47Z</time>
      </trkpt>
      <trkpt lat="47.54695" lon="-0.58104">
        <ele>32.82</ele>
        <time>2014-09-22T15:47:48Z</time>
      </trkpt>
      <trkpt lat="47.54701" lon="-0.5807">
        <ele>33.3</ele>
        <time>2014-09-22T15:47:53Z</time>
      </trkpt>
      <trkpt lat="47.54707" lon="-0.58015">
        <ele>32.82</ele>
        <time>2014-09-22T15:48:01Z</time>
      </trkpt>
      <trkpt lat="47.54712" lon="-0.57989">
        <ele>33.3</ele>
        <time>2014-09-22T15:48:05Z</time>
      </trkpt>
      <trkpt lat="47.54717" lon="-0.57949">
        <ele>33.78</ele>
        <time>2014-09-22T15:48:11Z</time>
      </trkpt>
      <trkpt lat="47.54722" lon="-0.57889">
        <ele>34.26</ele>
        <time>2014-09-22T15:48:20Z</time>
      </trkpt>
      <trkpt lat="47.54724" lon="-0.5786">
        <ele>34.26</ele>
        <time>2014-09-22T15:48:25Z</time>
      </trkpt>
      <trkpt lat="47.54731" lon="-0.57826">
        <ele>34.74</ele>
        <time>2014-09-22T15:48:32Z</time>
      </trkpt>
      <trkpt lat="47.54732" lon="-0.57823">
        <ele>34.26</ele>
        <time>2014-09-22T15:48:33Z</time>
      </trkpt>
      <trkpt lat="47.54724" lon="-0.57803">
        <ele>35.23</ele>
        <time>2014-09-22T15:48:39Z</time>
      </trkpt>
      <trkpt lat="47.54715" lon="-0.57782">
        <ele>35.23</ele>
        <time>2014-09-22T15:48:44Z</time>
      </trkpt>
      <trkpt lat="47.54696" lon="-0.57761">
        <ele>35.23</ele>
        <time>2014-09-22T15:48:51Z</time>
      </trkpt>
      <trkpt lat="47.54667" lon="-0.57723">
        <ele>36.19</ele>
        <time>2014-09-22T15:49:01Z</time>
      </trkpt>
      <trkpt lat="47.5464" lon="-0.57684">
        <ele>36.19</ele>
        <time>2014-09-22T15:49:10Z</time>
      </trkpt>
      <trkpt lat="47.54612" lon="-0.57638">
        <ele>36.67</ele>
        <time>2014-09-22T15:49:20Z</time>
      </trkpt>
      <trkpt lat="47.54591" lon="-0.57603">
        <ele>36.67</ele>
        <time>2014-09-22T15:49:28Z</time>
      </trkpt>
      <trkpt lat="47.54577" lon="-0.5757">
        <ele>37.15</ele>
        <time>2014-09-22T15:49:35Z</time>
      </trkpt>
      <trkpt lat="47.54582" lon="-0.57533">
        <ele>36.67</ele>
        <time>2014-09-22T15:49:41Z</time>
      </trkpt>
      <trkpt lat="47.54582" lon="-0.57527">
        <ele>36.19</ele>
        <time>2014-09-22T15:49:42Z</time>
      </trkpt>
      <trkpt lat="47.54575" lon="-0.57491">
        <ele>37.15</ele>
        <time>2014-09-22T15:49:48Z</time>
      </trkpt>
      <trkpt lat="47.54553" lon="-0.57436">
        <ele>36.67</ele>
        <time>2014-09-22T15:49:58Z</time>
      </trkpt>
      <trkpt lat="47.54539" lon="-0.57384">
        <ele>36.19</ele>
        <time>2014-09-22T15:50:07Z</time>
      </trkpt>
      <trkpt lat="47.54523" lon="-0.57327">
        <ele>37.15</ele>
        <time>2014-09-22T15:50:17Z</time>
      </trkpt>
      <trkpt lat="47.54521" lon="-0.57322">
        <ele>37.15</ele>
        <time>2014-09-22T15:50:18Z</time>
      </trkpt>
      <trkpt lat="47.54518" lon="-0.57304">
        <ele>37.15</ele>
        <time>2014-09-22T15:50:21Z</time>
      </trkpt>
      <trkpt lat="47.54508" lon="-0.57246">
        <ele>37.63</ele>
        <time>2014-09-22T15:50:31Z</time>
      </trkpt>
      <trkpt lat="47.54502" lon="-0.57211">
        <ele>37.63</ele>
        <time>2014-09-22T15:50:38Z</time>
      </trkpt>
      <trkpt lat="47.545" lon="-0.57177">
        <ele>38.59</ele>
        <time>2014-09-22T15:50:45Z</time>
      </trkpt>
      <trkpt lat="47.54518" lon="-0.57171">
        <ele>38.11</ele>
        <time>2014-09-22T15:50:50Z</time>
      </trkpt>
      <trkpt lat="47.54562" lon="-0.5717">
        <ele>38.59</ele>
        <time>2014-09-22T15:51:00Z</time>
      </trkpt>
      <trkpt lat="47.54606" lon="-0.57166">
        <ele>38.59</ele>
        <time>2014-09-22T15:51:10Z</time>
      </trkpt>
      <trkpt lat="47.54624" lon="-0.57162">
        <ele>39.07</ele>
        <time>2014-09-22T15:51:14Z</time>
      </trkpt>
      <trkpt lat="47.54662" lon="-0.57152">
        <ele>39.07</ele>
        <time>2014-09-22T15:51:22Z</time>
      </trkpt>
      <trkpt lat="47.54691" lon="-0.57143">
        <ele>39.55</ele>
        <time>2014-09-22T15:51:28Z</time>
      </trkpt>
      <trkpt lat="47.54719" lon="-0.5713">
        <ele>39.07</ele>
        <time>2014-09-22T15:51:34Z</time>
      </trkpt>
      <trkpt lat="47.5475" lon="-0.57109">
        <ele>39.07</ele>
        <time>2014-09-22T15:51:41Z</time>
      </trkpt>
      <trkpt lat="47.5476" lon="-0.57106">
        <ele>39.55</ele>
        <time>2014-09-22T15:51:43Z</time>
      </trkpt>
      <trkpt lat="47.54786" lon="-0.57107">
        <ele>39.07</ele>
        <time>2014-09-22T15:51:48Z</time>
      </trkpt>
      <trkpt lat="47.54826" lon="-0.57118">
        <ele>39.55</ele>
        <time>2014-09-22T15:51:56Z</time>
      </trkpt>
      <trkpt lat="47.5486" lon="-0.57125">
        <ele>39.55</ele>
        <time>2014-09-22T15:52:03Z</time>
      </trkpt>
      <trkpt lat="47.54865" lon="-0.57127">
        <ele>39.55</ele>
        <time>2014-09-22T15:52:04Z</time>
      </trkpt>
      <trkpt lat="47.5489" lon="-0.57135">
        <ele>39.55</ele>
        <time>2014-09-22T15:52:09Z</time>
      </trkpt>
      <trkpt lat="47.54927" lon="-0.57147">
        <ele>40.03</ele>
        <time>2014-09-22T15:52:16Z</time>
      </trkpt>
      <trkpt lat="47.54954" lon="-0.57158">
        <ele>39.07</ele>
        <time>2014-09-22T15:52:21Z</time>
      </trkpt>
      <trkpt lat="47.54971" lon="-0.57173">
        <ele>39.07</ele>
        <time>2014-09-22T15:52:25Z</time>
      </trkpt>
      <trkpt lat="47.54997" lon="-0.57215">
        <ele>39.07</ele>
        <time>2014-09-22T15:52:32Z</time>
      </trkpt>
      <trkpt lat="47.55023" lon="-0.5726">
        <ele>39.07</ele>
        <time>2014-09-22T15:52:39Z</time>
      </trkpt>
      <trkpt lat="47.55045" lon="-0.57304">
        <ele>38.11</ele>
        <time>2014-09-22T15:52:45Z</time>
      </trkpt>
      <trkpt lat="47.55077" lon="-0.57366">
        <ele>36.67</ele>
        <time>2014-09-22T15:52:53Z</time>
      </trkpt>
      <trkpt lat="47.55108" lon="-0.57423">
        <ele>36.67</ele>
        <time>2014-09-22T15:53:00Z</time>
      </trkpt>
      <trkpt lat="47.55121" lon="-0.57445">
        <ele>36.19</ele>
        <time>2014-09-22T15:53:03Z</time>
      </trkpt>
      <trkpt lat="47.55139" lon="-0.5748">
        <ele>36.19</ele>
        <time>2014-09-22T15:53:08Z</time>
      </trkpt>
      <trkpt lat="47.55175" lon="-0.57519">
        <ele>36.67</ele>
        <time>2014-09-22T15:53:16Z</time>
      </trkpt>
      <trkpt lat="47.55214" lon="-0.57545">
        <ele>37.15</ele>
        <time>2014-09-22T15:53:24Z</time>
      </trkpt>
      <trkpt lat="47.55256" lon="-0.57557">
        <ele>37.63</ele>
        <time>2014-09-22T15:53:32Z</time>
      </trkpt>
      <trkpt lat="47.55271" lon="-0.57564">
        <ele>38.11</ele>
        <time>2014-09-22T15:53:35Z</time>
      </trkpt>
      <trkpt lat="47.55315" lon="-0.57592">
        <ele>37.63</ele>
        <time>2014-09-22T15:53:44Z</time>
      </trkpt>
      <trkpt lat="47.55325" lon="-0.57598">
        <ele>37.63</ele>
        <time>2014-09-22T15:53:46Z</time>
      </trkpt>
      <trkpt lat="47.55374" lon="-0.57633">
        <ele>38.11</ele>
        <time>2014-09-22T15:53:56Z</time>
      </trkpt>
      <trkpt lat="47.55406" lon="-0.57656">
        <ele>38.59</ele>
        <time>2014-09-22T15:54:03Z</time>
      </trkpt>
      <trkpt lat="47.55443" lon="-0.57683">
        <ele>39.07</ele>
        <time>2014-09-22T15:54:11Z</time>
      </trkpt>
      <trkpt lat="47.55478" lon="-0.57708">
        <ele>39.55</ele>
        <time>2014-09-22T15:54:18Z</time>
      </trkpt>
      <trkpt lat="47.55514" lon="-0.57734">
        <ele>39.55</ele>
        <time>2014-09-22T15:54:25Z</time>
      </trkpt>
      <trkpt lat="47.55523" lon="-0.57741">
        <ele>39.07</ele>
        <time>2014-09-22T15:54:27Z</time>
      </trkpt>
      <trkpt lat="47.55546" lon="-0.57737">
        <ele>40.03</ele>
        <time>2014-09-22T15:54:32Z</time>
      </trkpt>
      <trkpt lat="47.55554" lon="-0.5773">
        <ele>40.03</ele>
        <time>2014-09-22T15:54:34Z</time>
      </trkpt>
      <trkpt lat="47.55585" lon="-0.57709">
        <ele>39.55</ele>
        <time>2014-09-22T15:54:41Z</time>
      </trkpt>
      <trkpt lat="47.55616" lon="-0.57697">
        <ele>40.03</ele>
        <time>2014-09-22T15:54:47Z</time>
      </trkpt>
      <trkpt lat="47.55654" lon="-0.57691">
        <ele>40.03</ele>
        <time>2014-09-22T15:54:54Z</time>
      </trkpt>
      <trkpt lat="47.55699" lon="-0.57696">
        <ele>40.99</ele>
        <time>2014-09-22T15:55:03Z</time>
      </trkpt>
      <trkpt lat="47.55704" lon="-0.57698">
        <ele>41.47</ele>
        <time>2014-09-22T15:55:04Z</time>
      </trkpt>
      <trkpt lat="47.55756" lon="-0.57715">
        <ele>41.95</ele>
        <time>2014-09-22T15:55:15Z</time>
      </trkpt>
      <trkpt lat="47.55805" lon="-0.57722">
        <ele>42.92</ele>
        <time>2014-09-22T15:55:25Z</time>
      </trkpt>
      <trkpt lat="47.55845" lon="-0.57713">
        <ele>43.4</ele>
        <time>2014-09-22T15:55:33Z</time>
      </trkpt>
      <trkpt lat="47.55883" lon="-0.577">
        <ele>43.4</ele>
        <time>2014-09-22T15:55:41Z</time>
      </trkpt>
      <trkpt lat="47.55939" lon="-0.5768">
        <ele>43.88</ele>
        <time>2014-09-22T15:55:52Z</time>
      </trkpt>
      <trkpt lat="47.55997" lon="-0.57657">
        <ele>44.36</ele>
        <time>2014-09-22T15:56:03Z</time>
      </trkpt>
      <trkpt lat="47.56037" lon="-0.57632">
        <ele>43.88</ele>
        <time>2014-09-22T15:56:11Z</time>
      </trkpt>
      <trkpt lat="47.56057" lon="-0.57621">
        <ele>43.88</ele>
        <time>2014-09-22T15:56:15Z</time>
      </trkpt>
      <trkpt lat="47.56113" lon="-0.57591">
        <ele>44.84</ele>
        <time>2014-09-22T15:56:26Z</time>
      </trkpt>
      <trkpt lat="47.56118" lon="-0.57588">
        <ele>45.32</ele>
        <time>2014-09-22T15:56:27Z</time>
      </trkpt>
      <trkpt lat="47.56136" lon="-0.57576">
        <ele>44.36</ele>
        <time>2014-09-22T15:56:31Z</time>
      </trkpt>
      <trkpt lat="47.56143" lon="-0.57554">
        <ele>43.88</ele>
        <time>2014-09-22T15:56:35Z</time>
      </trkpt>
      <trkpt lat="47.56125" lon="-0.57478">
        <ele>42.92</ele>
        <time>2014-09-22T15:56:45Z</time>
      </trkpt>
      <trkpt lat="47.56118" lon="-0.57454">
        <ele>42.92</ele>
        <time>2014-09-22T15:56:48Z</time>
      </trkpt>
      <trkpt lat="47.56118" lon="-0.57413">
        <ele>43.4</ele>
        <time>2014-09-22T15:56:53Z</time>
      </trkpt>
      <trkpt lat="47.56127" lon="-0.57401">
        <ele>43.4</ele>
        <time>2014-09-22T15:56:55Z</time>
      </trkpt>
      <trkpt lat="47.56176" lon="-0.57351">
        <ele>42.44</ele>
        <time>2014-09-22T15:57:05Z</time>
      </trkpt>
      <trkpt lat="47.56226" lon="-0.57295">
        <ele>41.95</ele>
        <time>2014-09-22T15:57:15Z</time>
      </trkpt>
      <trkpt lat="47.56245" lon="-0.57268">
        <ele>41.47</ele>
        <time>2014-09-22T15:57:19Z</time>
      </trkpt>
      <trkpt lat="47.56261" lon="-0.57242">
        <ele>40.51</ele>
        <time>2014-09-22T15:57:23Z</time>
      </trkpt>
      <trkpt lat="47.56301" lon="-0.57202">
        <ele>40.51</ele>
        <time>2014-09-22T15:57:31Z</time>
      </trkpt>
      <trkpt lat="47.5634" lon="-0.57165">
        <ele>39.07</ele>
        <time>2014-09-22T15:57:38Z</time>
      </trkpt>
      <trkpt lat="47.56376" lon="-0.57117">
        <ele>38.11</ele>
        <time>2014-09-22T15:57:45Z</time>
      </trkpt>
      <trkpt lat="47.56408" lon="-0.57069">
        <ele>37.15</ele>
        <time>2014-09-22T15:57:52Z</time>
      </trkpt>
      <trkpt lat="47.56442" lon="-0.5701">
        <ele>36.19</ele>
        <time>2014-09-22T15:58:00Z</time>
      </trkpt>
      <trkpt lat="47.56482" lon="-0.56934">
        <ele>35.23</ele>
        <time>2014-09-22T15:58:10Z</time>
      </trkpt>
      <trkpt lat="47.56499" lon="-0.56897">
        <ele>34.74</ele>
        <time>2014-09-22T15:58:15Z</time>
      </trkpt>
      <trkpt lat="47.56514" lon="-0.56873">
        <ele>34.74</ele>
        <time>2014-09-22T15:58:19Z</time>
      </trkpt>
      <trkpt lat="47.56522" lon="-0.56865">
        <ele>34.26</ele>
        <time>2014-09-22T15:58:21Z</time>
      </trkpt>
      <trkpt lat="47.56529" lon="-0.5686">
        <ele>35.23</ele>
        <time>2014-09-22T15:58:23Z</time>
      </trkpt>
      <trkpt lat="47.56557" lon="-0.56836">
        <ele>36.19</ele>
        <time>2014-09-22T15:58:30Z</time>
      </trkpt>
      <trkpt lat="47.56585" lon="-0.56814">
        <ele>36.67</ele>
        <time>2014-09-22T15:58:37Z</time>
      </trkpt>
      <trkpt lat="47.56588" lon="-0.56809">
        <ele>36.67</ele>
        <time>2014-09-22T15:58:38Z</time>
      </trkpt>
      <trkpt lat="47.566" lon="-0.56783">
        <ele>36.67</ele>
        <time>2014-09-22T15:58:44Z</time>
      </trkpt>
      <trkpt lat="47.56618" lon="-0.56768">
        <ele>38.11</ele>
        <time>2014-09-22T15:58:51Z</time>
      </trkpt>
      <trkpt lat="47.56636" lon="-0.56755">
        <ele>39.55</ele>
        <time>2014-09-22T15:58:58Z</time>
      </trkpt>
      <trkpt lat="47.56655" lon="-0.56743">
        <ele>40.51</ele>
        <time>2014-09-22T15:59:05Z</time>
      </trkpt>
      <trkpt lat="47.56672" lon="-0.56728">
        <ele>40.99</ele>
        <time>2014-09-22T15:59:11Z</time>
      </trkpt>
      <trkpt lat="47.56688" lon="-0.56714">
        <ele>42.92</ele>
        <time>2014-09-22T15:59:18Z</time>
      </trkpt>
      <trkpt lat="47.56705" lon="-0.567">
        <ele>44.36</ele>
        <time>2014-09-22T15:59:26Z</time>
      </trkpt>
      <trkpt lat="47.56718" lon="-0.56691">
        <ele>46.76</ele>
        <time>2014-09-22T15:59:33Z</time>
      </trkpt>
      <trkpt lat="47.56732" lon="-0.56675">
        <ele>47.72</ele>
        <time>2014-09-22T15:59:42Z</time>
      </trkpt>
      <trkpt lat="47.56743" lon="-0.56659">
        <ele>49.65</ele>
        <time>2014-09-22T15:59:50Z</time>
      </trkpt>
      <trkpt lat="47.56751" lon="-0.56644">
        <ele>51.09</ele>
        <time>2014-09-22T15:59:58Z</time>
      </trkpt>
      <trkpt lat="47.5676" lon="-0.5663">
        <ele>52.05</ele>
        <time>2014-09-22T16:00:06Z</time>
      </trkpt>
      <trkpt lat="47.56766" lon="-0.5662">
        <ele>52.53</ele>
        <time>2014-09-22T16:00:12Z</time>
      </trkpt>
      <trkpt lat="47.56779" lon="-0.56603">
        <ele>53.97</ele>
        <time>2014-09-22T16:00:21Z</time>
      </trkpt>
      <trkpt lat="47.56792" lon="-0.56584">
        <ele>54.45</ele>
        <time>2014-09-22T16:00:30Z</time>
      </trkpt>
      <trkpt lat="47.56806" lon="-0.56564">
        <ele>55.41</ele>
        <time>2014-09-22T16:00:38Z</time>
      </trkpt>
      <trkpt lat="47.56824" lon="-0.56538">
        <ele>56.37</ele>
        <time>2014-09-22T16:00:47Z</time>
      </trkpt>
      <trkpt lat="47.5685" lon="-0.56514">
        <ele>56.37</ele>
        <time>2014-09-22T16:00:57Z</time>
      </trkpt>
      <trkpt lat="47.56871" lon="-0.56498">
        <ele>56.86</ele>
        <time>2014-09-22T16:01:04Z</time>
      </trkpt>
      <trkpt lat="47.56891" lon="-0.56476">
        <ele>55.89</ele>
        <time>2014-09-22T16:01:11Z</time>
      </trkpt>
      <trkpt lat="47.56916" lon="-0.56447">
        <ele>55.41</ele>
        <time>2014-09-22T16:01:18Z</time>
      </trkpt>
      <trkpt lat="47.56931" lon="-0.56432">
        <ele>53.97</ele>
        <time>2014-09-22T16:01:22Z</time>
      </trkpt>
      <trkpt lat="47.56935" lon="-0.564">
        <ele>53.97</ele>
        <time>2014-09-22T16:01:27Z</time>
      </trkpt>
      <trkpt lat="47.56935" lon="-0.56337">
        <ele>53.49</ele>
        <time>2014-09-22T16:01:35Z</time>
      </trkpt>
      <trkpt lat="47.56938" lon="-0.56298">
        <ele>53.01</ele>
        <time>2014-09-22T16:01:40Z</time>
      </trkpt>
      <trkpt lat="47.5693" lon="-0.56275">
        <ele>51.57</ele>
        <time>2014-09-22T16:01:44Z</time>
      </trkpt>
      <trkpt lat="47.56918" lon="-0.56269">
        <ele>51.09</ele>
        <time>2014-09-22T16:01:46Z</time>
      </trkpt>
      <trkpt lat="47.56897" lon="-0.56261">
        <ele>49.65</ele>
        <time>2014-09-22T16:01:49Z</time>
      </trkpt>
      <trkpt lat="47.56885" lon="-0.56246">
        <ele>48.68</ele>
        <time>2014-09-22T16:01:51Z</time>
      </trkpt>
      <trkpt lat="47.56856" lon="-0.56193">
        <ele>45.32</ele>
        <time>2014-09-22T16:01:56Z</time>
      </trkpt>
      <trkpt lat="47.56821" lon="-0.56118">
        <ele>41.95</ele>
        <time>2014-09-22T16:02:02Z</time>
      </trkpt>
      <trkpt lat="47.56815" lon="-0.56106">
        <ele>41.95</ele>
        <time>2014-09-22T16:02:03Z</time>
      </trkpt>
      <trkpt lat="47.56794" lon="-0.56056">
        <ele>40.03</ele>
        <time>2014-09-22T16:02:07Z</time>
      </trkpt>
      <trkpt lat="47.56784" lon="-0.56017">
        <ele>40.03</ele>
        <time>2014-09-22T16:02:10Z</time>
      </trkpt>
      <trkpt lat="47.56763" lon="-0.55969">
        <ele>40.51</ele>
        <time>2014-09-22T16:02:15Z</time>
      </trkpt>
      <trkpt lat="47.56746" lon="-0.55952">
        <ele>40.99</ele>
        <time>2014-09-22T16:02:18Z</time>
      </trkpt>
      <trkpt lat="47.56728" lon="-0.5593">
        <ele>43.4</ele>
        <time>2014-09-22T16:02:22Z</time>
      </trkpt>
      <trkpt lat="47.5671" lon="-0.55904">
        <ele>46.28</ele>
        <time>2014-09-22T16:02:28Z</time>
      </trkpt>
      <trkpt lat="47.56699" lon="-0.55886">
        <ele>48.68</ele>
        <time>2014-09-22T16:02:35Z</time>
      </trkpt>
      <trkpt lat="47.56692" lon="-0.55876">
        <ele>49.65</ele>
        <time>2014-09-22T16:02:41Z</time>
      </trkpt>
      <trkpt lat="47.56688" lon="-0.5587">
        <ele>50.61</ele>
        <time>2014-09-22T16:02:44Z</time>
      </trkpt>
      <trkpt lat="47.56679" lon="-0.55859">
        <ele>52.05</ele>
        <time>2014-09-22T16:02:53Z</time>
      </trkpt>
      <trkpt lat="47.56671" lon="-0.55845">
        <ele>53.97</ele>
        <time>2014-09-22T16:03:01Z</time>
      </trkpt>
      <trkpt lat="47.5666" lon="-0.55828">
        <ele>55.41</ele>
        <time>2014-09-22T16:03:11Z</time>
      </trkpt>
      <trkpt lat="47.56659" lon="-0.55827">
        <ele>54.93</ele>
        <time>2014-09-22T16:03:12Z</time>
      </trkpt>
      <trkpt lat="47.56656" lon="-0.55818">
        <ele>56.37</ele>
        <time>2014-09-22T16:03:16Z</time>
      </trkpt>
      <trkpt lat="47.56649" lon="-0.55802">
        <ele>56.86</ele>
        <time>2014-09-22T16:03:24Z</time>
      </trkpt>
      <trkpt lat="47.56643" lon="-0.5578">
        <ele>57.82</ele>
        <time>2014-09-22T16:03:33Z</time>
      </trkpt>
      <trkpt lat="47.56633" lon="-0.55752">
        <ele>58.3</ele>
        <time>2014-09-22T16:03:42Z</time>
      </trkpt>
      <trkpt lat="47.56618" lon="-0.55719">
        <ele>58.78</ele>
        <time>2014-09-22T16:03:50Z</time>
      </trkpt>
      <trkpt lat="47.56606" lon="-0.5567">
        <ele>58.78</ele>
        <time>2014-09-22T16:03:59Z</time>
      </trkpt>
      <trkpt lat="47.56595" lon="-0.55613">
        <ele>58.3</ele>
        <time>2014-09-22T16:04:09Z</time>
      </trkpt>
      <trkpt lat="47.56586" lon="-0.55579">
        <ele>57.82</ele>
        <time>2014-09-22T16:04:16Z</time>
      </trkpt>
      <trkpt lat="47.56571" lon="-0.55575">
        <ele>57.34</ele>
        <time>2014-09-22T16:04:20Z</time>
      </trkpt>
      <trkpt lat="47.56562" lon="-0.55581">
        <ele>57.34</ele>
        <time>2014-09-22T16:04:22Z</time>
      </trkpt>
      <trkpt lat="47.56522" lon="-0.55604">
        <ele>55.41</ele>
        <time>2014-09-22T16:04:29Z</time>
      </trkpt>
      <trkpt lat="47.56495" lon="-0.55618">
        <ele>54.45</ele>
        <time>2014-09-22T16:04:33Z</time>
      </trkpt>
      <trkpt lat="47.56473" lon="-0.55631">
        <ele>53.01</ele>
        <time>2014-09-22T16:04:36Z</time>
      </trkpt>
      <trkpt lat="47.56408" lon="-0.55662">
        <ele>50.61</ele>
        <time>2014-09-22T16:04:44Z</time>
      </trkpt>
      <trkpt lat="47.56356" lon="-0.55686">
        <ele>50.61</ele>
        <time>2014-09-22T16:04:51Z</time>
      </trkpt>
      <trkpt lat="47.56331" lon="-0.55682">
        <ele>50.13</ele>
        <time>2014-09-22T16:04:55Z</time>
      </trkpt>
      <trkpt lat="47.56321" lon="-0.5567">
        <ele>51.09</ele>
        <time>2014-09-22T16:04:57Z</time>
      </trkpt>
      <trkpt lat="47.56308" lon="-0.55651">
        <ele>52.53</ele>
        <time>2014-09-22T16:05:00Z</time>
      </trkpt>
      <trkpt lat="47.56286" lon="-0.55624">
        <ele>54.93</ele>
        <time>2014-09-22T16:05:05Z</time>
      </trkpt>
      <trkpt lat="47.56252" lon="-0.55597">
        <ele>56.37</ele>
        <time>2014-09-22T16:05:14Z</time>
      </trkpt>
      <trkpt lat="47.56223" lon="-0.5556">
        <ele>56.37</ele>
        <time>2014-09-22T16:05:24Z</time>
      </trkpt>
      <trkpt lat="47.56197" lon="-0.55522">
        <ele>56.86</ele>
        <time>2014-09-22T16:05:34Z</time>
      </trkpt>
      <trkpt lat="47.56169" lon="-0.55475">
        <ele>57.34</ele>
        <time>2014-09-22T16:05:44Z</time>
      </trkpt>
      <trkpt lat="47.56146" lon="-0.55417">
        <ele>56.86</ele>
        <time>2014-09-22T16:05:54Z</time>
      </trkpt>
      <trkpt lat="47.56131" lon="-0.55375">
        <ele>56.86</ele>
        <time>2014-09-22T16:06:01Z</time>
      </trkpt>
      <trkpt lat="47.56121" lon="-0.55349">
        <ele>56.37</ele>
        <time>2014-09-22T16:06:05Z</time>
      </trkpt>
      <trkpt lat="47.56096" lon="-0.55286">
        <ele>55.89</ele>
        <time>2014-09-22T16:06:14Z</time>
      </trkpt>
      <trkpt lat="47.56088" lon="-0.55265">
        <ele>55.41</ele>
        <time>2014-09-22T16:06:17Z</time>
      </trkpt>
      <trkpt lat="47.56075" lon="-0.55247">
        <ele>54.45</ele>
        <time>2014-09-22T16:06:21Z</time>
      </trkpt>
      <trkpt lat="47.56073" lon="-0.55224">
        <ele>54.45</ele>
        <time>2014-09-22T16:06:27Z</time>
      </trkpt>
      <trkpt lat="47.56075" lon="-0.55219">
        <ele>53.97</ele>
        <time>2014-09-22T16:06:28Z</time>
      </trkpt>
      <trkpt lat="47.56092" lon="-0.55182">
        <ele>53.01</ele>
        <time>2014-09-22T16:06:35Z</time>
      </trkpt>
      <trkpt lat="47.56106" lon="-0.55156">
        <ele>52.53</ele>
        <time>2014-09-22T16:06:41Z</time>
      </trkpt>
      <trkpt lat="47.56119" lon="-0.55128">
        <ele>52.05</ele>
        <time>2014-09-22T16:06:47Z</time>
      </trkpt>
      <trkpt lat="47.56123" lon="-0.5512">
        <ele>52.05</ele>
        <time>2014-09-22T16:06:49Z</time>
      </trkpt>
      <trkpt lat="47.56128" lon="-0.55109">
        <ele>52.05</ele>
        <time>2014-09-22T16:06:51Z</time>
      </trkpt>
      <trkpt lat="47.56135" lon="-0.55091">
        <ele>51.09</ele>
        <time>2014-09-22T16:06:54Z</time>
      </trkpt>
      <trkpt lat="47.56168" lon="-0.55027">
        <ele>50.13</ele>
        <time>2014-09-22T16:07:04Z</time>
      </trkpt>
      <trkpt lat="47.56173" lon="-0.5502">
        <ele>49.16</ele>
        <time>2014-09-22T16:07:05Z</time>
      </trkpt>
      <trkpt lat="47.56206" lon="-0.54987">
        <ele>46.76</ele>
        <time>2014-09-22T16:07:12Z</time>
      </trkpt>
      <trkpt lat="47.5622" lon="-0.54969">
        <ele>45.32</ele>
        <time>2014-09-22T16:07:17Z</time>
      </trkpt>
      <trkpt lat="47.56222" lon="-0.5495">
        <ele>42.44</ele>
        <time>2014-09-22T16:07:22Z</time>
      </trkpt>
      <trkpt lat="47.5622" lon="-0.54932">
        <ele>40.51</ele>
        <time>2014-09-22T16:07:26Z</time>
      </trkpt>
      <trkpt lat="47.56212" lon="-0.54914">
        <ele>38.59</ele>
        <time>2014-09-22T16:07:32Z</time>
      </trkpt>
      <trkpt lat="47.56209" lon="-0.5491">
        <ele>38.11</ele>
        <time>2014-09-22T16:07:33Z</time>
      </trkpt>
      <trkpt lat="47.56204" lon="-0.54899">
        <ele>37.15</ele>
        <time>2014-09-22T16:07:35Z</time>
      </trkpt>
      <trkpt lat="47.56191" lon="-0.54873">
        <ele>33.78</ele>
        <time>2014-09-22T16:07:39Z</time>
      </trkpt>
      <trkpt lat="47.56171" lon="-0.54844">
        <ele>30.9</ele>
        <time>2014-09-22T16:07:43Z</time>
      </trkpt>
      <trkpt lat="47.56166" lon="-0.54836">
        <ele>30.42</ele>
        <time>2014-09-22T16:07:44Z</time>
      </trkpt>
      <trkpt lat="47.56139" lon="-0.54762">
        <ele>27.05</ele>
        <time>2014-09-22T16:07:52Z</time>
      </trkpt>
      <trkpt lat="47.56117" lon="-0.54694">
        <ele>25.13</ele>
        <time>2014-09-22T16:07:59Z</time>
      </trkpt>
      <trkpt lat="47.56115" lon="-0.54671">
        <ele>23.69</ele>
        <time>2014-09-22T16:08:04Z</time>
      </trkpt>
      <trkpt lat="47.56117" lon="-0.54666">
        <ele>23.69</ele>
        <time>2014-09-22T16:08:05Z</time>
      </trkpt>
      <trkpt lat="47.56149" lon="-0.54634">
        <ele>24.17</ele>
        <time>2014-09-22T16:08:13Z</time>
      </trkpt>
      <trkpt lat="47.56186" lon="-0.546">
        <ele>23.21</ele>
        <time>2014-09-22T16:08:21Z</time>
      </trkpt>
      <trkpt lat="47.56221" lon="-0.54582">
        <ele>24.17</ele>
        <time>2014-09-22T16:08:28Z</time>
      </trkpt>
      <trkpt lat="47.56266" lon="-0.54574">
        <ele>24.65</ele>
        <time>2014-09-22T16:08:37Z</time>
      </trkpt>
      <trkpt lat="47.56315" lon="-0.54571">
        <ele>25.13</ele>
        <time>2014-09-22T16:08:47Z</time>
      </trkpt>
      <trkpt lat="47.56353" lon="-0.54567">
        <ele>24.65</ele>
        <time>2014-09-22T16:08:55Z</time>
      </trkpt>
      <trkpt lat="47.56408" lon="-0.54562">
        <ele>24.65</ele>
        <time>2014-09-22T16:09:05Z</time>
      </trkpt>
      <trkpt lat="47.56421" lon="-0.54544">
        <ele>24.17</ele>
        <time>2014-09-22T16:09:09Z</time>
      </trkpt>
      <trkpt lat="47.56422" lon="-0.54535">
        <ele>24.17</ele>
        <time>2014-09-22T16:09:10Z</time>
      </trkpt>
      <trkpt lat="47.56422" lon="-0.54517">
        <ele>23.21</ele>
        <time>2014-09-22T16:09:12Z</time>
      </trkpt>
      <trkpt lat="47.5642" lon="-0.54489">
        <ele>22.73</ele>
        <time>2014-09-22T16:09:15Z</time>
      </trkpt>
      <trkpt lat="47.56405" lon="-0.54397">
        <ele>20.81</ele>
        <time>2014-09-22T16:09:25Z</time>
      </trkpt>
      <trkpt lat="47.56411" lon="-0.54366">
        <ele>20.32</ele>
        <time>2014-09-22T16:09:29Z</time>
      </trkpt>
      <trkpt lat="47.56416" lon="-0.54364">
        <ele>20.32</ele>
        <time>2014-09-22T16:09:30Z</time>
      </trkpt>
      <trkpt lat="47.56467" lon="-0.54346">
        <ele>21.29</ele>
        <time>2014-09-22T16:09:39Z</time>
      </trkpt>
      <trkpt lat="47.56512" lon="-0.54325">
        <ele>21.29</ele>
        <time>2014-09-22T16:09:47Z</time>
      </trkpt>
      <trkpt lat="47.56557" lon="-0.54311">
        <ele>21.29</ele>
        <time>2014-09-22T16:09:55Z</time>
      </trkpt>
      <trkpt lat="47.56578" lon="-0.54302">
        <ele>20.81</ele>
        <time>2014-09-22T16:09:59Z</time>
      </trkpt>
      <trkpt lat="47.56638" lon="-0.54286">
        <ele>21.29</ele>
        <time>2014-09-22T16:10:10Z</time>
      </trkpt>
      <trkpt lat="47.56654" lon="-0.54281">
        <ele>21.29</ele>
        <time>2014-09-22T16:10:13Z</time>
      </trkpt>
      <trkpt lat="47.56676" lon="-0.54259">
        <ele>20.81</ele>
        <time>2014-09-22T16:10:18Z</time>
      </trkpt>
      <trkpt lat="47.56687" lon="-0.54241">
        <ele>21.77</ele>
        <time>2014-09-22T16:10:21Z</time>
      </trkpt>
      <trkpt lat="47.56697" lon="-0.54223">
        <ele>21.29</ele>
        <time>2014-09-22T16:10:24Z</time>
      </trkpt>
      <trkpt lat="47.56705" lon="-0.54211">
        <ele>21.29</ele>
        <time>2014-09-22T16:10:26Z</time>
      </trkpt>
      <trkpt lat="47.56723" lon="-0.54197">
        <ele>21.29</ele>
        <time>2014-09-22T16:10:30Z</time>
      </trkpt>
      <trkpt lat="47.56742" lon="-0.54187">
        <ele>21.29</ele>
        <time>2014-09-22T16:10:34Z</time>
      </trkpt>
      <trkpt lat="47.56759" lon="-0.54176">
        <ele>21.29</ele>
        <time>2014-09-22T16:10:38Z</time>
      </trkpt>
      <trkpt lat="47.56777" lon="-0.54165">
        <ele>21.77</ele>
        <time>2014-09-22T16:10:42Z</time>
      </trkpt>
      <trkpt lat="47.56818" lon="-0.54139">
        <ele>21.77</ele>
        <time>2014-09-22T16:10:50Z</time>
      </trkpt>
      <trkpt lat="47.56829" lon="-0.54134">
        <ele>21.29</ele>
        <time>2014-09-22T16:10:52Z</time>
      </trkpt>
      <trkpt lat="47.56863" lon="-0.54118">
        <ele>21.77</ele>
        <time>2014-09-22T16:10:58Z</time>
      </trkpt>
      <trkpt lat="47.5691" lon="-0.54095">
        <ele>21.29</ele>
        <time>2014-09-22T16:11:06Z</time>
      </trkpt>
      <trkpt lat="47.56959" lon="-0.54074">
        <ele>21.77</ele>
        <time>2014-09-22T16:11:14Z</time>
      </trkpt>
      <trkpt lat="47.56974" lon="-0.54062">
        <ele>21.77</ele>
        <time>2014-09-22T16:11:17Z</time>
      </trkpt>
      <trkpt lat="47.57005" lon="-0.54022">
        <ele>21.77</ele>
        <time>2014-09-22T16:11:24Z</time>
      </trkpt>
      <trkpt lat="47.57017" lon="-0.54005">
        <ele>21.77</ele>
        <time>2014-09-22T16:11:27Z</time>
      </trkpt>
      <trkpt lat="47.57025" lon="-0.53991">
        <ele>21.77</ele>
        <time>2014-09-22T16:11:29Z</time>
      </trkpt>
      <trkpt lat="47.57031" lon="-0.53961">
        <ele>21.77</ele>
        <time>2014-09-22T16:11:33Z</time>
      </trkpt>
      <trkpt lat="47.57041" lon="-0.53932">
        <ele>21.29</ele>
        <time>2014-09-22T16:11:37Z</time>
      </trkpt>
      <trkpt lat="47.5706" lon="-0.53917">
        <ele>21.29</ele>
        <time>2014-09-22T16:11:41Z</time>
      </trkpt>
      <trkpt lat="47.57066" lon="-0.53913">
        <ele>21.29</ele>
        <time>2014-09-22T16:11:42Z</time>
      </trkpt>
      <trkpt lat="47.57114" lon="-0.53883">
        <ele>20.81</ele>
        <time>2014-09-22T16:11:51Z</time>
      </trkpt>
      <trkpt lat="47.57141" lon="-0.53868">
        <ele>21.29</ele>
        <time>2014-09-22T16:11:56Z</time>
      </trkpt>
      <trkpt lat="47.57174" lon="-0.53847">
        <ele>20.81</ele>
        <time>2014-09-22T16:12:02Z</time>
      </trkpt>
      <trkpt lat="47.57185" lon="-0.53844">
        <ele>21.29</ele>
        <time>2014-09-22T16:12:04Z</time>
      </trkpt>
      <trkpt lat="47.57231" lon="-0.53837">
        <ele>21.77</ele>
        <time>2014-09-22T16:12:12Z</time>
      </trkpt>
      <trkpt lat="47.57242" lon="-0.53836">
        <ele>21.77</ele>
        <time>2014-09-22T16:12:14Z</time>
      </trkpt>
      <trkpt lat="47.57263" lon="-0.53823">
        <ele>22.73</ele>
        <time>2014-09-22T16:12:19Z</time>
      </trkpt>
      <trkpt lat="47.57264" lon="-0.53799">
        <ele>23.21</ele>
        <time>2014-09-22T16:12:23Z</time>
      </trkpt>
      <trkpt lat="47.5726" lon="-0.53748">
        <ele>23.21</ele>
        <time>2014-09-22T16:12:31Z</time>
      </trkpt>
      <trkpt lat="47.57264" lon="-0.53691">
        <ele>23.69</ele>
        <time>2014-09-22T16:12:39Z</time>
      </trkpt>
      <trkpt lat="47.5727" lon="-0.53654">
        <ele>22.73</ele>
        <time>2014-09-22T16:12:44Z</time>
      </trkpt>
      <trkpt lat="47.57277" lon="-0.53608">
        <ele>22.73</ele>
        <time>2014-09-22T16:12:50Z</time>
      </trkpt>
      <trkpt lat="47.57285" lon="-0.53568">
        <ele>22.25</ele>
        <time>2014-09-22T16:12:55Z</time>
      </trkpt>
      <trkpt lat="47.57288" lon="-0.53542">
        <ele>22.25</ele>
        <time>2014-09-22T16:12:58Z</time>
      </trkpt>
      <trkpt lat="47.57297" lon="-0.53509">
        <ele>22.25</ele>
        <time>2014-09-22T16:13:02Z</time>
      </trkpt>
      <trkpt lat="47.57308" lon="-0.53492">
        <ele>21.77</ele>
        <time>2014-09-22T16:13:05Z</time>
      </trkpt>
      <trkpt lat="47.5735" lon="-0.53455">
        <ele>21.77</ele>
        <time>2014-09-22T16:13:14Z</time>
      </trkpt>
      <trkpt lat="47.57355" lon="-0.53451">
        <ele>21.77</ele>
        <time>2014-09-22T16:13:15Z</time>
      </trkpt>
      <trkpt lat="47.57364" lon="-0.53445">
        <ele>21.77</ele>
        <time>2014-09-22T16:13:17Z</time>
      </trkpt>
      <trkpt lat="47.57405" lon="-0.53424">
        <ele>21.77</ele>
        <time>2014-09-22T16:13:25Z</time>
      </trkpt>
      <trkpt lat="47.57453" lon="-0.53411">
        <ele>22.25</ele>
        <time>2014-09-22T16:13:34Z</time>
      </trkpt>
      <trkpt lat="47.57495" lon="-0.534">
        <ele>21.29</ele>
        <time>2014-09-22T16:13:42Z</time>
      </trkpt>
      <trkpt lat="47.5751" lon="-0.53398">
        <ele>21.29</ele>
        <time>2014-09-22T16:13:45Z</time>
      </trkpt>
      <trkpt lat="47.5752" lon="-0.53384">
        <ele>21.29</ele>
        <time>2014-09-22T16:13:49Z</time>
      </trkpt>
      <trkpt lat="47.5752" lon="-0.53378">
        <ele>22.25</ele>
        <time>2014-09-22T16:13:50Z</time>
      </trkpt>
      <trkpt lat="47.57523" lon="-0.53316">
        <ele>21.77</ele>
        <time>2014-09-22T16:13:58Z</time>
      </trkpt>
      <trkpt lat="47.57527" lon="-0.53292">
        <ele>22.25</ele>
        <time>2014-09-22T16:14:01Z</time>
      </trkpt>
      <trkpt lat="47.57551" lon="-0.53205">
        <ele>21.29</ele>
        <time>2014-09-22T16:14:11Z</time>
      </trkpt>
      <trkpt lat="47.57555" lon="-0.53186">
        <ele>21.29</ele>
        <time>2014-09-22T16:14:13Z</time>
      </trkpt>
      <trkpt lat="47.57555" lon="-0.53129">
        <ele>21.77</ele>
        <time>2014-09-22T16:14:19Z</time>
      </trkpt>
      <trkpt lat="47.57546" lon="-0.53105">
        <ele>21.77</ele>
        <time>2014-09-22T16:14:22Z</time>
      </trkpt>
      <trkpt lat="47.57512" lon="-0.53043">
        <ele>21.77</ele>
        <time>2014-09-22T16:14:31Z</time>
      </trkpt>
      <trkpt lat="47.57485" lon="-0.52996">
        <ele>21.29</ele>
        <time>2014-09-22T16:14:38Z</time>
      </trkpt>
      <trkpt lat="47.57451" lon="-0.52938">
        <ele>21.29</ele>
        <time>2014-09-22T16:14:47Z</time>
      </trkpt>
      <trkpt lat="47.57408" lon="-0.52866">
        <ele>21.29</ele>
        <time>2014-09-22T16:14:58Z</time>
      </trkpt>
      <trkpt lat="47.57368" lon="-0.528">
        <ele>21.29</ele>
        <time>2014-09-22T16:15:08Z</time>
      </trkpt>
      <trkpt lat="47.57332" lon="-0.52741">
        <ele>20.81</ele>
        <time>2014-09-22T16:15:17Z</time>
      </trkpt>
      <trkpt lat="47.57299" lon="-0.52689">
        <ele>21.29</ele>
        <time>2014-09-22T16:15:25Z</time>
      </trkpt>
      <trkpt lat="47.57274" lon="-0.52648">
        <ele>21.29</ele>
        <time>2014-09-22T16:15:31Z</time>
      </trkpt>
      <trkpt lat="47.57228" lon="-0.52574">
        <ele>21.77</ele>
        <time>2014-09-22T16:15:42Z</time>
      </trkpt>
      <trkpt lat="47.572" lon="-0.52528">
        <ele>21.29</ele>
        <time>2014-09-22T16:15:49Z</time>
      </trkpt>
      <trkpt lat="47.57168" lon="-0.52475">
        <ele>21.77</ele>
        <time>2014-09-22T16:15:57Z</time>
      </trkpt>
      <trkpt lat="47.57134" lon="-0.5242">
        <ele>21.29</ele>
        <time>2014-09-22T16:16:05Z</time>
      </trkpt>
      <trkpt lat="47.57114" lon="-0.52387">
        <ele>21.29</ele>
        <time>2014-09-22T16:16:10Z</time>
      </trkpt>
      <trkpt lat="47.57078" lon="-0.52329">
        <ele>21.77</ele>
        <time>2014-09-22T16:16:19Z</time>
      </trkpt>
      <trkpt lat="47.57063" lon="-0.52304">
        <ele>20.81</ele>
        <time>2014-09-22T16:16:23Z</time>
      </trkpt>
      <trkpt lat="47.57025" lon="-0.52242">
        <ele>20.81</ele>
        <time>2014-09-22T16:16:32Z</time>
      </trkpt>
      <trkpt lat="47.56997" lon="-0.52194">
        <ele>20.81</ele>
        <time>2014-09-22T16:16:39Z</time>
      </trkpt>
      <trkpt lat="47.56954" lon="-0.52122">
        <ele>21.29</ele>
        <time>2014-09-22T16:16:49Z</time>
      </trkpt>
      <trkpt lat="47.56918" lon="-0.52064">
        <ele>21.77</ele>
        <time>2014-09-22T16:16:57Z</time>
      </trkpt>
      <trkpt lat="47.56889" lon="-0.52017">
        <ele>21.77</ele>
        <time>2014-09-22T16:17:04Z</time>
      </trkpt>
      <trkpt lat="47.56849" lon="-0.51951">
        <ele>21.29</ele>
        <time>2014-09-22T16:17:14Z</time>
      </trkpt>
      <trkpt lat="47.56806" lon="-0.51886">
        <ele>21.77</ele>
        <time>2014-09-22T16:17:24Z</time>
      </trkpt>
      <trkpt lat="47.56773" lon="-0.51837">
        <ele>21.77</ele>
        <time>2014-09-22T16:17:32Z</time>
      </trkpt>
      <trkpt lat="47.56739" lon="-0.51787">
        <ele>22.25</ele>
        <time>2014-09-22T16:17:40Z</time>
      </trkpt>
      <trkpt lat="47.56734" lon="-0.51781">
        <ele>22.25</ele>
        <time>2014-09-22T16:17:41Z</time>
      </trkpt>
      <trkpt lat="47.56696" lon="-0.51723">
        <ele>21.77</ele>
        <time>2014-09-22T16:17:50Z</time>
      </trkpt>
      <trkpt lat="47.56662" lon="-0.51672">
        <ele>21.77</ele>
        <time>2014-09-22T16:17:58Z</time>
      </trkpt>
      <trkpt lat="47.56633" lon="-0.51626">
        <ele>22.25</ele>
        <time>2014-09-22T16:18:05Z</time>
      </trkpt>
      <trkpt lat="47.56609" lon="-0.51572">
        <ele>22.25</ele>
        <time>2014-09-22T16:18:12Z</time>
      </trkpt>
      <trkpt lat="47.56597" lon="-0.51501">
        <ele>22.25</ele>
        <time>2014-09-22T16:18:20Z</time>
      </trkpt>
      <trkpt lat="47.56583" lon="-0.51404">
        <ele>21.77</ele>
        <time>2014-09-22T16:18:31Z</time>
      </trkpt>
      <trkpt lat="47.56573" lon="-0.51323">
        <ele>21.77</ele>
        <time>2014-09-22T16:18:40Z</time>
      </trkpt>
      <trkpt lat="47.5658" lon="-0.5127">
        <ele>22.25</ele>
        <time>2014-09-22T16:18:46Z</time>
      </trkpt>
      <trkpt lat="47.566" lon="-0.51242">
        <ele>21.29</ele>
        <time>2014-09-22T16:18:51Z</time>
      </trkpt>
      <trkpt lat="47.56624" lon="-0.51234">
        <ele>21.77</ele>
        <time>2014-09-22T16:18:55Z</time>
      </trkpt>
      <trkpt lat="47.56693" lon="-0.51231">
        <ele>21.77</ele>
        <time>2014-09-22T16:19:06Z</time>
      </trkpt>
      <trkpt lat="47.56752" lon="-0.51228">
        <ele>21.77</ele>
        <time>2014-09-22T16:19:16Z</time>
      </trkpt>
      <trkpt lat="47.56817" lon="-0.51226">
        <ele>21.77</ele>
        <time>2014-09-22T16:19:28Z</time>
      </trkpt>
      <trkpt lat="47.5687" lon="-0.51224">
        <ele>21.77</ele>
        <time>2014-09-22T16:19:38Z</time>
      </trkpt>
      <trkpt lat="47.56895" lon="-0.51219">
        <ele>21.77</ele>
        <time>2014-09-22T16:19:43Z</time>
      </trkpt>
      <trkpt lat="47.56909" lon="-0.51212">
        <ele>21.77</ele>
        <time>2014-09-22T16:19:46Z</time>
      </trkpt>
      <trkpt lat="47.56926" lon="-0.51195">
        <ele>21.77</ele>
        <time>2014-09-22T16:19:50Z</time>
      </trkpt>
      <trkpt lat="47.56939" lon="-0.51175">
        <ele>22.25</ele>
        <time>2014-09-22T16:19:54Z</time>
      </trkpt>
      <trkpt lat="47.56964" lon="-0.51117">
        <ele>22.25</ele>
        <time>2014-09-22T16:20:03Z</time>
      </trkpt>
      <trkpt lat="47.56986" lon="-0.51066">
        <ele>21.77</ele>
        <time>2014-09-22T16:20:11Z</time>
      </trkpt>
      <trkpt lat="47.57009" lon="-0.51004">
        <ele>22.73</ele>
        <time>2014-09-22T16:20:21Z</time>
      </trkpt>
      <trkpt lat="47.57011" lon="-0.50998">
        <ele>23.21</ele>
        <time>2014-09-22T16:20:22Z</time>
      </trkpt>
      <trkpt lat="47.57014" lon="-0.50979">
        <ele>23.69</ele>
        <time>2014-09-22T16:20:25Z</time>
      </trkpt>
      <trkpt lat="47.57012" lon="-0.50926">
        <ele>25.13</ele>
        <time>2014-09-22T16:20:34Z</time>
      </trkpt>
      <trkpt lat="47.56999" lon="-0.50882">
        <ele>26.09</ele>
        <time>2014-09-22T16:20:43Z</time>
      </trkpt>
      <trkpt lat="47.56988" lon="-0.50849">
        <ele>26.57</ele>
        <time>2014-09-22T16:20:51Z</time>
      </trkpt>
      <trkpt lat="47.56981" lon="-0.50823">
        <ele>28.02</ele>
        <time>2014-09-22T16:20:58Z</time>
      </trkpt>
      <trkpt lat="47.56973" lon="-0.50797">
        <ele>28.02</ele>
        <time>2014-09-22T16:21:05Z</time>
      </trkpt>
      <trkpt lat="47.56958" lon="-0.50752">
        <ele>28.02</ele>
        <time>2014-09-22T16:21:15Z</time>
      </trkpt>
      <trkpt lat="47.56944" lon="-0.50707">
        <ele>28.02</ele>
        <time>2014-09-22T16:21:22Z</time>
      </trkpt>
      <trkpt lat="47.56929" lon="-0.50647">
        <ele>26.09</ele>
        <time>2014-09-22T16:21:29Z</time>
      </trkpt>
      <trkpt lat="47.56925" lon="-0.5062">
        <ele>26.57</ele>
        <time>2014-09-22T16:21:32Z</time>
      </trkpt>
      <trkpt lat="47.56908" lon="-0.5059">
        <ele>25.13</ele>
        <time>2014-09-22T16:21:37Z</time>
      </trkpt>
      <trkpt lat="47.56903" lon="-0.50589">
        <ele>25.61</ele>
        <time>2014-09-22T16:21:38Z</time>
      </trkpt>
      <trkpt lat="47.56835" lon="-0.50585">
        <ele>25.13</ele>
        <time>2014-09-22T16:21:49Z</time>
      </trkpt>
      <trkpt lat="47.5678" lon="-0.50569">
        <ele>26.09</ele>
        <time>2014-09-22T16:21:58Z</time>
      </trkpt>
      <trkpt lat="47.56775" lon="-0.50566">
        <ele>25.61</ele>
        <time>2014-09-22T16:21:59Z</time>
      </trkpt>
      <trkpt lat="47.56729" lon="-0.50536">
        <ele>25.13</ele>
        <time>2014-09-22T16:22:08Z</time>
      </trkpt>
      <trkpt lat="47.56725" lon="-0.50533">
        <ele>24.65</ele>
        <time>2014-09-22T16:22:09Z</time>
      </trkpt>
      <trkpt lat="47.56717" lon="-0.50509">
        <ele>25.13</ele>
        <time>2014-09-22T16:22:13Z</time>
      </trkpt>
      <trkpt lat="47.5672" lon="-0.50501">
        <ele>24.65</ele>
        <time>2014-09-22T16:22:14Z</time>
      </trkpt>
      <trkpt lat="47.56753" lon="-0.50416">
        <ele>25.13</ele>
        <time>2014-09-22T16:22:25Z</time>
      </trkpt>
      <trkpt lat="47.56776" lon="-0.50369">
        <ele>24.65</ele>
        <time>2014-09-22T16:22:32Z</time>
      </trkpt>
      <trkpt lat="47.5681" lon="-0.50315">
        <ele>24.65</ele>
        <time>2014-09-22T16:22:41Z</time>
      </trkpt>
      <trkpt lat="47.56818" lon="-0.50304">
        <ele>24.65</ele>
        <time>2014-09-22T16:22:43Z</time>
      </trkpt>
      <trkpt lat="47.56842" lon="-0.50293">
        <ele>24.65</ele>
        <time>2014-09-22T16:22:48Z</time>
      </trkpt>
      <trkpt lat="47.56866" lon="-0.50299">
        <ele>25.61</ele>
        <time>2014-09-22T16:22:53Z</time>
      </trkpt>
      <trkpt lat="47.56902" lon="-0.50331">
        <ele>28.5</ele>
        <time>2014-09-22T16:23:03Z</time>
      </trkpt>
      <trkpt lat="47.5692" lon="-0.50349">
        <ele>30.42</ele>
        <time>2014-09-22T16:23:10Z</time>
      </trkpt>
      <trkpt lat="47.56922" lon="-0.50351">
        <ele>30.9</ele>
        <time>2014-09-22T16:23:11Z</time>
      </trkpt>
      <trkpt lat="47.56936" lon="-0.50359">
        <ele>32.82</ele>
        <time>2014-09-22T16:23:18Z</time>
      </trkpt>
      <trkpt lat="47.56947" lon="-0.50356">
        <ele>34.26</ele>
        <time>2014-09-22T16:23:24Z</time>
      </trkpt>
      <trkpt lat="47.56958" lon="-0.50342">
        <ele>34.74</ele>
        <time>2014-09-22T16:23:32Z</time>
      </trkpt>
      <trkpt lat="47.56967" lon="-0.50326">
        <ele>36.19</ele>
        <time>2014-09-22T16:23:39Z</time>
      </trkpt>
      <trkpt lat="47.5698" lon="-0.50306">
        <ele>36.67</ele>
        <time>2014-09-22T16:23:47Z</time>
      </trkpt>
      <trkpt lat="47.56986" lon="-0.5029">
        <ele>37.15</ele>
        <time>2014-09-22T16:23:53Z</time>
      </trkpt>
      <trkpt lat="47.56998" lon="-0.50272">
        <ele>38.11</ele>
        <time>2014-09-22T16:24:01Z</time>
      </trkpt>
      <trkpt lat="47.56999" lon="-0.50268">
        <ele>37.63</ele>
        <time>2014-09-22T16:24:06Z</time>
      </trkpt>
      <trkpt lat="47.56999" lon="-0.50268">
        <ele>37.63</ele>
        <time>2014-09-22T16:24:16Z</time>
      </trkpt>
      <trkpt lat="47.56999" lon="-0.50268">
        <ele>37.15</ele>
        <time>2014-09-22T16:24:27Z</time>
      </trkpt>
      <trkpt lat="47.56999" lon="-0.50266">
        <ele>37.63</ele>
        <time>2014-09-22T16:24:28Z</time>
      </trkpt>
      <trkpt lat="47.57006" lon="-0.50248">
        <ele>37.15</ele>
        <time>2014-09-22T16:24:34Z</time>
      </trkpt>
      <trkpt lat="47.57007" lon="-0.50242">
        <ele>36.67</ele>
        <time>2014-09-22T16:24:38Z</time>
      </trkpt>
      <trkpt lat="47.57006" lon="-0.50238">
        <ele>36.67</ele>
        <time>2014-09-22T16:24:46Z</time>
      </trkpt>
      <trkpt lat="47.57006" lon="-0.50238">
        <ele>47.24</ele>
        <time>2014-09-22T16:24:48Z</time>
      </trkpt>
      <trkpt lat="47.57006" lon="-0.50238">
        <ele>37.15</ele>
        <time>2014-09-22T16:24:49Z</time>
      </trkpt>
      <trkpt lat="47.57006" lon="-0.50238">
        <ele>33.78</ele>
        <time>2014-09-22T16:24:54Z</time>
      </trkpt>
      <trkpt lat="47.57006" lon="-0.50238">
        <ele>36.67</ele>
        <time>2014-09-22T16:24:55Z</time>
      </trkpt>
    </trkseg>
  </trk>
</gpx>